Date StartTime U_cm/s V_cm/s W_cm/s Ustd_cm/s Vstd_cm/s Wstd_cm/s Uvar_(cm/s)^2 Vvar_(cm/s)^2 Wvar_(cm/s)^2 KE_(m/s)^2 TurbulentKE_(m/s)^2 HorizWindSpeed_cm/s FrictionSpeec_cm/s DragCoef SpeedOfSound_m/s SonicTemperature_C Pressure_mb 
08/13/2013  00:00:00     -167.337      -26.484      -10.408       64.158       69.166       30.685     4116.233     4783.881      941.572        1.932        0.492      169.420       21.171        0.016      344.614       21.557      863.583
08/13/2013  00:01:00     -135.296      -61.183      -10.875       57.498       39.498       35.466     3305.969     1560.064     1257.840        1.414        0.306      148.487       25.001        0.028      344.564       21.472      863.600
08/13/2013  00:02:00      -58.869       29.903       13.071       41.502       52.468       27.803     1722.427     2752.864      773.025        0.489        0.262       66.028       19.647        0.089      344.384       21.164      863.603
08/13/2013  00:03:00      -98.494       -2.715      -11.730       66.010       37.952       24.896     4357.346     1440.370      619.792        0.813        0.321       98.532       24.410        0.061      344.479       21.327      863.600
08/13/2013  00:04:00      -55.296       24.793       -7.963       27.042       23.290       19.024      731.261      542.425      361.928        0.269        0.082       60.600       10.630        0.031      344.342       21.094      863.600
08/13/2013  00:05:00      -48.971       20.241        4.139       21.665       18.964       19.364      469.367      359.633      374.951        0.201        0.060       52.989       12.577        0.056      344.304       21.028      863.612
08/13/2013  00:06:00      -80.713       63.859      -11.925       25.531       26.176       16.448      651.850      685.180      270.534        0.617        0.080      102.920       11.483        0.012      344.208       20.864      863.622
08/13/2013  00:07:00      -64.564       49.817       -8.128       29.096       36.592       19.159      846.556     1338.993      367.079        0.463        0.128       81.548       17.528        0.046      344.156       20.775      863.626
08/13/2013  00:08:00      -60.704       60.226      -10.792       30.811       24.582       12.422      949.297      604.270      154.304        0.457        0.085       85.510       13.870        0.026      344.179       20.814      863.625
08/13/2013  00:09:00      -89.943       90.523      -24.008       21.517       30.629       13.826      462.960      938.130      191.147        0.923        0.080      127.610       13.437        0.011      344.111       20.698      863.624
08/13/2013  00:10:00     -101.534       59.459      -12.559       33.656       28.360       20.731     1132.741      804.309      429.762        0.818        0.118      117.663       13.574        0.013      344.114       20.701      863.622
08/13/2013  00:11:00      -79.505       61.937       -7.057       38.385       40.298       23.127     1473.407     1623.946      534.871        0.692        0.182      100.783       19.349        0.037      344.015       20.535      863.638
08/13/2013  00:12:00     -100.305       49.219      -12.850       34.150       46.664       25.376     1166.248     2177.567      643.954        0.832        0.199      111.730       17.900        0.026      344.043       20.582      863.640
08/13/2013  00:13:00      -69.572       51.040       -1.875       31.333       29.698       21.748      981.742      881.987      472.965        0.489        0.117       86.286       16.143        0.035      344.071       20.629      863.644
08/13/2013  00:14:00      -92.793       -7.716       -1.270       34.115       35.154       24.528     1163.816     1235.772      601.620        0.584        0.150       93.113       24.162        0.067      344.144       20.754      863.649
08/13/2013  00:15:00      -98.465      -18.644       -0.505       41.149       42.288       22.568     1693.267     1788.293      509.327        0.702        0.200      100.215       20.176        0.041      344.136       20.741      863.657
08/13/2013  00:16:00      -62.567      -12.560       -3.783       46.394       34.798       21.792     2152.389     1210.893      474.903        0.396        0.192       63.815       24.954        0.153      344.083       20.649      863.662
08/13/2013  00:17:00      -70.968        9.344        0.698       42.857       52.790       17.802     1836.707     2786.764      316.906        0.503        0.247       71.580       16.540        0.053      343.966       20.449      863.668
08/13/2013  00:18:00      -48.124      -16.367        0.044       31.006       26.748       18.201      961.386      715.436      331.291        0.230        0.100       50.832       19.945        0.154      344.012       20.528      863.679
08/13/2013  00:19:00      -73.973      -21.627       -6.822       21.174       19.109       13.386      448.343      365.136      179.178        0.349        0.050       77.070       11.953        0.024      343.998       20.506      863.684
08/13/2013  00:20:00      -44.837      -33.561       -5.624       11.453       15.473        6.622      131.163      239.420       43.856        0.179        0.021       56.006        6.461        0.013      344.038       20.575      863.690
08/13/2013  00:21:00      -31.940      -20.002       -2.624        8.840       12.712        8.045       78.153      161.602       64.723        0.087        0.015       37.686        5.120        0.018      344.007       20.522      863.693
08/13/2013  00:22:00      -24.889        9.990        1.447       12.237        9.127        8.527      149.732       83.299       72.716        0.051        0.015       26.819        8.726        0.106      343.944       20.412      863.694
08/13/2013  00:23:00      -26.512       12.999       -1.152        6.297        5.469        4.458       39.651       29.905       19.870        0.048        0.004       29.527        1.714        0.003      343.973       20.465      863.701
08/13/2013  00:24:00      -32.755       24.688       -4.552       12.754        5.735        5.905      162.655       32.890       34.875        0.097        0.012       41.017        5.573        0.018      343.983       20.481      863.705
08/13/2013  00:25:00      -47.088       39.535       -9.156        4.775        6.052        5.327       22.797       36.625       28.378        0.198        0.004       61.484        2.737        0.002      344.039       20.575      863.706
08/13/2013  00:26:00      -41.818       36.848       -7.175        9.528        9.091        5.401       90.781       82.646       29.168        0.168        0.010       55.736        3.328        0.004      344.077       20.639      863.707
08/13/2013  00:27:00      -35.888       47.868      -10.832       13.492       20.641        7.304      182.038      426.056       53.352        0.218        0.033       59.827        5.539        0.009      344.009       20.522      863.711
08/13/2013  00:28:00      -42.047       52.055       -9.485       26.533       14.495       11.172      704.016      210.106      124.811        0.280        0.052       66.916       10.985        0.027      344.103       20.686      863.712
08/13/2013  00:29:00      -44.345       70.333      -11.121       29.832       18.881       11.631      889.958      356.482      135.281        0.421        0.069       83.145        7.936        0.009      344.118       20.711      863.713
08/13/2013  00:30:00      -47.153       59.135      -12.665       16.032       16.977       12.598      257.016      288.206      158.700        0.329        0.035       75.634       11.499        0.023      343.962       20.444      863.712
08/13/2013  00:31:00      -77.062       66.048      -14.317       26.459       23.088       16.848      700.058      533.038      283.870        0.601        0.076      101.493       14.498        0.020      343.806       20.177      863.720
08/13/2013  00:32:00      -91.114       51.379      -15.054       26.010       21.735       18.667      676.500      472.390      348.453        0.633        0.075      104.601       16.141        0.024      343.894       20.328      863.717
08/13/2013  00:33:00      -97.887       62.346      -19.714       25.588       29.072       15.694      654.737      845.177      246.304        0.780        0.087      116.056       16.550        0.020      343.890       20.322      863.717
08/13/2013  00:34:00      -87.392       55.432      -17.022       26.586       29.787       21.143      706.797      887.272      447.022        0.652        0.102      103.490       17.899        0.030      343.848       20.249      863.718
08/13/2013  00:35:00      -66.320       71.705      -13.302       35.354       18.642       17.049     1249.871      347.536      290.669        0.580        0.094       97.673       19.372        0.039      343.926       20.382      863.731
08/13/2013  00:36:00      -63.182       19.284      -10.223       19.049       32.568       11.344      362.875     1060.702      128.687        0.301        0.078       66.060       10.488        0.025      343.866       20.280      863.739
08/13/2013  00:37:00      -85.229       24.332       -5.953       24.172       17.704       13.789      584.292      313.422      190.143        0.449        0.054       88.635       14.082        0.025      343.927       20.383      863.737
08/13/2013  00:38:00      -78.071       13.135      -11.192       30.968       21.432       12.498      959.031      459.343      156.199        0.398        0.079       79.168       13.898        0.031      344.054       20.599      863.742
08/13/2013  00:39:00      -52.520       -0.151       -8.325       11.872       10.451        7.951      140.946      109.222       63.226        0.157        0.016       52.520        4.026        0.006      343.818       20.198      863.745
08/13/2013  00:40:00      -45.558       -7.257       -9.080        9.223        7.997        5.490       85.065       63.953       30.136        0.119        0.009       46.133        1.151        0.001      343.643       19.897      863.760
08/13/2013  00:41:00      -50.647       -7.436       -7.977        8.625       11.847        9.548       74.396      140.362       91.157        0.149        0.015       51.190        6.529        0.016      343.686       19.973      863.768
08/13/2013  00:42:00      -39.170      -12.378       -8.463        8.147       10.751        6.075       66.373      115.581       36.908        0.099        0.011       41.080        5.304        0.017      343.633       19.883      863.774
08/13/2013  00:43:00      -38.786        1.447       -1.625       22.308       13.956       11.822      497.634      194.781      139.766        0.117        0.042       38.813       11.524        0.088      343.651       19.912      863.775
08/13/2013  00:44:00      -56.007      -18.693       -3.960        9.243       12.634       10.295       85.441      159.612      105.984        0.193        0.018       59.044        6.093        0.011      343.644       19.902      863.777
08/13/2013  00:45:00      -53.900      -18.712       -4.955        8.990       14.066        9.579       80.819      197.861       91.757        0.183        0.019       57.056        0.810        0.000      343.412       19.505      863.775
08/13/2013  00:46:00      -74.521      -18.910       -4.312       18.407       12.112        9.617      338.826      146.694       92.478        0.325        0.029       76.883        9.829        0.016      343.503       19.659      863.774
08/13/2013  00:47:00     -109.964      -42.404      -12.196        8.740        9.935        6.494       76.395       98.712       42.174        0.713        0.011      117.856        3.153        0.001      343.423       19.524      863.778
08/13/2013  00:48:00      -98.553      -24.823       -6.861       10.469       12.329        7.058      109.606      152.011       49.814        0.534        0.016      101.631        6.070        0.004      343.469       19.602      863.777
08/13/2013  00:49:00      -91.099      -14.801      -10.062       13.795        9.251        6.998      190.314       85.587       48.974        0.447        0.016       92.294        4.056        0.002      343.442       19.556      863.768
08/13/2013  00:50:00      -79.418      -21.628       -2.698       31.159       14.757       14.020      970.859      217.769      196.562        0.408        0.069       82.310       15.765        0.037      343.329       19.364      863.769
08/13/2013  00:51:00      -83.760      -46.571       -1.142       30.576       24.884       15.081      934.863      619.191      227.438        0.548        0.089       95.836       14.624        0.023      343.266       19.257      863.772
08/13/2013  00:52:00      -97.968      -38.257      -10.727       14.938       15.506       14.016      223.135      240.430      196.456        0.592        0.033      105.173        9.696        0.008      343.231       19.198      863.767
08/13/2013  00:53:00      -90.913      -22.848       -8.101       25.791       21.417       12.404      665.176      458.687      153.853        0.507        0.064       93.740       11.445        0.015      343.174       19.101      863.766
08/13/2013  00:54:00      -81.024      -36.407       -0.680       27.103       19.162       13.584      734.559      367.174      184.514        0.459        0.064       88.828       13.537        0.023      343.190       19.127      863.771
08/13/2013  00:55:00      -62.610      -29.649        5.903       45.705       24.807       15.193     2088.915      615.398      230.823        0.388        0.147       69.276       20.798        0.090      343.244       19.219      863.775
08/13/2013  00:56:00     -117.808      -43.548       -9.924       20.650       19.254       10.735      426.424      370.732      115.231        0.839        0.046      125.599        5.611        0.002      343.235       19.205      863.774
08/13/2013  00:57:00      -53.766      -33.098        3.918       36.764       27.825       17.827     1351.558      774.213      317.788        0.322        0.122       63.137       13.572        0.046      343.221       19.181      863.769
08/13/2013  00:58:00      -50.759      -45.547       -1.102       29.017       26.283       18.804      841.993      690.787      353.589        0.327        0.094       68.198       12.680        0.035      343.313       19.336      863.776
08/13/2013  00:59:00      -73.196      -52.021       -2.713       25.171       16.655       13.307      633.598      277.393      177.080        0.458        0.054       89.799        8.835        0.010      343.325       19.356      863.778
08/13/2013  01:00:00      -82.400      -57.073       -2.404       32.458       17.483       14.744     1053.516      305.638      217.375        0.581        0.079      100.235       17.110        0.029      343.236       19.206      863.771
08/13/2013  01:01:00      -68.405      -43.152        1.404       29.387       18.651       14.927      863.574      347.868      222.827        0.399        0.072       80.879       12.188        0.023      343.243       19.218      863.764
08/13/2013  01:02:00      -53.918      -42.216       -0.802       36.510       26.260       20.006     1332.953      689.565      400.231        0.356        0.121       68.479       18.265        0.071      343.287       19.294      863.768
08/13/2013  01:03:00      -80.265      -56.602        5.977       47.771       35.215       22.978     2282.077     1240.123      527.969        0.687        0.203       98.215       21.266        0.047      343.294       19.303      863.773
08/13/2013  01:04:00      -88.020      -71.568        5.408       45.004       34.265       22.718     2025.387     1174.120      516.107        0.831        0.186      113.444       22.336        0.039      343.369       19.431      863.773
08/13/2013  01:05:00      -71.417      -69.994       11.855       52.626       38.371       33.663     2769.447     1472.311     1133.193        0.776        0.269       99.998       32.749        0.107      343.435       19.546      863.766
08/13/2013  01:06:00     -104.913      -90.708        9.269       63.108       47.308       32.410     3982.623     2238.010     1050.387        1.329        0.364      138.689       31.702        0.052      343.508       19.668      863.756
08/13/2013  01:07:00     -132.332     -109.415        5.535       57.029       51.228       29.180     3252.282     2624.324      851.489        1.812        0.336      171.708       32.295        0.035      343.521       19.690      863.753
08/13/2013  01:08:00     -114.316     -108.846        2.581       62.738       62.862       40.239     3936.038     3951.675     1619.204        1.721        0.475      157.847       43.290        0.075      343.744       20.071      863.747
08/13/2013  01:09:00     -103.830      -80.995        4.995       65.556       58.834       26.434     4297.536     3461.382      698.779        1.291        0.423      131.684       32.357        0.060      343.737       20.060      863.741
08/13/2013  01:10:00      -66.285      -46.911        7.986       57.054       39.415       27.542     3255.143     1553.523      758.570        0.611        0.278       81.205       29.687        0.134      343.520       19.690      863.756
08/13/2013  01:11:00     -117.868      -54.911       -4.599       37.268       40.302       17.659     1388.930     1624.249      311.841        1.013        0.166      130.031       11.533        0.008      343.331       19.366      863.770
08/13/2013  01:12:00      -85.346      -13.438       -8.593       29.823       27.219       15.037      889.427      740.855      226.110        0.470        0.093       86.397       13.616        0.025      343.194       19.134      863.760
08/13/2013  01:13:00      -51.540      -10.225        6.701       36.478       17.491       15.529     1330.661      305.931      241.160        0.234        0.094       52.545       15.283        0.085      343.084       18.947      863.758
08/13/2013  01:14:00      -11.822      -11.365        6.074       14.581       12.928        8.489      212.613      167.141       72.057        0.038        0.023       16.398        7.303        0.198      343.084       18.947      863.756
08/13/2013  01:15:00      -66.107      -31.593       -2.590       19.583       25.076       13.690      383.507      628.784      187.419        0.329        0.060       73.268        9.490        0.017      343.411       19.505      863.746
08/13/2013  01:16:00      -68.152      -51.425        2.328       28.406       28.242       14.503      806.909      797.633      210.330        0.455        0.091       85.377        6.865        0.006      343.142       19.046      863.746
08/13/2013  01:17:00      -35.323      -37.979        1.249       37.869       19.992       12.441     1434.039      399.666      154.779        0.234        0.099       51.866       13.561        0.068      343.138       19.038      863.754
08/13/2013  01:18:00      -26.309      -15.938        4.076       28.436       23.736        9.705      808.632      563.387       94.183        0.121        0.073       30.761       10.534        0.117      343.211       19.162      863.747
08/13/2013  01:19:00      -77.303      -20.577       -4.399       45.725       21.128       15.018     2090.766      446.396      225.534        0.459        0.138       79.995       10.863        0.018      343.297       19.309      863.746
08/13/2013  01:20:00      -66.345      -18.444        3.327       35.381       29.948       16.679     1251.841      896.867      278.192        0.359        0.121       68.861       15.957        0.054      343.309       19.328      863.743
08/13/2013  01:21:00      -79.495      -11.376        1.763       30.169       26.653       16.540      910.193      710.369      273.584        0.417        0.095       80.305       15.721        0.038      343.161       19.078      863.760
08/13/2013  01:22:00      -78.703      -29.489        0.263       48.125       35.245       16.368     2315.979     1242.230      267.897        0.544        0.191       84.046       23.180        0.076      343.025       18.846      863.768
08/13/2013  01:23:00      -62.726      -36.946        1.046       44.363       35.173       19.757     1968.041     1237.155      390.322        0.445        0.180       72.799       19.170        0.069      343.187       19.120      863.758
08/13/2013  01:24:00      -80.507      -61.930       -7.428       36.384       33.772       19.803     1323.819     1140.517      392.157        0.661        0.143      101.571       21.821        0.046      343.325       19.358      863.748
08/13/2013  01:25:00      -92.257      -36.690        6.626       33.797       18.913       19.087     1142.265      357.711      364.326        0.588        0.093       99.285       12.884        0.017      343.306       19.326      863.751
08/13/2013  01:26:00      -81.243      -48.781        1.991       42.415       20.598       16.404     1798.995      424.295      269.090        0.574        0.125       94.763        7.578        0.006      343.335       19.375      863.756
08/13/2013  01:27:00     -100.638      -48.696       -3.958       20.456       14.982       12.160      418.437      224.452      147.872        0.665        0.040      111.800        7.367        0.004      343.277       19.275      863.763
08/13/2013  01:28:00      -44.524      -26.018        8.024       34.578       22.845       21.882     1195.610      521.908      478.802        0.246        0.110       51.569       20.612        0.160      343.103       18.979      863.761
08/13/2013  01:29:00      -80.742      -17.508        3.338       36.297       26.597       17.628     1317.443      707.416      310.730        0.459        0.117       82.619       18.812        0.052      343.055       18.899      863.769
08/13/2013  01:30:00     -110.651       -3.610       -7.480       30.072       21.244       13.602      904.316      451.303      185.002        0.693        0.077      110.709       12.304        0.012      342.993       18.791      863.758
08/13/2013  01:31:00     -105.273      -25.918       -5.298       45.314       32.030       21.960     2053.316     1025.921      482.251        0.767        0.178      108.417       21.853        0.041      343.161       19.078      863.746
08/13/2013  01:32:00     -114.737      -14.240       -2.939       54.997       31.325       24.169     3024.631      981.230      584.138        0.898        0.229      115.618       23.778        0.042      342.982       18.774      863.750
08/13/2013  01:33:00     -113.170      -16.478       -2.841       39.736       37.087       22.146     1578.962     1375.480      490.429        0.827        0.172      114.364       17.826        0.024      342.838       18.527      863.758
08/13/2013  01:34:00     -103.490        1.854        0.311       37.001       42.501       25.251     1369.106     1806.350      637.638        0.726        0.191      103.506       13.551        0.017      342.414       17.807      863.760
08/13/2013  01:35:00      -83.982       -6.943       -5.554       29.894       36.961       18.086      893.677     1366.144      327.088        0.486        0.129       84.269       16.873        0.040      342.314       17.636      863.749
08/13/2013  01:36:00      -65.246      -47.757        4.481       40.789       27.017       20.089     1663.725      729.928      403.553        0.468        0.140       80.857       23.700        0.086      342.284       17.586      863.736
08/13/2013  01:37:00      -97.087      -33.181       -0.121       61.762       26.161       22.584     3814.546      684.382      510.043        0.777        0.250      102.600       30.971        0.091      342.529       18.003      863.720
08/13/2013  01:38:00     -152.850      -36.916       -1.125       78.015       41.980       27.457     6086.298     1762.319      753.885        1.666        0.430      157.245       34.695        0.049      342.803       18.467      863.701
08/13/2013  01:39:00     -153.947      -30.627        1.764       67.813       52.802       37.317     4598.606     2788.026     1392.569        1.671        0.439      156.964       37.555        0.057      342.902       18.635      863.688
08/13/2013  01:40:00     -152.191      -77.697        1.715       60.747       44.991       33.973     3690.197     2024.228     1154.138        1.803        0.343      170.877       33.069        0.037      343.053       18.891      863.684
08/13/2013  01:41:00     -143.930      -45.978        2.305       42.698       32.366       21.012     1823.105     1047.545      441.510        1.307        0.166      151.095       16.580        0.012      343.223       19.185      863.689
08/13/2013  01:42:00     -169.922      -57.310       -6.679       29.825       24.496       21.748      889.550      600.058      472.962        1.708        0.098      179.326       16.264        0.008      343.044       18.879      863.688
08/13/2013  01:43:00     -140.069      -13.591       -0.609       58.352       37.531       25.080     3405.004     1408.547      629.006        1.262        0.272      140.727       28.193        0.040      342.719       18.324      863.686
08/13/2013  01:44:00     -176.621      -11.565       -9.018       68.674       39.513       31.946     4716.164     1561.255     1020.549        1.935        0.365      177.000       29.365        0.028      342.806       18.473      863.688
08/13/2013  01:45:00     -154.458      -17.028       -3.639       61.198       51.772       29.816     3745.190     2680.356      888.966        1.574        0.366      155.393       29.647        0.036      342.831       18.515      863.699
08/13/2013  01:46:00     -148.614      -18.174      -11.541       72.882       42.237       31.264     5311.832     1783.974      977.430        1.531        0.404      149.721       35.198        0.055      342.736       18.353      863.690
08/13/2013  01:47:00     -233.346      -19.915      -20.632       50.243       45.897       28.579     2524.380     2106.571      816.783        3.036        0.272      234.194       25.108        0.011      342.788       18.437      863.681
08/13/2013  01:48:00     -136.442      -45.553        9.684       87.799       62.759       32.890     7708.675     3938.707     1081.723        1.675        0.636      143.845       42.519        0.087      342.788       18.442      863.685
08/13/2013  01:49:00     -143.282      -40.808       -4.769       42.189       28.065       23.015     1779.938      787.649      529.675        1.266        0.155      148.980       24.245        0.026      342.770       18.412      863.665
08/13/2013  01:50:00     -101.291      -25.810        1.661       47.084       37.192       24.373     2216.866     1383.258      594.064        0.756        0.210      104.528       24.214        0.054      342.645       18.199      863.651
08/13/2013  01:51:00     -112.085      -48.928        1.733       42.757       32.214       22.291     1828.197     1037.745      496.879        0.916        0.168      122.299       23.206        0.036      342.705       18.301      863.653
08/13/2013  01:52:00     -139.753      -33.311       -2.310       47.598       39.653       20.923     2265.527     1572.322      437.776        1.246        0.214      143.668       21.016        0.021      342.739       18.359      863.640
08/13/2013  01:53:00     -168.208      -47.920        2.406       46.490       38.769       25.297     2161.285     1503.057      639.952        1.745        0.215      174.901       24.795        0.020      342.820       18.497      863.646
08/13/2013  01:54:00     -166.553      -60.738       -2.879       47.867       50.992       25.959     2291.238     2600.153      673.873        1.850        0.278      177.283       19.856        0.013      342.758       18.392      863.657
08/13/2013  01:55:00     -173.260      -59.749        3.852       42.171       34.547       22.575     1778.427     1193.510      509.636        1.854        0.174      183.273       22.945        0.016      342.687       18.269      863.667
08/13/2013  01:56:00     -139.372      -37.189       -1.112       54.033       40.989       29.122     2919.588     1680.089      848.114        1.313        0.272      144.248       30.366        0.044      342.640       18.191      863.672
08/13/2013  01:57:00     -167.701      -13.426       -8.692       53.364       42.176       26.127     2847.740     1778.817      682.609        1.684        0.265      168.238       28.099        0.028      342.564       18.062      863.691
08/13/2013  01:58:00     -186.902      -15.964      -19.832       57.988       48.384       23.637     3362.595     2340.981      558.728        2.092        0.313      187.583       26.108        0.019      342.445       17.858      863.683
08/13/2013  01:59:00     -163.845      -38.666      -11.971       43.880       34.116       24.483     1925.414     1163.878      599.401        1.609        0.184      168.346       21.868        0.017      342.328       17.660      863.687
08/13/2013  02:00:00     -110.956      -53.942       -4.204       60.262       50.398       29.450     3631.457     2539.958      867.304        1.114        0.352      123.373       34.391        0.078      342.341       17.682      863.699
08/13/2013  02:01:00     -131.778      -48.254      -10.872       54.156       53.682       36.577     2932.857     2881.747     1337.854        1.348        0.358      140.335       34.150        0.059      342.223       17.482      863.689
08/13/2013  02:02:00     -123.935      -46.796       -5.525       58.250       48.442       26.231     3393.059     2346.585      688.086        1.200        0.321      132.475       25.876        0.038      342.232       17.498      863.691
08/13/2013  02:03:00      -69.167      -52.796       10.291       43.061       33.685       22.585     1854.238     1134.695      510.082        0.559        0.175       87.014       22.755        0.068      342.280       17.580      863.703
08/13/2013  02:04:00      -72.957      -43.958        6.893       39.499       37.915       18.688     1560.205     1437.579      349.224        0.532        0.167       85.177       22.028        0.067      342.380       17.748      863.704
08/13/2013  02:05:00     -110.088      -40.985       -2.097       34.195       29.303       20.434     1169.322      858.693      417.559        0.812        0.122      117.470       18.536        0.025      342.504       17.959      863.699
08/13/2013  02:06:00      -99.045      -39.192        1.396       48.869       25.932       22.396     2388.180      672.488      501.595        0.745        0.178      106.517       21.957        0.042      342.444       17.857      863.717
08/13/2013  02:07:00     -113.507      -54.596       -1.576       47.756       27.333       20.730     2280.640      747.079      429.749        0.966        0.173      125.955       13.245        0.011      342.488       17.933      863.716
08/13/2013  02:08:00      -22.298      -18.585       13.053       29.864       35.645       19.678      891.864     1270.568      387.218        0.178        0.127       29.028       19.154        0.435      342.381       17.752      863.722
08/13/2013  02:09:00      -51.607      -23.327        7.044       30.168       30.427       18.555      910.084      925.815      344.277        0.272        0.109       56.634       22.768        0.162      342.361       17.718      863.720
08/13/2013  02:10:00      -83.003      -41.854       -1.254       19.023       20.648       14.763      361.892      426.326      217.946        0.482        0.050       92.959       11.035        0.014      342.425       17.829      863.710
08/13/2013  02:11:00      -77.160      -36.172        0.037       34.054       17.493       14.439     1159.663      306.002      208.497        0.447        0.084       85.218       17.329        0.041      342.462       17.888      863.714
08/13/2013  02:12:00      -90.620      -39.515       -2.830       17.813       18.580       11.822      317.308      345.228      139.758        0.529        0.040       98.860        6.564        0.004      342.442       17.853      863.711
08/13/2013  02:13:00      -84.572      -27.341       -4.934       21.604       19.105       12.485      466.749      365.013      155.887        0.446        0.049       88.882       10.109        0.013      342.281       17.581      863.700
08/13/2013  02:14:00      -60.864      -21.942        2.654       35.471       23.551       17.865     1258.216      554.640      319.166        0.316        0.107       64.698       16.382        0.064      342.158       17.372      863.703
08/13/2013  02:15:00      -88.122      -20.161       -0.168       30.155       25.047       18.502      909.301      627.357      342.324        0.503        0.094       90.399       14.384        0.025      342.174       17.400      863.700
08/13/2013  02:16:00      -61.512      -29.908       -2.159       32.059       20.089       14.715     1027.788      403.581      216.518        0.317        0.082       68.398       13.731        0.040      342.176       17.403      863.697
08/13/2013  02:17:00      -39.911      -36.778       -6.935       28.011       22.408       13.036      784.611      502.111      169.931        0.222        0.073       54.273       14.863        0.075      342.341       17.683      863.710
08/13/2013  02:18:00        0.058      -12.322        7.314       13.229       18.189        7.920      175.015      330.836       62.721        0.039        0.028       12.322        6.156        0.250      342.355       17.707      863.701
08/13/2013  02:19:00       -0.150        3.486       10.314        5.598        7.055        4.996       31.340       49.767       24.962        0.011        0.005        3.489        3.947        1.280      342.184       17.416      863.709
08/13/2013  02:20:00       14.776       15.708        6.033        8.166        5.752        5.252       66.688       33.082       27.585        0.031        0.006       21.566        1.469        0.005      342.231       17.496      863.728
08/13/2013  02:21:00       48.538       21.762        3.154       17.619       10.179        9.165      310.423      103.603       84.005        0.167        0.025       53.193        5.734        0.012      342.224       17.481      863.732
08/13/2013  02:22:00       67.865       33.155        9.148       31.872       15.728       16.107     1015.815      247.364      259.426        0.366        0.076       75.531       14.164        0.035      342.019       17.136      863.730
08/13/2013  02:23:00       63.348       35.073       11.413       12.992        9.929       18.854      168.790       98.592      355.480        0.300        0.031       72.410       11.320        0.024      341.963       17.040      863.745
08/13/2013  02:24:00       33.372       14.274       -7.056       19.299       17.358       13.378      372.460      301.302      178.960        0.111        0.043       36.296        9.525        0.069      341.930       16.984      863.770
08/13/2013  02:25:00       91.316       50.102       13.964       28.621       21.745       24.763      819.179      472.856      613.221        0.647        0.095      104.158       16.148        0.024      341.961       17.038      863.758
08/13/2013  02:26:00       13.796       16.668       38.390       24.271       47.229       25.889      589.086     2230.574      670.256        0.272        0.174       21.637       28.942        1.789      342.073       17.228      863.760
08/13/2013  02:27:00       15.956      -13.032        3.859       15.435       28.832       26.270      238.252      831.295      690.128        0.110        0.088       20.602       16.619        0.651      342.126       17.318      863.788
08/13/2013  02:28:00       17.787      -15.793       23.403       21.334       30.650       18.579      455.126      939.409      345.188        0.143        0.087       23.787       17.962        0.570      342.184       17.416      863.792
08/13/2013  02:29:00      -10.368      -37.235       -5.506       25.078       22.743       18.748      628.882      517.262      351.482        0.151        0.075       38.651        7.137        0.034      342.367       17.728      863.799
08/13/2013  02:30:00      -11.182      -24.613        2.409       19.645        9.049       11.058      385.931       81.877      122.274        0.066        0.030       27.034        8.318        0.095      342.206       17.453      863.808
08/13/2013  02:31:00       -7.539      -32.134        3.760       24.272       22.327       13.345      589.109      498.484      178.079        0.118        0.063       33.006       10.004        0.092      342.271       17.565      863.824
08/13/2013  02:32:00      -59.691      -12.209        1.691       48.657       35.005       13.726     2367.528     1225.331      188.403        0.375        0.189       60.927       18.484        0.092      342.171       17.394      863.836
08/13/2013  02:33:00      -83.508      -12.566       -3.161       39.970       23.298       15.092     1597.598      542.776      227.771        0.475        0.118       84.448       16.866        0.040      341.820       16.798      863.847
08/13/2013  02:34:00      -21.410       22.339        0.809       18.143       29.562       13.985      329.163      873.890      195.575        0.118        0.070       30.943       14.713        0.226      341.867       16.876      863.846
08/13/2013  02:35:00        6.526        0.890       -8.955       16.646       21.757        9.855      277.095      473.383       97.130        0.049        0.042        6.586        5.932        0.811      342.258       17.541      863.857
08/13/2013  02:36:00      -24.989      -27.425       -5.605       30.696       18.528        9.557      942.257      343.277       91.344        0.139        0.069       37.103        9.196        0.061      342.263       17.550      863.857
08/13/2013  02:37:00      -47.204      -87.857       -5.743       22.561       35.262       12.860      508.991     1243.426      165.388        0.595        0.096       99.735       12.012        0.015      342.335       17.672      863.864
08/13/2013  02:38:00      -53.298      -44.373        5.194       48.305       27.577       22.808     2333.338      760.505      520.224        0.422        0.181       69.351       27.748        0.160      342.295       17.604      863.865
08/13/2013  02:39:00      -54.823      -58.522        0.337       45.812       32.890       22.627     2098.782     1081.777      511.973        0.506        0.185       80.190       24.852        0.096      342.204       17.451      863.872
08/13/2013  02:40:00      -61.890      -49.888        5.093       40.517       21.109       22.005     1641.633      445.569      484.207        0.446        0.129       79.493       23.478        0.087      342.316       17.639      863.865
08/13/2013  02:41:00      -30.635      -58.812        5.792       29.859       27.569       22.724      891.555      760.064      516.381        0.330        0.108       66.312       20.001        0.091      342.253       17.533      863.864
08/13/2013  02:42:00      -53.127      -84.816       -7.201       29.101       29.843       16.970      846.840      890.624      287.986        0.605        0.101      100.081       13.197        0.017      342.301       17.615      863.862
08/13/2013  02:43:00      -26.557      -98.915       -0.598       16.087       19.738       12.446      258.799      389.603      154.909        0.565        0.040      102.418        7.234        0.005      342.357       17.710      863.872
08/13/2013  02:44:00        2.089      -65.215        5.546       17.186       26.213       12.267      295.345      687.096      150.475        0.271        0.057       65.249       12.855        0.039      342.397       17.779      863.878
08/13/2013  02:45:00      -12.548      -36.556        0.240       16.783       16.023       20.309      281.668      256.746      412.448        0.122        0.048       38.649       12.245        0.100      342.283       17.584      863.876
08/13/2013  02:46:00      -30.544      -39.830       -5.657       30.446       16.522       12.294      926.939      272.987      151.150        0.195        0.068       50.194        8.706        0.030      342.292       17.598      863.877
08/13/2013  02:47:00      -51.718      -71.507       -2.253       23.347       22.215       15.601      545.083      493.485      243.378        0.454        0.064       88.250       11.779        0.018      342.265       17.553      863.883
08/13/2013  02:48:00      -64.117      -59.591       -2.834       25.593       22.305       12.852      654.990      497.524      165.177        0.449        0.066       87.533        9.657        0.012      342.195       17.435      863.887
08/13/2013  02:49:00      -54.989      -62.645        1.297       35.344       36.773       19.321     1249.164     1352.288      373.316        0.496        0.149       83.356       18.253        0.048      342.117       17.302      863.891
08/13/2013  02:50:00      -75.912      -86.141       -0.041       39.486       39.295       17.064     1559.144     1544.069      291.171        0.829        0.170      114.817       21.785        0.036      342.073       17.227      863.892
08/13/2013  02:51:00     -122.204      -86.142       -2.284       46.568       33.158       25.910     2168.563     1099.447      671.354        1.315        0.197      149.514       26.671        0.032      342.106       17.284      863.886
08/13/2013  02:52:00      -76.272      -57.450        8.877       64.084       39.005       29.204     4106.811     1521.401      852.863        0.784        0.324       95.488       36.715        0.148      342.061       17.206      863.888
08/13/2013  02:53:00      -73.567      -51.673        2.967       43.956       28.489       18.630     1932.157      811.612      347.061        0.559        0.155       89.901       20.747        0.053      342.089       17.255      863.889
08/13/2013  02:54:00      -56.789      -40.966        6.094       41.568       33.662       21.376     1727.925     1133.136      456.944        0.413        0.166       70.023       17.842        0.065      342.013       17.126      863.907
08/13/2013  02:55:00      -81.235      -38.223        3.055       24.824       21.695       15.967      616.219      470.680      254.937        0.471        0.067       89.778        8.771        0.010      341.891       16.920      863.922
08/13/2013  02:56:00      -53.125      -19.030        1.811       27.256       23.015       17.428      742.884      529.688      303.730        0.238        0.079       56.431       18.111        0.103      341.759       16.697      863.926
08/13/2013  02:57:00      -54.432       -2.842       -2.273       29.561       17.884       14.068      873.857      319.833      197.903        0.218        0.070       54.506       15.000        0.076      341.694       16.584      863.925
08/13/2013  02:58:00      -95.892       19.457       -4.577       17.180       17.480       12.257      295.148      305.554      150.227        0.517        0.038       97.847        8.216        0.007      341.695       16.588      863.926
08/13/2013  02:59:00      -81.179       11.206       -5.222       18.418       17.077       12.521      339.206      291.640      156.780        0.377        0.039       81.949       10.859        0.018      341.692       16.582      863.918
08/13/2013  03:00:00      -82.621        3.859       -7.422       20.406       20.824       11.753      416.391      433.649      138.135        0.394        0.049       82.711        9.841        0.014      341.759       16.695      863.918
08/13/2013  03:01:00      -68.868       -4.892       -3.990       15.290       17.341       10.984      233.777      300.714      120.658        0.272        0.033       69.042        9.504        0.019      341.740       16.663      863.923
08/13/2013  03:02:00      -61.851      -10.579       -2.978       16.677       18.852       11.692      278.114      355.409      136.712        0.236        0.039       62.749       11.304        0.032      341.742       16.665      863.936
08/13/2013  03:03:00      -52.412      -25.086       -8.009       19.151       13.075       10.650      366.770      170.956      113.433        0.205        0.033       58.106        5.977        0.011      341.825       16.807      863.949
08/13/2013  03:04:00      -31.759      -30.733       -2.476       26.494       16.593       10.905      701.925      275.331      118.914        0.153        0.055       44.195        4.357        0.010      341.864       16.870      863.942
08/13/2013  03:05:00      -21.697      -28.142        5.010       23.592       16.204       15.423      556.587      262.559      237.865        0.117        0.053       35.534       13.441        0.143      341.819       16.798      863.944
08/13/2013  03:06:00       -8.480      -57.259       -1.268       16.618       25.938       11.752      276.153      672.755      138.114        0.222        0.054       57.884        8.840        0.023      341.944       17.008      863.944
08/13/2013  03:07:00      -24.654      -52.819       -0.393       18.721       18.225       10.499      350.459      332.156      110.234        0.210        0.040       58.290        9.037        0.024      342.102       17.274      863.937
08/13/2013  03:08:00      -36.338      -35.443       -0.547       23.489       15.239        9.629      551.735      232.221       92.724        0.173        0.044       50.760        9.571        0.036      341.968       17.048      863.933
08/13/2013  03:09:00      -63.616      -31.772       -5.868       10.975        9.686        8.761      120.452       93.812       76.760        0.269        0.015       71.109        7.185        0.010      342.046       17.183      863.924
08/13/2013  03:10:00      -60.630      -24.126       -5.877       11.497       14.282        8.944      132.189      203.974       79.993        0.235        0.021       65.253        5.984        0.008      341.963       17.041      863.922
08/13/2013  03:11:00      -70.967      -25.739       -5.173       11.723        7.540        6.976      137.435       56.855       48.671        0.298        0.012       75.490        2.071        0.001      341.864       16.874      863.934
08/13/2013  03:12:00      -33.076      -26.265       -1.198       22.702       15.691       11.612      515.362      246.222      134.830        0.134        0.045       42.236        7.316        0.030      341.757       16.692      863.953
08/13/2013  03:13:00      -33.655      -33.542        5.116       27.389       19.982       19.750      750.184      399.262      390.079        0.191        0.077       47.515       17.188        0.131      341.616       16.452      863.962
08/13/2013  03:14:00      -33.952      -42.150        2.927       29.513       22.876       18.584      871.018      523.307      345.357        0.234        0.087       54.124       14.385        0.071      341.675       16.554      863.968
08/13/2013  03:15:00      -37.342      -53.730        5.028       33.202       25.928       13.017     1102.355      672.244      169.446        0.313        0.097       65.432       15.718        0.058      341.739       16.659      863.980
08/13/2013  03:16:00      -50.275      -69.447       -0.869       30.539       28.125       15.404      932.645      791.013      237.287        0.466        0.098       85.735       10.126        0.014      341.768       16.711      863.981
08/13/2013  03:17:00      -45.844      -28.683        1.384       24.502       17.925       13.773      600.338      321.302      189.708        0.202        0.056       54.078        7.771        0.021      341.693       16.583      863.974
08/13/2013  03:18:00      -22.076      -26.254       -0.609       18.268       13.388       11.906      333.736      179.240      141.742        0.092        0.033       34.302        5.060        0.022      341.637       16.490      863.968
08/13/2013  03:19:00      -48.488      -19.847       -6.232       20.698       17.465       10.651      428.405      305.028      113.434        0.182        0.042       52.393        7.307        0.019      341.665       16.535      863.962
08/13/2013  03:20:00      -35.456      -30.428        3.201       31.289       20.560       16.229      978.981      422.696      263.390        0.193        0.083       46.722       11.873        0.065      341.659       16.527      863.972
08/13/2013  03:21:00      -21.641      -28.384        4.265       28.761       16.139       17.497      827.188      260.463      306.153        0.134        0.070       35.693       15.302        0.184      341.580       16.392      863.979
08/13/2013  03:22:00      -54.033      -48.244       10.033       37.812       32.923       20.033     1429.722     1083.936      401.338        0.413        0.146       72.437       18.519        0.065      341.578       16.386      863.993
08/13/2013  03:23:00     -114.306      -49.850      -10.538       27.078       32.163       18.719      733.207     1034.477      350.391        0.889        0.106      124.703       10.767        0.007      341.585       16.400      864.001
08/13/2013  03:24:00      -31.907      -28.524       -2.228       36.957       24.936       16.789     1365.811      621.826      281.875        0.205        0.113       42.798        8.248        0.037      341.510       16.272      864.019
08/13/2013  03:25:00      -16.374      -16.198       13.671       38.673       24.616       18.508     1495.598      605.942      342.550        0.158        0.122       23.032       17.674        0.589      341.443       16.159      864.027
08/13/2013  03:26:00      -72.437      -34.092       -2.144       39.450       25.646       16.840     1556.322      657.700      283.586        0.446        0.125       80.058       15.849        0.039      341.375       16.044      864.031
08/13/2013  03:27:00      -80.690      -35.159       -0.437       30.123       20.692       17.666      907.409      428.172      312.071        0.470        0.082       88.017       16.894        0.037      341.380       16.051      864.028
08/13/2013  03:28:00      -60.368      -31.696       -5.740       16.537       15.898       10.147      273.462      252.758      102.962        0.266        0.031       68.183        7.884        0.013      341.396       16.082      864.027
08/13/2013  03:29:00      -56.228       22.314       -7.242       27.856       20.137       10.267      775.976      405.500      105.405        0.250        0.064       60.494        9.728        0.026      341.260       15.851      864.019
08/13/2013  03:30:00      -59.220      -31.105       -2.682       25.941       18.010       13.130      672.951      324.370      172.390        0.283        0.058       66.892       15.609        0.054      341.319       15.949      864.012
08/13/2013  03:31:00      -50.551      -34.093        4.302       31.698       16.671       19.038     1004.733      277.928      362.446        0.269        0.082       60.973       20.160        0.109      341.258       15.846      863.999
08/13/2013  03:32:00      -66.789      -44.570        0.402       24.016       16.337       14.729      576.758      266.902      216.931        0.375        0.053       80.294       11.938        0.022      341.303       15.923      863.994
08/13/2013  03:33:00     -100.413      -43.201       -6.836       24.822       16.269       12.495      616.123      264.666      156.121        0.652        0.052      109.312        8.314        0.006      341.253       15.837      863.981
08/13/2013  03:34:00      -93.985      -25.010       -5.304       28.085       25.966       14.950      788.769      674.216      223.504        0.559        0.084       97.256       13.515        0.019      341.162       15.682      863.966
08/13/2013  03:35:00     -101.512      -15.132       -3.765       34.999       27.741       18.278     1224.898      769.571      334.077        0.644        0.116      102.634       19.128        0.035      341.026       15.454      863.956
08/13/2013  03:36:00     -114.301      -45.598       -5.444       23.781       30.024       16.024      565.527      901.432      256.753        0.845        0.086      123.060       15.178        0.015      341.145       15.655      863.954
08/13/2013  03:37:00     -110.953      -54.822       -3.190       18.115       20.809       11.370      328.148      433.017      129.286        0.811        0.045      123.757        8.043        0.004      341.170       15.696      863.945
08/13/2013  03:38:00     -114.689      -55.717       -1.149       26.810       19.452       19.907      718.754      378.372      396.291        0.888        0.075      127.507       15.129        0.014      341.152       15.666      863.927
08/13/2013  03:39:00      -77.296      -49.836        4.127       43.518       30.349       17.775     1893.859      921.068      315.956        0.580        0.157       91.970       14.519        0.025      341.172       15.700      863.917
08/13/2013  03:40:00      -79.696      -55.767        3.835       39.308       38.898       20.968     1545.082     1513.084      439.644        0.649        0.175       97.269       19.980        0.042      341.148       15.662      863.916
08/13/2013  03:41:00      -81.366      -73.844        3.746       56.421       34.157       25.209     3183.278     1166.705      635.516        0.854        0.249      109.879       23.982        0.048      341.123       15.618      863.924
08/13/2013  03:42:00      -71.812      -48.897        6.737       47.738       31.917       22.352     2278.910     1018.717      499.613        0.569        0.190       86.879       21.300        0.060      341.120       15.612      863.920
08/13/2013  03:43:00     -112.086      -62.048        1.667       35.645       35.054       21.883     1270.542     1228.777      478.875        0.970        0.149      128.114       21.001        0.027      341.144       15.653      863.932
08/13/2013  03:44:00      -87.307      -53.821        1.345       35.861       24.720       22.493     1285.992      611.056      505.951        0.646        0.120      102.563       21.266        0.043      341.136       15.639      863.934
08/13/2013  03:45:00      -82.299      -55.054       -0.777       33.590       33.156       21.516     1128.271     1099.312      462.920        0.625        0.135       99.016       23.343        0.056      341.146       15.657      863.932
08/13/2013  03:46:00      -70.113      -29.250       -7.320       15.084       14.608       11.322      227.513      213.399      128.187        0.320        0.028       75.969        4.070        0.003      341.203       15.752      863.919
08/13/2013  03:47:00      -72.292      -27.975       -4.967       14.441       14.104       12.605      208.546      198.910      158.893        0.330        0.028       77.516       10.079        0.017      341.204       15.755      863.926
08/13/2013  03:48:00      -74.507      -12.984      -10.057       10.658       13.817        8.756      113.596      190.896       76.669        0.310        0.019       75.630        2.053        0.001      341.247       15.827      863.917
08/13/2013  03:49:00      -51.496       -4.650       -7.916       18.897       15.241       10.701      357.102      232.275      114.517        0.172        0.035       51.706        7.212        0.019      341.264       15.858      863.917
08/13/2013  03:50:00      -60.070      -20.564       -2.991       17.919       16.417       12.094      321.078      269.529      146.259        0.239        0.037       63.493       11.113        0.031      341.281       15.885      863.928
08/13/2013  03:51:00      -12.588        0.709       14.161       25.831       24.175       11.394      667.230      584.438      129.821        0.087        0.069       12.608       12.290        0.950      341.147       15.658      863.931
08/13/2013  03:52:00       54.878       36.628        8.191       27.108       15.430       12.285      734.859      238.087      150.922        0.277        0.056       65.979        5.980        0.008      341.034       15.467      863.932
08/13/2013  03:53:00       33.432       27.425        9.407       26.198       14.330       16.267      686.328      205.335      264.602        0.156        0.058       43.241       17.620        0.166      341.101       15.582      863.933
08/13/2013  03:54:00      -12.296        3.582       -2.302       11.678        6.594        9.234      136.375       43.485       85.276        0.022        0.013       12.807        6.907        0.291      341.164       15.686      863.921
08/13/2013  03:55:00      -37.488       -9.341       -7.524       14.756       10.626       10.674      217.728      112.911      113.934        0.100        0.022       38.635       10.069        0.068      341.344       15.993      863.907
08/13/2013  03:56:00      -62.415      -25.687      -11.611       13.596        8.734        8.304      184.847       76.277       68.964        0.251        0.017       67.495        5.672        0.007      341.202       15.750      863.905
08/13/2013  03:57:00      -87.276      -33.023       -7.606       12.909       14.444        7.983      166.632      208.637       63.723        0.460        0.022       93.315        6.270        0.005      341.034       15.467      863.906
08/13/2013  03:58:00      -66.990      -49.096       -3.450       33.477       24.588       18.378     1120.725      604.556      337.733        0.449        0.103       83.055       13.421        0.026      340.955       15.333      863.904
08/13/2013  03:59:00      -89.955      -76.711        7.079       46.230       36.709       28.402     2137.232     1347.562      806.696        0.916        0.215      118.222       23.692        0.040      340.921       15.274      863.918
08/13/2013  04:00:00      -89.668      -76.723       -0.014       48.808       50.226       29.555     2382.202     2522.624      873.495        0.985        0.289      118.012       27.976        0.056      341.043       15.483      863.937
08/13/2013  04:01:00      -22.872      -77.357        5.691       39.371       64.307       28.151     1550.105     4135.442      792.500        0.651        0.324       80.668       28.326        0.123      341.097       15.573      863.934
08/13/2013  04:02:00      -53.933      -99.015       14.067       50.224       37.214       29.773     2522.451     1384.862      886.445        0.885        0.240      112.751       22.048        0.038      341.167       15.693      863.925
08/13/2013  04:03:00      -37.077     -102.456        9.077       55.586       54.464       38.414     3089.831     2966.381     1475.662        0.974        0.377      108.959       31.159        0.082      341.188       15.728      863.927
08/13/2013  04:04:00      -40.541      -66.115       19.658       61.681       63.380       34.701     3804.488     4017.035     1204.175        0.771        0.451       77.555       33.513        0.187      341.102       15.582      863.933
08/13/2013  04:05:00     -102.541      -60.198        9.198       66.457       48.021       36.535     4416.468     2305.992     1334.785        1.114        0.403      118.905       29.219        0.060      340.965       15.350      863.935
08/13/2013  04:06:00     -142.214     -106.959       -5.784       66.730       61.395       45.131     4452.873     3769.331     2036.773        2.098        0.513      177.946       36.495        0.042      340.831       15.122      863.944
08/13/2013  04:07:00      -77.742      -80.411       10.425       59.107       63.136       37.073     3493.627     3986.187     1374.387        1.073        0.443      111.847       36.099        0.104      340.839       15.136      863.953
08/13/2013  04:08:00      -19.501      -70.016       16.830       52.796       41.083       28.614     2787.438     1687.803      818.743        0.543        0.265       72.681       21.413        0.087      340.884       15.212      863.949
08/13/2013  04:09:00      -25.125     -122.376        4.381       51.956       51.970       36.556     2699.449     2700.843     1336.366        1.118        0.337      124.929       31.042        0.062      340.911       15.257      863.953
08/13/2013  04:10:00      -44.622     -114.098       11.381       58.231       58.932       35.873     3390.906     3472.987     1286.846        1.164        0.408      122.513       29.494        0.058      340.948       15.322      863.958
08/13/2013  04:11:00      -66.298      -61.149       14.647       93.330       58.407       42.125     8710.408     3411.436     1774.490        1.112        0.695       90.192       48.637        0.291      340.792       15.055      863.964
08/13/2013  04:12:00      -69.114      -52.972        5.669       61.454       47.229       29.353     3776.569     2230.548      861.622        0.724        0.343       87.079       22.204        0.065      340.795       15.062      863.976
08/13/2013  04:13:00      -65.735      -54.354       -3.309       49.598       56.130       32.919     2460.004     3150.585     1083.660        0.699        0.335       85.296       28.285        0.110      340.798       15.068      863.989
08/13/2013  04:14:00      -43.077      -55.415        0.853       43.705       59.102       31.874     1910.101     3493.016     1015.945        0.567        0.321       70.189       30.427        0.188      340.791       15.054      863.995
08/13/2013  04:15:00       -0.746      -80.598        9.602       24.962       48.637       24.718      623.123     2365.587      610.959        0.509        0.180       80.602       19.894        0.061      340.863       15.178      864.001
08/13/2013  04:16:00      -35.058      -86.119      -11.606       29.549       41.104       21.895      873.121     1689.550      479.378        0.591        0.152       92.981       12.491        0.018      340.852       15.158      863.991
08/13/2013  04:17:00      -49.394      -84.896       13.661       61.995       39.312       29.389     3843.396     1545.400      863.725        0.804        0.313       98.219       29.469        0.090      340.782       15.042      863.994
08/13/2013  04:18:00     -103.098      -97.739       -9.907       51.732       46.087       25.954     2676.241     2124.056      673.608        1.288        0.274      142.064       30.191        0.045      340.774       15.026      863.998
08/13/2013  04:19:00      -29.200      -43.754       12.127       42.168       37.760       22.751     1778.102     1425.786      517.616        0.332        0.186       52.603       19.254        0.134      340.747       14.981      863.974
08/13/2013  04:20:00      -48.300      -64.943       -0.581       40.097       36.005       25.415     1607.748     1296.357      645.934        0.505        0.178       80.935       19.060        0.055      340.808       15.084      863.962
08/13/2013  04:21:00      -47.221      -57.521        3.402       29.443       36.992       18.736      866.889     1368.429      351.034        0.407        0.129       74.421       14.273        0.037      340.852       15.160      863.953
08/13/2013  04:22:00      -24.410      -86.448        0.773       38.256       39.928       24.547     1463.512     1594.245      602.576        0.586        0.183       89.828       14.680        0.027      340.925       15.283      863.949
08/13/2013  04:23:00      -43.160      -90.538       -6.611       41.088       35.238       25.259     1688.224     1241.744      637.995        0.684        0.178      100.299       21.635        0.047      340.885       15.214      863.951
08/13/2013  04:24:00      -73.877      -70.738       -9.105       41.235       30.232       22.575     1700.293      913.947      509.622        0.683        0.156      102.283       19.820        0.038      340.938       15.305      863.959
08/13/2013  04:25:00      -14.517      -63.107       -5.191       25.255       38.588       24.319      637.823     1489.037      591.435        0.347        0.136       64.755       20.139        0.097      340.922       15.278      863.961
08/13/2013  04:26:00      -24.159      -40.434       -0.524       37.020       31.406       18.553     1370.458      986.366      344.220        0.246        0.135       47.102       17.143        0.132      340.950       15.325      863.967
08/13/2013  04:27:00      -16.857      -26.812        2.744       31.556       24.675       14.176      995.811      608.848      200.953        0.141        0.090       31.671       14.686        0.215      340.915       15.265      863.985
08/13/2013  04:28:00      -21.730      -40.331        2.099       35.358       21.513       19.443     1250.178      462.797      378.024        0.210        0.105       45.813       17.512        0.146      340.897       15.236      863.998
08/13/2013  04:29:00      -88.536      -39.654       -0.222       30.427       17.406       15.945      925.808      302.984      254.239        0.545        0.074       97.011        8.583        0.008      340.715       14.927      864.005
08/13/2013  04:30:00      -90.700      -20.244       -6.083       32.848       22.872       15.421     1079.022      523.148      237.819        0.526        0.092       92.932       12.001        0.017      340.717       14.930      864.017
08/13/2013  04:31:00      -78.710      -15.442        0.600       36.261       35.552       21.502     1314.864     1263.917      462.324        0.474        0.152       80.210       18.844        0.055      340.560       14.664      864.021
08/13/2013  04:32:00      -72.758        6.503        2.685       38.239       25.558       19.544     1462.235      653.218      381.976        0.392        0.125       73.048       21.051        0.083      340.501       14.563      864.010
08/13/2013  04:33:00      -49.705      -15.755       -1.915       16.642       22.389       14.029      276.950      501.249      196.814        0.185        0.049       52.142        5.688        0.012      340.470       14.513      864.008
08/13/2013  04:34:00      -77.204      -24.612       -4.720       20.017       18.328       13.191      400.689      335.929      174.013        0.375        0.046       81.032       10.066        0.015      340.499       14.562      864.006
08/13/2013  04:35:00      -85.727      -44.423       -2.192       18.972       14.981       16.811      359.951      224.425      282.622        0.510        0.043       96.554        9.930        0.011      340.516       14.590      864.002
08/13/2013  04:36:00      -79.991      -57.490       -7.977       19.363       21.964       16.079      374.928      482.404      258.528        0.544        0.056       98.507       10.302        0.011      340.499       14.561      863.991
08/13/2013  04:37:00      -70.681      -56.203       -1.417       34.904       32.807       21.510     1218.316     1076.323      462.692        0.546        0.138       90.303       18.736        0.043      340.444       14.469      864.007
08/13/2013  04:38:00      -88.363      -40.312       -5.339       19.012       20.604       14.418      361.467      424.533      207.892        0.523        0.050       97.124        8.483        0.008      340.367       14.340      864.002
08/13/2013  04:39:00     -109.439      -47.465       -9.208       16.440       18.060       12.405      270.264      326.166      153.872        0.753        0.038      119.288        9.939        0.007      340.388       14.376      863.992
08/13/2013  04:40:00      -97.456      -46.074      -10.014       28.782       22.768       14.078      828.405      518.402      198.203        0.663        0.077      107.799       10.264        0.009      340.406       14.405      863.982
08/13/2013  04:41:00     -150.029      -51.418       -2.620       33.259       20.992       16.349     1106.152      440.645      267.279        1.349        0.091      158.596       14.641        0.009      340.444       14.467      863.986
08/13/2013  04:42:00     -131.632      -53.928       -5.642       43.089       29.228       20.782     1856.639      854.290      431.903        1.170        0.157      142.251       18.467        0.017      340.439       14.458      863.989
08/13/2013  04:43:00      -83.366      -73.297       -1.961       50.084       39.567       23.825     2508.390     1565.512      567.654        0.848        0.232      111.006       31.008        0.078      340.450       14.479      863.986
08/13/2013  04:44:00      -93.870     -105.158       -6.656       39.881       32.917       20.553     1590.520     1083.512      422.422        1.150        0.155      140.961       23.741        0.028      340.520       14.597      863.992
08/13/2013  04:45:00     -112.052      -63.779        6.015       54.800       41.625       27.205     3003.086     1732.674      740.108        1.107        0.274      128.931       30.481        0.056      340.483       14.535      863.990
08/13/2013  04:46:00     -160.015      -87.929      -11.378       46.367       34.048       22.441     2149.875     1159.277      503.618        1.864        0.191      182.583       21.679        0.014      340.493       14.551      863.980
08/13/2013  04:47:00     -116.927      -50.075      -13.760       24.906       31.030       14.948      620.293      962.836      223.452        0.909        0.090      127.198       11.037        0.008      340.465       14.504      863.975
08/13/2013  04:48:00     -109.845      -21.269       -3.500       38.464       41.046       23.722     1479.480     1684.777      562.729        0.813        0.186      111.885       17.100        0.023      340.273       14.179      863.984
08/13/2013  04:49:00     -120.745      -25.742       -6.918       42.882       34.725       19.435     1838.875     1205.856      377.702        0.936        0.171      123.458       18.224        0.022      340.130       13.937      863.988
08/13/2013  04:50:00      -59.748      -34.601        4.072       63.161       28.642       26.469     3989.370      820.360      700.585        0.515        0.276       69.044       27.835        0.163      340.169       14.004      863.990
08/13/2013  04:51:00      -64.120      -53.386        1.363       50.986       36.920       28.500     2599.586     1363.071      812.233        0.587        0.239       83.436       26.334        0.100      340.212       14.076      863.996
08/13/2013  04:52:00     -113.271      -73.735       -2.430       49.239       30.543       22.617     2424.435      932.877      511.538        1.107        0.193      135.156       15.482        0.013      340.203       14.061      864.001
08/13/2013  04:53:00     -107.802      -72.554       -2.986       40.892       39.815       22.373     1672.184     1585.224      500.564        1.033        0.188      129.943       10.936        0.007      340.234       14.114      864.000
08/13/2013  04:54:00     -111.245      -59.711        1.988       26.272       27.249       20.193      690.219      742.486      407.738        0.889        0.092      126.257       15.121        0.014      340.263       14.161      864.005
08/13/2013  04:55:00     -122.486      -43.900       -2.165       56.751       46.836       26.252     3220.698     2193.591      689.146        1.152        0.305      130.116       23.536        0.033      340.210       14.073      864.020
08/13/2013  04:56:00      -99.434      -45.211        4.263       46.130       37.172       26.380     2127.990     1381.747      695.923        0.808        0.210      109.230       26.855        0.060      340.159       13.986      864.017
08/13/2013  04:57:00      -95.714      -37.209       -3.295       59.243       34.343       26.307     3509.682     1179.422      692.082        0.797        0.269      102.692       30.741        0.090      340.181       14.023      864.026
08/13/2013  04:58:00     -116.170      -33.011       -7.243       38.035       32.555       22.147     1446.673     1059.812      490.502        0.882        0.150      120.769       24.148        0.040      340.204       14.064      864.033
08/13/2013  04:59:00      -29.300      -53.083       11.434       41.870       35.634       27.417     1753.106     1269.780      751.694        0.379        0.189       60.632       23.414        0.149      340.293       14.212      864.028
08/13/2013  05:00:00      -96.012     -104.637       -9.311       44.934       41.798       28.705     2019.042     1747.035      823.988        1.242        0.230      142.011       28.156        0.039      340.283       14.196      864.046
08/13/2013  05:01:00     -152.932      -80.971       -4.410       62.070       49.491       34.617     3852.629     2449.392     1198.352        1.873        0.375      173.045       33.209        0.037      340.362       14.329      864.043
08/13/2013  05:02:00     -143.265     -101.547       -2.589       63.708       40.948       25.176     4058.676     1676.768      633.842        1.861        0.318      175.603       32.167        0.034      340.328       14.272      864.045
08/13/2013  05:03:00     -148.257     -103.078       -2.810       44.549       37.814       25.978     1984.608     1429.890      674.868        1.835        0.204      180.569       22.769        0.016      340.298       14.221      864.046
08/13/2013  05:04:00     -102.417      -64.346        4.038       52.783       45.295       30.329     2786.025     2051.616      919.857        1.020        0.288      120.953       28.442        0.055      340.256       14.150      864.042
08/13/2013  05:05:00     -119.534      -82.201       -5.664       32.048       33.369       21.003     1027.084     1113.497      441.119        1.183        0.129      145.071       14.205        0.010      340.294       14.213      864.046
08/13/2013  05:06:00     -138.270      -60.373       -7.788       35.664       30.044       23.976     1271.891      902.653      574.833        1.279        0.137      150.875       19.838        0.017      340.316       14.252      864.056
08/13/2013  05:07:00     -119.039      -63.062       -5.721       53.297       40.607       24.647     2840.547     1648.965      607.462        1.164        0.255      134.711       22.517        0.028      340.334       14.284      864.050
08/13/2013  05:08:00     -115.706      -78.165        4.790       67.211       34.349       30.182     4517.254     1179.829      910.969        1.306        0.330      139.634       32.669        0.055      340.317       14.254      864.055
08/13/2013  05:09:00     -122.412     -109.257        1.014       70.161       51.144       32.926     4922.557     2615.681     1084.145        1.777        0.431      164.079       33.826        0.043      340.328       14.271      864.043
08/13/2013  05:10:00     -176.855     -129.966       -0.160       71.741       47.608       40.440     5146.745     2266.521     1635.389        2.861        0.452      219.474       41.980        0.037      340.293       14.209      864.044
08/13/2013  05:11:00     -179.632     -119.695       -8.124       41.986       49.111       29.992     1762.851     2411.896      899.531        2.587        0.254      215.858       23.324        0.012      340.261       14.157      864.034
08/13/2013  05:12:00      -98.583      -81.989        5.009       39.781       44.916       29.732     1582.489     2017.470      884.007        1.047        0.224      128.221       22.297        0.030      340.256       14.151      864.032
08/13/2013  05:13:00      -96.737      -28.870       -0.012       39.387       29.411       19.808     1551.338      864.992      392.344        0.650        0.140      100.953       23.536        0.054      340.232       14.110      864.036
08/13/2013  05:14:00     -112.386      -50.208        0.902       67.800       39.040       25.581     4596.882     1524.138      654.406        1.096        0.339      123.091       32.540        0.070      340.259       14.156      864.033
08/13/2013  05:15:00      -78.627      -35.984        5.749       37.802       39.620       21.553     1428.977     1569.779      464.527        0.549        0.173       86.470       17.307        0.040      340.221       14.093      864.035
08/13/2013  05:16:00      -75.838      -37.971      -10.043       39.416       29.065       19.102     1553.582      844.779      364.892        0.503        0.138       84.812       14.682        0.030      340.245       14.132      864.052
08/13/2013  05:17:00      -54.004      -49.111        1.560       43.675       26.264       19.184     1907.515      689.784      368.021        0.415        0.148       72.995        7.673        0.011      340.196       14.049      864.054
08/13/2013  05:18:00      -29.522      -62.430        3.366       51.600       33.900       26.800     2662.512     1149.219      718.229        0.465        0.226       69.058       17.599        0.065      340.210       14.074      864.067
08/13/2013  05:19:00      -92.923      -52.642        7.243       47.905       44.806       34.435     2294.881     2007.547     1185.747        0.847        0.274      106.798       26.227        0.060      340.129       13.935      864.080
08/13/2013  05:20:00     -108.125      -93.254       -3.708       78.507       55.477       40.981     6163.370     3077.692     1679.413        1.566        0.546      142.784       32.659        0.052      340.001       13.719      864.085
08/13/2013  05:21:00     -177.016     -146.480      -15.984       66.998       74.127       35.881     4488.717     5494.839     1287.417        3.216        0.564      229.763       39.601        0.030      339.930       13.596      864.082
08/13/2013  05:22:00     -167.491     -143.876       -9.647       53.185       63.419       38.087     2828.657     4022.000     1450.614        2.857        0.415      220.802       35.662        0.026      339.866       13.487      864.090
08/13/2013  05:23:00     -145.987     -130.016       -5.438       74.530       67.875       37.594     5554.655     4607.065     1413.297        2.491        0.579      195.490       31.710        0.026      339.897       13.541      864.081
08/13/2013  05:24:00     -178.472     -160.042       -1.314       68.459       69.978       46.826     4686.611     4896.970     2192.634        3.462        0.589      239.720       45.810        0.037      339.907       13.561      864.078
08/13/2013  05:25:00     -176.972     -141.156      -10.216       69.282       60.611       42.530     4799.934     3673.635     1808.819        3.081        0.514      226.372       38.056        0.028      339.836       13.438      864.075
08/13/2013  05:26:00     -166.514     -149.740      -15.464       67.358       58.055       42.617     4537.048     3370.351     1816.207        3.005        0.486      223.940       38.790        0.030      339.906       13.557      864.073
08/13/2013  05:27:00     -183.409     -136.815        1.743       68.371       60.164       42.119     4674.646     3619.725     1773.974        3.121        0.503      228.817       38.632        0.029      339.895       13.539      864.075
08/13/2013  05:28:00     -165.162     -139.001       -3.863       90.348       52.629       46.469     8162.837     2769.827     2159.351        2.985        0.655      215.870       52.417        0.059      339.889       13.528      864.074
08/13/2013  05:29:00     -200.772     -120.623       -1.404       80.102       69.915       41.779     6416.384     4888.139     1745.507        3.395        0.653      234.221       38.481        0.027      339.842       13.448      864.067
08/13/2013  05:30:00     -205.280     -151.918        3.284       87.014       68.533       45.438     7571.495     4696.754     2064.592        3.978        0.717      255.380       43.701        0.029      339.824       13.419      864.063
08/13/2013  05:31:00     -181.303     -164.946       -4.393      108.345       91.835       45.743    11738.626     8433.670     2092.463        4.118        1.113      245.108       53.714        0.048      339.836       13.439      864.060
08/13/2013  05:32:00     -205.325     -149.333      -21.130       70.625       57.703       46.653     4987.863     3329.661     2176.524        3.770        0.525      253.887       39.006        0.024      339.866       13.487      864.049
08/13/2013  05:33:00     -105.951     -120.775        3.902       85.900       69.598       47.087     7378.886     4843.895     2217.227        2.013        0.722      160.662       49.398        0.095      339.872       13.501      864.050
08/13/2013  05:34:00     -141.540     -143.405       -2.909       67.522       57.895       40.999     4559.275     3351.802     1680.950        2.510        0.480      201.491       42.102        0.044      339.869       13.495      864.053
08/13/2013  05:35:00     -100.663      -97.266        3.554       71.865       53.569       37.565     5164.553     2869.603     1411.154        1.452        0.472      139.978       35.549        0.064      339.886       13.527      864.049
08/13/2013  05:36:00     -115.980     -121.940       -1.275       71.525       67.839       45.548     5115.853     4602.098     2074.627        2.006        0.590      168.287       41.237        0.060      339.903       13.554      864.052
08/13/2013  05:37:00     -123.933     -117.865        4.065       64.430       56.557       37.523     4151.175     3198.734     1407.963        1.901        0.438      171.031       39.713        0.054      339.899       13.546      864.049
08/13/2013  05:38:00     -132.025     -135.786      -14.538       52.901       53.251       27.930     2798.549     2835.670      780.079        2.125        0.321      189.390       19.139        0.010      339.873       13.501      864.052
08/13/2013  05:39:00      -92.003      -90.900        3.745       65.423       49.531       36.786     4280.134     2453.363     1353.178        1.241        0.404      129.334       33.207        0.066      339.845       13.458      864.058
08/13/2013  05:40:00     -156.044     -127.037       -0.304       48.160       44.849       29.589     2319.394     2011.425      875.521        2.285        0.260      201.217       32.152        0.026      339.806       13.389      864.051
08/13/2013  05:41:00     -165.732      -91.180      -12.732       29.299       36.518       24.314      858.450     1333.599      591.172        1.936        0.139      189.159       17.561        0.009      339.871       13.500      864.053
08/13/2013  05:42:00     -104.108      -58.712       -5.751       55.329       35.106       25.224     3061.248     1232.408      636.234        0.962        0.246      119.522       26.585        0.049      339.830       13.434      864.053
08/13/2013  05:43:00     -155.915      -53.532       -4.008       53.948       43.462       27.386     2910.348     1888.975      749.972        1.637        0.277      164.849       24.080        0.021      339.832       13.435      864.048
08/13/2013  05:44:00     -163.904      -35.168       -3.851       53.089       34.154       28.115     2818.454     1166.500      790.458        1.644        0.239      167.634       27.615        0.027      339.755       13.306      864.052
08/13/2013  05:45:00     -168.441      -70.263        5.008       49.728       37.805       27.006     2472.827     1429.180      729.335        1.898        0.232      182.508       22.862        0.016      339.820       13.415      864.072
08/13/2013  05:46:00     -179.439      -73.716       -2.190       41.126       41.509       23.032     1691.316     1722.966      530.466        2.079        0.197      193.991       17.062        0.008      339.856       13.475      864.086
08/13/2013  05:47:00     -118.199      -86.536       -8.331       44.720       30.437       23.348     1999.880      926.396      545.131        1.250        0.174      146.490       14.779        0.010      339.873       13.505      864.088
08/13/2013  05:48:00     -124.827      -93.408        3.073       58.253       45.773       30.227     3393.413     2095.210      913.666        1.536        0.320      155.906       32.874        0.044      339.905       13.558      864.085
08/13/2013  05:49:00     -131.485      -85.681       -6.904       46.895       35.730       22.858     2199.183     1276.622      522.500        1.434        0.200      156.938       23.799        0.023      339.945       13.625      864.098
08/13/2013  05:50:00     -143.284     -100.133       -5.516       44.902       34.634       22.417     2016.181     1199.509      502.534        1.715        0.186      174.806       24.745        0.020      339.967       13.663      864.094
08/13/2013  05:51:00      -94.161      -92.222      -11.380       66.503       42.121       34.505     4422.617     1774.165     1190.624        1.244        0.369      131.800       20.859        0.025      339.906       13.561      864.104
08/13/2013  05:52:00     -138.385     -111.931       -4.404       63.877       51.376       32.727     4080.327     2639.460     1071.055        1.974        0.390      177.986       31.502        0.031      339.925       13.593      864.110
08/13/2013  05:53:00     -121.967      -99.417        2.288       66.794       42.985       35.129     4461.493     1847.706     1234.039        1.615        0.377      157.352       38.470        0.060      339.941       13.617      864.121
08/13/2013  05:54:00      -79.782      -92.218        3.933       73.100       56.172       44.761     5343.665     3155.325     2003.540        1.269        0.525      121.940       46.378        0.145      339.981       13.684      864.137
08/13/2013  05:55:00     -128.912     -122.952       -2.259       75.133       49.989       38.964     5644.963     2498.918     1518.220        2.070        0.483      178.144       40.547        0.052      340.020       13.751      864.150
08/13/2013  05:56:00     -141.206     -116.251        7.621       73.838       62.200       35.527     5452.086     3868.825     1262.174        2.205        0.529      182.903       45.166        0.061      340.111       13.904      864.157
08/13/2013  05:57:00     -147.760     -120.461        2.305       65.383       49.012       33.120     4274.939     2402.214     1096.918        2.206        0.389      190.640       36.838        0.037      340.131       13.937      864.162
08/13/2013  05:58:00     -110.985     -107.593        2.815       72.289       50.940       39.329     5225.759     2594.918     1546.763        1.663        0.468      154.576       44.635        0.083      340.044       13.793      864.169
08/13/2013  05:59:00     -132.248     -109.469        4.824       51.165       47.933       31.260     2617.886     2297.588      977.198        1.769        0.295      171.677       28.577        0.028      340.078       13.849      864.170
08/13/2013  06:00:00     -115.187      -96.336        3.171       68.752       43.454       30.945     4726.899     1888.242      957.585        1.506        0.379      150.162       34.812        0.054      340.092       13.873      864.177
08/13/2013  06:01:00      -68.245      -63.877       11.335       67.603       34.801       33.267     4570.226     1211.131     1106.686        0.788        0.344       93.475       36.657        0.154      340.040       13.787      864.199
08/13/2013  06:02:00      -93.549      -80.834        7.156       76.578       54.644       37.563     5864.158     2985.954     1410.981        1.280        0.513      123.634       40.675        0.108      340.062       13.823      864.213
08/13/2013  06:03:00      -93.363      -98.221        5.962       63.289       58.743       34.956     4005.485     3450.751     1221.909        1.354        0.434      135.514       29.065        0.046      340.034       13.777      864.224
08/13/2013  06:04:00     -121.220     -125.271       -0.743       68.409       44.292       31.420     4679.725     1961.770      987.243        1.901        0.381      174.319       37.051        0.045      340.052       13.806      864.242
08/13/2013  06:05:00      -91.561     -110.629       -9.478       51.727       48.551       26.382     2675.650     2357.167      696.036        1.322        0.286      143.604       29.379        0.042      340.041       13.788      864.250
08/13/2013  06:06:00     -126.435     -148.132       -7.588       39.001       44.096       26.194     1521.063     1944.462      686.149        2.107        0.208      194.754       20.168        0.011      340.066       13.827      864.268
08/13/2013  06:07:00     -162.735     -131.341      -12.482       40.495       56.139       28.965     1639.859     3151.622      838.945        2.476        0.282      209.125       20.023        0.009      340.055       13.810      864.281
08/13/2013  06:08:00     -127.556     -122.496        1.141       67.077       59.248       45.282     4499.365     3510.279     2050.425        2.067        0.503      176.850       46.019        0.068      340.030       13.768      864.290
08/13/2013  06:09:00     -125.347     -122.651        2.756       60.541       50.481       40.545     3665.153     2548.355     1643.923        1.931        0.393      175.372       39.044        0.050      340.066       13.830      864.299
08/13/2013  06:10:00     -131.209     -102.969        8.100       64.124       55.464       36.695     4111.950     3076.218     1346.514        1.821        0.427      166.789       32.620        0.038      340.072       13.839      864.310
08/13/2013  06:11:00     -105.692      -85.724        4.045       65.444       49.426       35.590     4282.864     2442.888     1266.661        1.326        0.400      136.087       36.793        0.073      340.076       13.847      864.316
08/13/2013  06:12:00     -131.739     -107.891        3.661       65.382       54.023       34.784     4274.812     2918.528     1209.950        1.870        0.420      170.281       30.034        0.031      340.102       13.889      864.329
08/13/2013  06:13:00     -149.737     -125.573        1.545       78.256       54.773       33.918     6123.983     3000.039     1150.459        2.423        0.514      195.422       34.677        0.031      340.153       13.974      864.333
08/13/2013  06:14:00     -134.200     -137.206       -9.477       41.871       40.158       32.005     1753.195     1612.679     1024.321        2.066        0.220      191.925       21.799        0.013      340.110       13.904      864.338
08/13/2013  06:15:00     -131.540     -115.237        3.832       63.707       66.477       28.824     4058.540     4419.188      830.818        1.995        0.465      174.878       34.667        0.039      340.060       13.819      864.341
08/13/2013  06:16:00     -146.600     -136.310       -7.222       45.844       46.921       25.339     2101.716     2201.536      642.041        2.253        0.247      200.180       17.108        0.007      340.057       13.811      864.360
08/13/2013  06:17:00      -83.338      -94.045       -5.223       46.945       52.496       30.416     2203.854     2755.814      925.128        1.085        0.294      125.658       25.688        0.042      340.062       13.823      864.376
08/13/2013  06:18:00      -24.931      -59.528       13.118       51.326       41.639       25.962     2634.408     1733.786      674.003        0.469        0.252       64.538       20.435        0.100      340.015       13.743      864.381
08/13/2013  06:19:00      -22.453      -47.366        0.485       44.293       31.811       23.312     1961.856     1011.951      543.463        0.313        0.176       52.419       16.494        0.099      340.070       13.837      864.384
08/13/2013  06:20:00      -82.794      -76.729      -20.827       50.407       37.889       30.459     2540.849     1435.612      927.743        0.904        0.245      112.881       17.796        0.025      340.029       13.768      864.378
08/13/2013  06:21:00     -100.768      -73.486       -6.591       48.927       34.151       29.322     2393.885     1166.282      859.773        1.001        0.221      124.717       19.089        0.023      339.981       13.685      864.369
08/13/2013  06:22:00      -84.837      -54.134        0.892       54.068       34.089       26.229     2923.344     1162.083      687.967        0.745        0.239      100.637       24.785        0.061      339.960       13.651      864.370
08/13/2013  06:23:00      -95.952      -60.244       -0.838       44.095       52.084       26.593     1944.365     2712.748      707.204        0.910        0.268      113.296       27.243        0.058      339.885       13.525      864.372
08/13/2013  06:24:00      -97.387      -76.629       -2.896       51.972       36.508       21.765     2701.080     1332.870      473.698        0.994        0.225      123.920       21.067        0.029      339.883       13.521      864.379
08/13/2013  06:25:00      -80.347      -57.751       -5.711       34.733       27.736       23.656     1206.393      769.262      559.593        0.618        0.127       98.949       15.090        0.023      339.888       13.529      864.382
08/13/2013  06:26:00      -57.694      -66.151       -0.870       37.435       27.902       22.075     1401.360      778.501      487.326        0.519        0.133       87.776       18.967        0.047      339.922       13.588      864.378
08/13/2013  06:27:00      -71.438      -66.578        0.317       57.816       36.118       26.008     3342.690     1304.482      676.412        0.743        0.266       97.652       31.422        0.104      339.928       13.598      864.382
08/13/2013  06:28:00      -57.463      -72.092        3.907       41.323       39.272       21.929     1707.609     1542.292      480.872        0.612        0.187       92.191       21.795        0.056      339.886       13.528      864.392
08/13/2013  06:29:00      -98.505      -74.797       -8.615       41.307       47.239       28.552     1706.250     2231.504      815.238        1.006        0.238      123.684       28.845        0.054      339.869       13.497      864.395
08/13/2013  06:30:00      -88.434      -61.489       -3.417       25.510       39.558       16.041      650.738     1564.827      257.300        0.704        0.124      107.711       12.562        0.014      339.893       13.539      864.395
08/13/2013  06:31:00      -54.387      -51.632       -0.201       34.830       41.858       17.908     1213.101     1752.073      320.705        0.445        0.164       74.992       19.972        0.071      339.880       13.517      864.399
08/13/2013  06:32:00      -96.505      -73.151      -10.088       26.412       23.333       13.638      697.615      544.449      186.006        0.810        0.071      121.096        8.318        0.005      339.891       13.532      864.401
08/13/2013  06:33:00      -50.368      -49.781       -1.904       43.919       33.660       23.354     1928.840     1132.985      545.409        0.431        0.180       70.817       24.359        0.118      339.924       13.590      864.400
08/13/2013  06:34:00      -92.806      -71.935       -2.463       34.928       32.226       22.039     1219.982     1038.513      485.704        0.827        0.137      117.421       19.860        0.029      339.831       13.432      864.411
08/13/2013  06:35:00      -58.982      -69.024       -7.274       45.355       31.153       17.989     2057.072      970.517      323.592        0.582        0.168       90.792       16.950        0.035      339.897       13.544      864.417
08/13/2013  06:36:00      -56.005      -57.285        0.079       42.078       30.535       24.825     1770.519      932.379      616.295        0.487        0.166       80.114       26.048        0.106      339.878       13.513      864.414
08/13/2013  06:37:00      -38.306      -30.275        4.444       37.580       31.446       21.548     1412.238      988.826      464.304        0.263        0.143       48.826       15.555        0.101      339.863       13.489      864.422
08/13/2013  06:38:00      -36.513      -51.692        9.996       32.212       30.196       20.729     1037.599      911.808      429.700        0.324        0.119       63.287       20.904        0.109      339.881       13.518      864.427
08/13/2013  06:39:00      -57.464      -45.867       -2.775       23.381       19.018       13.752      546.654      361.667      189.117        0.326        0.055       73.525       13.164        0.032      339.931       13.605      864.425
08/13/2013  06:40:00      -58.688        2.038        0.371       29.001       18.311       15.226      841.074      335.291      231.819        0.243        0.070       58.723       14.220        0.059      339.880       13.517      864.424
08/13/2013  06:41:00      -87.532       -5.316      -10.763       18.697       17.430       11.377      349.582      303.801      129.428        0.429        0.039       87.693        9.455        0.012      339.833       13.437      864.430
08/13/2013  06:42:00      -67.666      -13.642       -3.521       15.667       17.464       12.572      245.449      304.991      158.052        0.274        0.035       69.027        7.445        0.012      339.850       13.468      864.448
08/13/2013  06:43:00      -64.781      -11.582      -10.427       19.468       13.904        9.786      379.002      193.317       95.760        0.255        0.033       65.809        6.472        0.010      339.820       13.416      864.461
08/13/2013  06:44:00      -56.455      -18.158       -5.041       14.852       16.899       10.837      220.579      285.586      117.440        0.208        0.031       59.303        8.691        0.021      339.929       13.598      864.472
08/13/2013  06:45:00      -62.798      -10.252       -8.018       14.122       16.629       12.704      199.437      276.527      161.398        0.238        0.032       63.629        6.842        0.012      339.892       13.536      864.468
08/13/2013  06:46:00      -70.263      -26.734       -0.682       19.045       14.550       11.453      362.725      211.689      131.173        0.318        0.035       75.178        7.596        0.010      339.901       13.552      864.462
08/13/2013  06:47:00      -58.714      -32.062       -0.851       22.534       27.608       17.812      507.763      762.192      317.264        0.303        0.079       66.898       10.476        0.025      339.998       13.716      864.461
08/13/2013  06:48:00      -51.496      -44.975        2.164       37.969       28.773       15.875     1441.609      827.879      252.023        0.360        0.126       68.371       19.392        0.080      339.944       13.625      864.455
08/13/2013  06:49:00      -63.402      -80.908       -4.057       25.877       20.585       13.698      669.596      423.759      187.628        0.593        0.064      102.791       13.349        0.017      339.903       13.556      864.452
08/13/2013  06:50:00      -86.636      -77.895       -9.854       28.070       26.182       16.319      787.908      685.481      266.311        0.770        0.087      116.505       11.865        0.010      339.925       13.592      864.464
08/13/2013  06:51:00      -69.269      -53.593       -5.162       44.149       29.115       19.495     1949.149      847.687      380.062        0.544        0.159       87.581        6.469        0.005      339.979       13.684      864.466
08/13/2013  06:52:00      -69.820      -23.135        2.210       28.412       21.721       19.945      807.225      471.819      397.817        0.355        0.084       73.553        9.750        0.018      339.950       13.634      864.471
08/13/2013  06:53:00      -32.639       -2.122       -2.317       26.117       17.050       15.088      682.075      290.689      227.648        0.114        0.060       32.708       10.981        0.113      340.036       13.781      864.483
08/13/2013  06:54:00      -23.382      -20.566       -3.172       20.999       28.038       16.441      440.957      786.105      270.296        0.124        0.075       31.139       11.441        0.135      340.128       13.935      864.492
08/13/2013  06:55:00        2.290      -18.048        6.392       31.380       16.834       12.207      984.673      283.386      149.013        0.089        0.071       18.193        3.861        0.045      340.252       14.145      864.505
08/13/2013  06:56:00        7.233      -26.985       -0.833       22.146       22.911       17.506      490.456      524.907      306.452        0.105        0.066       27.937        9.867        0.125      340.260       14.157      864.512
08/13/2013  06:57:00      -41.619      -26.928       -0.834       28.619       15.299       16.102      819.049      234.062      259.264        0.188        0.066       49.571       16.281        0.108      340.228       14.103      864.509
08/13/2013  06:58:00       -5.135      -19.355        0.315       20.910       23.142       19.414      437.240      535.566      376.920        0.088        0.067       20.025       15.122        0.570      340.145       13.963      864.516
08/13/2013  06:59:00      -25.670      -26.978       -5.981       16.612       16.725       19.058      275.955      279.710      363.214        0.117        0.046       37.239       11.740        0.099      340.060       13.821      864.507
08/13/2013  07:00:00      -26.366       -9.495      -14.029       16.260       19.400       13.652      264.372      376.360      186.367        0.090        0.041       28.023       11.498        0.168      340.088       13.866      864.513
08/13/2013  07:01:00      -35.689      -21.142       -3.685       20.212       12.800        7.811      408.513      163.846       61.013        0.118        0.032       41.481        8.300        0.040      340.270       14.175      864.509
08/13/2013  07:02:00      -13.520      -12.603       -4.075       10.828       13.468        6.903      117.251      181.377       47.649        0.035        0.017       18.483        4.168        0.051      340.369       14.343      864.513
08/13/2013  07:03:00        5.298        3.522      -13.736       17.529       19.036       14.914      307.270      362.373      222.434        0.056        0.045        6.362        6.432        1.022      340.155       13.981      864.502
08/13/2013  07:04:00       -1.581        5.110        3.489        7.244        7.488       10.403       52.481       56.076      108.230        0.013        0.011        5.349        3.097        0.335      340.547       14.644      864.516
08/13/2013  07:05:00       -8.717       -4.888        8.881        5.526        4.727        4.018       30.532       22.343       16.143        0.012        0.003        9.994        2.539        0.065      340.541       14.632      864.515
08/13/2013  07:06:00       -4.504       -5.156        9.106        8.288        9.207        7.097       68.695       84.766       50.370        0.017        0.010        6.846        4.956        0.524      340.700       14.902      864.528
08/13/2013  07:07:00      -18.393       -1.797        9.842       12.723        8.817        7.169      161.870       77.732       51.390        0.036        0.015       18.481        7.009        0.144      340.663       14.838      864.525
08/13/2013  07:08:00      -18.709       -4.954       -2.633        9.356        4.911        5.057       87.543       24.115       25.577        0.026        0.007       19.354        0.736        0.001      340.473       14.518      864.528
08/13/2013  07:09:00      -27.693        9.356       -1.087       13.113       11.287        7.876      171.953      127.402       62.037        0.061        0.018       29.230        5.504        0.035      340.469       14.512      864.524
08/13/2013  07:10:00      -14.024       13.524       15.771       12.043       13.055       13.913      145.040      170.440      193.574        0.057        0.025       19.483        9.848        0.255      340.833       15.125      864.532
08/13/2013  07:11:00        6.299       18.926       13.024       13.322       16.009       19.162      177.470      256.279      367.172        0.068        0.040       19.946        8.764        0.193      340.466       14.506      864.532
08/13/2013  07:12:00       -6.167       17.396       -3.109       11.353       14.227       19.114      128.902      202.416      365.350        0.052        0.035       18.457        6.963        0.142      340.512       14.584      864.546
08/13/2013  07:13:00        9.176        7.934       -9.492       17.843       12.126       10.992      318.389      147.041      120.823        0.041        0.029       12.131       10.341        0.727      340.432       14.448      864.558
08/13/2013  07:14:00       21.627       20.437       10.679        8.173       12.174       15.195       66.803      148.205      230.899        0.072        0.022       29.755        2.661        0.008      340.441       14.462      864.578
08/13/2013  07:15:00       13.941       26.761       12.838       11.346       17.483       14.915      128.726      305.660      222.465        0.087        0.033       30.174       11.593        0.148      340.353       14.314      864.595
08/13/2013  07:16:00        9.669       27.748        3.639       12.505       12.295       19.751      156.377      151.162      390.111        0.079        0.035       29.384        5.496        0.035      340.328       14.273      864.597
08/13/2013  07:17:00       15.051       13.645       14.805       17.602       16.647       15.090      309.819      277.138      227.722        0.072        0.041       20.316        7.064        0.121      340.516       14.590      864.617
08/13/2013  07:18:00       17.513       -5.221       -4.610       18.454       23.468       11.716      340.557      550.760      137.268        0.069        0.051       18.275        7.800        0.182      340.433       14.449      864.624
08/13/2013  07:19:00      -21.141      -20.360        2.802        9.662        8.987       11.951       93.355       80.773      142.816        0.059        0.016       29.351        8.803        0.090      340.587       14.711      864.634
08/13/2013  07:20:00       -6.535      -12.186        9.321       11.762       11.847       13.301      138.344      140.349      176.911        0.037        0.023       13.828       11.674        0.713      341.069       15.527      864.645
08/13/2013  07:21:00        5.956       -0.294       11.584        9.082       11.709       11.316       82.475      137.092      128.055        0.026        0.017        5.963        8.461        2.013      341.086       15.554      864.652
08/13/2013  07:22:00      -20.814       15.766        1.761       11.702        9.476       15.915      136.942       89.791      253.302        0.058        0.024       26.111       10.836        0.172      340.841       15.139      864.656
08/13/2013  07:23:00      -25.447       13.326       -1.418       13.948       12.875        9.216      194.543      165.757       84.926        0.064        0.022       28.725        7.022        0.060      340.852       15.159      864.658
08/13/2013  07:24:00        5.973        6.999       20.027       13.712       16.347       13.094      188.015      267.214      171.453        0.056        0.031        9.201        9.771        1.128      341.262       15.854      864.663
08/13/2013  07:25:00        7.975       24.486       10.602       16.654       15.043       13.707      277.354      226.295      187.882        0.073        0.035       25.752        9.941        0.149      341.100       15.580      864.670
08/13/2013  07:26:00       -4.443       33.513       12.233       14.505       19.394       15.302      210.391      376.139      234.146        0.106        0.041       33.806        9.328        0.076      341.123       15.616      864.678
08/13/2013  07:27:00       -2.278        1.271       15.810        8.956        9.449       11.473       80.202       89.277      131.641        0.028        0.015        2.609        6.827        6.849      341.485       16.230      864.679
08/13/2013  07:28:00        0.965        6.788       18.880       11.700       17.120       10.369      136.881      293.102      107.521        0.047        0.027        6.856        9.643        1.978      341.424       16.127      864.678
08/13/2013  07:29:00       21.454        9.952       26.557       19.604       16.379       19.979      384.334      268.261      399.150        0.116        0.053       23.650       16.744        0.501      341.014       15.433      864.673
08/13/2013  07:30:00       11.816       22.637        2.085       17.597       17.744       17.771      309.663      314.846      315.797        0.080        0.047       25.535        9.651        0.143      340.879       15.205      864.669
08/13/2013  07:31:00       31.296       20.711        3.485       25.886       16.791       13.989      670.101      281.924      195.687        0.128        0.057       37.529        5.244        0.020      340.773       15.026      864.666
08/13/2013  07:32:00       33.128       -0.732       -1.090       19.839       23.239       20.041      393.593      540.068      401.657        0.122        0.067       33.136       14.244        0.185      340.967       15.353      864.666
08/13/2013  07:33:00       30.576       19.043       15.309       18.755       14.327       13.078      351.764      205.259      171.041        0.113        0.036       36.021        5.992        0.028      341.231       15.801      864.669
08/13/2013  07:34:00       15.386        7.781        8.173       21.830       26.003       22.282      476.565      676.138      496.497        0.101        0.082       17.242       18.045        1.095      341.061       15.513      864.671
08/13/2013  07:35:00       13.299      -34.572       10.071       25.895       25.587       26.375      670.569      654.673      695.643        0.175        0.101       37.042       18.909        0.261      340.646       14.811      864.673
08/13/2013  07:36:00       22.459      -10.286       17.492       19.747       17.370       21.269      389.940      301.717      452.356        0.103        0.057       24.702       15.783        0.408      341.072       15.533      864.675
08/13/2013  07:37:00       44.397      -15.699        0.412       24.676       24.487       25.241      608.916      599.599      637.099        0.203        0.092       47.091       12.723        0.073      340.777       15.032      864.678
08/13/2013  07:38:00       13.750       -6.785       19.304       21.985       32.003       17.735      483.339     1024.220      314.544        0.121        0.091       15.333       13.942        0.827      341.087       15.555      864.674
08/13/2013  07:39:00       35.228       23.210        7.254       24.934       16.481       21.269      621.716      271.610      452.356        0.159        0.067       42.187        9.390        0.050      341.120       15.613      864.677
08/13/2013  07:40:00       59.547       19.802       14.048       23.051       27.172       27.825      531.358      738.323      774.213        0.309        0.102       62.754       18.880        0.091      341.086       15.555      864.684
08/13/2013  07:41:00       33.895       11.734       23.256       25.560       27.578       22.704      653.334      760.541      515.464        0.188        0.096       35.868       15.720        0.192      341.093       15.568      864.698
08/13/2013  07:42:00       23.107      -21.976        7.299       28.346       27.096       29.032      803.468      734.214      842.828        0.172        0.119       31.889       22.546        0.500      341.100       15.579      864.710
08/13/2013  07:43:00       23.824      -24.537       12.136       38.301       35.653       32.119     1466.969     1271.111     1031.603        0.254        0.188       34.200       28.277        0.684      341.459       16.187      864.721
08/13/2013  07:44:00       10.126       14.488       42.686       23.711       28.560       23.496      562.210      815.673      552.045        0.203        0.096       17.676        9.129        0.267      341.574       16.381      864.731
08/13/2013  07:45:00       28.930      -72.432       16.883       42.252       42.520       35.128     1785.218     1807.916     1233.969        0.560        0.241       77.996       20.782        0.071      341.263       15.854      864.740
08/13/2013  07:46:00       49.283      -31.528       -1.914       45.194       48.765       37.528     2042.532     2378.023     1408.381        0.463        0.291       58.505       35.547        0.369      341.086       15.556      864.746
08/13/2013  07:47:00       21.065      -41.074       19.910       30.758       41.545       35.615      946.048     1725.981     1268.394        0.323        0.197       46.161       20.061        0.189      341.271       15.867      864.751
08/13/2013  07:48:00       28.133      -56.410       17.723       39.973       56.113       40.811     1597.874     3148.625     1665.573        0.535        0.321       63.036       30.818        0.239      341.429       16.135      864.757
08/13/2013  07:49:00       22.531      -24.410       30.425       32.930       38.999       33.988     1084.376     1520.940     1155.158        0.289        0.188       33.219       29.026        0.764      341.463       16.193      864.758
08/13/2013  07:50:00       67.196      -79.288       -0.471       33.509       35.668       25.236     1122.823     1272.221      636.834        0.692        0.152      103.932       21.434        0.043      341.190       15.730      864.759
08/13/2013  07:51:00       45.004        4.907        9.231       25.739       54.875       24.932      662.471     3011.216      621.601        0.321        0.215       45.270       24.895        0.302      341.122       15.616      864.752
08/13/2013  07:52:00       11.548      -12.246       17.556       16.616       29.399       14.870      276.101      864.330      221.110        0.098        0.068       16.833        5.368        0.102      341.425       16.129      864.749
08/13/2013  07:53:00       23.340       -8.212       17.339       34.611       19.589       29.085     1197.946      383.733      845.936        0.167        0.121       24.743       18.161        0.539      341.458       16.185      864.753
08/13/2013  07:54:00       27.881       23.165        6.404       32.378       23.117       20.686     1048.350      534.402      427.913        0.168        0.101       36.249       15.297        0.178      341.690       16.577      864.756
08/13/2013  07:55:00       56.211       34.977        1.290       32.779       31.000       27.107     1074.485      960.971      734.773        0.358        0.139       66.205       18.690        0.080      341.627       16.472      864.774
08/13/2013  07:56:00       52.081       27.365       11.466       29.967       25.431       21.855      898.047      646.740      477.653        0.281        0.101       58.832       13.014        0.049      341.832       16.818      864.773
08/13/2013  07:57:00       78.548       71.221       22.039       48.750       35.254       30.200     2376.548     1242.876      912.058        0.813        0.227      106.029       19.266        0.033      341.680       16.561      864.771
08/13/2013  07:58:00       65.098       51.618       32.623       39.326       22.999       32.543     1546.531      528.937     1059.076        0.555        0.157       83.079       15.302        0.034      341.563       16.363      864.778
08/13/2013  07:59:00       27.651       30.672       32.951       25.257       26.753       24.889      637.929      715.723      619.465        0.238        0.099       41.295       10.097        0.060      341.576       16.384      864.789
08/13/2013  08:00:00       51.557       32.308       12.428       26.675       26.731       24.908      711.558      714.549      620.387        0.295        0.102       60.843       16.430        0.073      341.484       16.228      864.799
08/13/2013  08:01:00       61.363       64.413        3.282       31.284       23.226       23.154      978.714      539.456      536.108        0.499        0.103       88.963       11.571        0.017      341.642       16.498      864.799
08/13/2013  08:02:00       48.785       51.601       13.411       23.157       20.171       23.945      536.268      406.859      573.384        0.337        0.076       71.011        4.864        0.005      341.723       16.632      864.802
08/13/2013  08:03:00       57.885       50.969        9.912       33.447       20.091       16.294     1118.673      403.640      265.501        0.392        0.089       77.126        6.808        0.008      341.534       16.312      864.807
08/13/2013  08:04:00       32.137       40.938       12.998       30.241       21.568       20.088      914.515      465.195      403.538        0.233        0.089       52.045       12.809        0.061      341.750       16.680      864.817
08/13/2013  08:05:00       18.601       27.660       21.554       27.606       23.656       18.718      762.068      559.588      350.352        0.162        0.084       33.333       12.582        0.142      342.052       17.192      864.814
08/13/2013  08:06:00       54.769       44.791       13.082       22.249       22.481       22.991      495.024      505.400      528.578        0.335        0.076       70.752       16.608        0.055      341.808       16.779      864.823
08/13/2013  08:07:00        9.921       33.293        0.418       22.908       28.769       20.157      524.785      827.639      406.320        0.148        0.088       34.740       20.354        0.343      341.900       16.935      864.830
08/13/2013  08:08:00       23.824       22.492       16.327       21.583       21.575       18.793      465.818      465.473      353.162        0.131        0.064       32.764       10.313        0.099      342.211       17.463      864.835
08/13/2013  08:09:00       16.690       16.583       -0.809       17.454       18.798       15.805      304.631      353.373      249.788        0.073        0.045       23.528       11.955        0.258      341.979       17.069      864.833
08/13/2013  08:10:00      -11.621        5.151       18.201       12.001       25.602       12.501      144.029      655.465      156.265        0.072        0.048       12.712        9.506        0.559      342.421       17.820      864.831
08/13/2013  08:11:00       20.365       28.165       14.520       22.902       22.104       21.576      524.479      488.603      465.519        0.145        0.074       34.756       13.081        0.142      342.217       17.473      864.848
08/13/2013  08:12:00       14.378        4.718        8.706       23.494       19.807       22.459      551.967      392.305      504.411        0.088        0.072       15.133       14.507        0.919      342.126       17.318      864.855
08/13/2013  08:13:00      -25.729       13.661        9.052       14.466       13.362       16.588      209.274      178.555      275.167        0.080        0.033       29.131       13.535        0.216      342.261       17.548      864.856
08/13/2013  08:14:00      -39.111        1.273       -0.915        6.089        5.131        7.162       37.076       26.332       51.298        0.082        0.006       39.132        4.462        0.013      341.771       16.715      864.859
08/13/2013  08:15:00      -39.477        8.976        3.839       12.012       12.131       11.572      144.278      147.160      133.915        0.104        0.021       40.484       10.318        0.065      341.979       17.070      864.861
08/13/2013  08:16:00      -25.378        6.792       13.709       18.127        9.019       15.214      328.576       81.336      231.477        0.076        0.032       26.271       11.978        0.208      342.280       17.580      864.875
08/13/2013  08:17:00      -32.508        7.123        3.927       21.301       17.029       18.262      453.724      290.002      333.493        0.110        0.054       33.279       16.433        0.244      342.194       17.434      864.890
08/13/2013  08:18:00      -40.520        2.697       -2.796       17.099       10.479        6.435      292.369      109.809       41.411        0.105        0.022       40.610        2.362        0.003      341.820       16.799      864.892
08/13/2013  08:19:00       -8.451       -0.038        8.625       12.854        8.831        9.592      165.221       77.989       92.012        0.024        0.017        8.451        6.232        0.544      342.401       17.785      864.899
08/13/2013  08:20:00      -27.688      -27.464       -8.789       19.110       23.097       17.790      365.189      533.456      316.501        0.141        0.061       38.999        7.824        0.040      341.998       17.100      864.890
08/13/2013  08:21:00      -40.471      -21.848        6.658       27.669       29.219       18.523      765.559      853.724      343.099        0.206        0.098       45.992        8.681        0.036      342.292       17.600      864.882
08/13/2013  08:22:00      -11.875      -12.711        4.262       33.795       19.398       27.093     1142.077      376.269      734.022        0.129        0.113       17.395       18.308        1.108      342.196       17.437      864.875
08/13/2013  08:23:00      -15.318        1.246       11.392       20.910       18.030       15.926      437.208      325.093      253.650        0.069        0.051       15.369        8.097        0.278      342.354       17.706      864.864
08/13/2013  08:24:00       -3.101       -4.097       36.775       23.737       32.689       20.280      563.450     1068.544      411.284        0.171        0.102        5.138       15.372        8.950      342.817       18.492      864.864
08/13/2013  08:25:00      -16.649      -13.138       29.505       22.238       27.093       18.077      494.513      734.030      326.778        0.144        0.078       21.208       18.427        0.755      342.772       18.416      864.871
08/13/2013  08:26:00      -22.049       -1.160       19.384       20.624       18.608       18.045      425.351      346.275      325.606        0.098        0.055       22.079       12.191        0.305      342.365       17.723      864.874
08/13/2013  08:27:00      -62.055      -17.172        3.265       35.729       16.698       15.629     1276.590      278.828      244.254        0.298        0.090       64.387        8.565        0.018      342.144       17.348      864.879
08/13/2013  08:28:00      -50.999        1.437        9.153       33.360       35.561       27.374     1112.874     1264.576      749.349        0.291        0.156       51.019       19.026        0.139      342.268       17.559      864.885
08/13/2013  08:29:00      -49.324      -17.417      -10.661       36.571       24.816       21.536     1337.402      615.825      463.813        0.263        0.121       52.309       19.995        0.146      342.375       17.740      864.889
08/13/2013  08:30:00      -40.227      -31.302        1.383       53.899       41.082       27.553     2905.114     1687.700      759.181        0.398        0.268       50.971       19.561        0.147      342.351       17.700      864.897
08/13/2013  08:31:00      -50.159      -27.606        5.961       38.478       29.461       20.286     1480.561      867.935      411.529        0.304        0.138       57.254       20.381        0.127      342.310       17.630      864.907
08/13/2013  08:32:00      -76.700        4.955       -8.899       25.206       29.491       15.563      635.358      869.736      242.198        0.387        0.087       76.859        8.468        0.012      342.116       17.302      864.911
08/13/2013  08:33:00      -59.826      -12.343        0.949       26.172       16.909       16.634      684.986      285.930      276.694        0.249        0.062       61.086        9.644        0.025      342.223       17.482      864.924
08/13/2013  08:34:00       -6.117       -4.529       18.083       18.035       17.416       21.112      325.245      303.332      445.735        0.073        0.054        7.611       11.743        2.380      343.049       18.888      864.942
08/13/2013  08:35:00      -10.550       16.850      -10.102       29.030       23.781       21.642      842.766      565.519      468.394        0.119        0.094       19.880       13.084        0.433      342.507       17.965      864.949
08/13/2013  08:36:00      -40.586       12.269       -1.838       34.894       23.074       21.376     1217.567      532.412      456.934        0.200        0.110       42.400       10.853        0.066      342.397       17.778      864.966
08/13/2013  08:37:00      -54.291       11.431       -5.533       27.577       30.157       18.058      760.479      909.451      326.088        0.255        0.100       55.482        8.618        0.024      342.288       17.595      864.963
08/13/2013  08:38:00      -10.095      -28.563        8.565       27.533       27.617       30.280      758.039      762.685      916.850        0.171        0.122       30.294       19.921        0.432      342.751       18.380      864.959
08/13/2013  08:39:00      -39.091      -41.020        7.406       36.585       31.597       24.093     1338.427      998.346      580.457        0.309        0.146       56.664       19.788        0.122      342.497       17.947      864.970
08/13/2013  08:40:00      -50.341      -72.527       -4.100       30.534       26.318       18.587      932.341      692.642      345.458        0.489        0.099       88.286       15.493        0.031      342.323       17.652      864.973
08/13/2013  08:41:00      -68.709      -63.509       -3.782       17.559       27.117       14.974      308.312      735.306      224.210        0.502        0.063       93.565        7.789        0.007      342.322       17.648      864.974
08/13/2013  08:42:00      -72.112      -28.188       -9.140       21.549       22.101       17.622      464.366      488.460      310.530        0.367        0.063       77.426        4.296        0.003      342.388       17.762      864.958
08/13/2013  08:43:00      -28.672      -26.633       -8.959       12.568       22.358       17.717      157.959      499.880      313.906        0.129        0.049       39.133        9.026        0.053      342.460       17.884      864.945
08/13/2013  08:44:00      -58.065      -48.038       -4.433       21.796       24.873       16.322      475.077      618.651      266.409        0.353        0.068       75.360       10.204        0.018      342.447       17.863      864.933
08/13/2013  08:45:00      -51.072      -36.647       -2.640       15.463       23.483        9.869      239.108      551.449       97.396        0.242        0.044       62.860        8.087        0.017      342.488       17.931      864.923
08/13/2013  08:46:00      -33.561      -54.758       11.750       33.616       22.692       20.678     1130.062      514.908      427.589        0.317        0.104       64.224       21.058        0.108      342.583       18.093      864.909
08/13/2013  08:47:00      -59.586      -58.998        0.911       26.378       25.546       14.579      695.776      652.607      212.533        0.430        0.078       83.853       10.308        0.015      342.522       17.991      864.905
08/13/2013  08:48:00      -49.383      -10.975       -2.246       23.200       18.440       11.903      538.239      340.041      141.679        0.179        0.051       50.588        7.803        0.024      342.541       18.023      864.888
08/13/2013  08:49:00      -19.580       10.777        9.237       14.554       23.556       24.367      211.811      554.874      593.764        0.097        0.068       22.350       14.115        0.399      343.147       19.055      864.884
08/13/2013  08:50:00       -8.409      -14.424        3.135       33.678       14.582       16.171     1134.196      212.627      261.510        0.095        0.080       16.696       14.349        0.739      342.802       18.467      864.884
08/13/2013  08:51:00      -17.006      -26.996       18.630       22.111       20.282       20.100      488.891      411.358      404.009        0.133        0.065       31.906       18.203        0.325      343.305       19.324      864.882
08/13/2013  08:52:00      -25.807      -28.257       14.560       26.241       22.545       19.424      688.567      508.266      377.279        0.163        0.079       38.268       17.879        0.218      343.147       19.054      864.877
08/13/2013  08:53:00       -6.939        1.415       19.347       25.349       25.275       26.390      642.547      638.816      696.410        0.120        0.099        7.082       15.326        4.683      343.481       19.625      864.876
08/13/2013  08:54:00      -26.704       -7.516        5.716       33.304       24.733       23.223     1109.170      611.710      539.288        0.153        0.113       27.742       13.909        0.251      343.038       18.868      864.881
08/13/2013  08:55:00      -22.436      -22.032       -6.005       23.057       25.882       17.564      531.607      669.892      308.481        0.127        0.075       31.445       13.218        0.177      342.992       18.790      864.885
08/13/2013  08:56:00      -25.618      -12.258        6.981       19.038       29.391       16.036      362.449      863.810      257.156        0.117        0.074       28.400       14.256        0.252      343.104       18.983      864.887
08/13/2013  08:57:00      -25.955       -4.227       10.614       21.357       23.230       15.014      456.109      539.644      225.426        0.101        0.061       26.297       13.034        0.246      343.089       18.955      864.889
08/13/2013  08:58:00      -28.251        8.174       25.743       23.312       25.193       26.603      543.448      634.711      707.741        0.171        0.094       29.410       19.915        0.459      343.728       20.048      864.892
08/13/2013  08:59:00       -7.050       11.096       50.047       13.699       27.358       17.080      187.673      748.481      291.720        0.195        0.061       13.146       18.040        1.883      344.059       20.609      864.882
08/13/2013  09:00:00       11.036       18.805       52.440       35.618       27.062       18.016     1268.677      732.366      324.565        0.278        0.116       21.804        9.884        0.206      343.570       19.776      864.873
08/13/2013  09:01:00       49.608        8.669       32.043       54.966       37.596       37.593     3021.303     1413.463     1413.245        0.470        0.292       50.359       30.452        0.366      343.140       19.043      864.866
08/13/2013  09:02:00       53.492       -4.244       13.927       47.389       42.968       33.006     2245.749     1846.210     1089.429        0.413        0.259       53.660       30.539        0.324      342.893       18.624      864.868
08/13/2013  09:03:00       52.907      -17.656        8.440       30.659       26.571       27.389      939.965      706.012      750.169        0.279        0.120       55.776       23.099        0.172      342.691       18.277      864.868
08/13/2013  09:04:00       39.925       -3.164       23.886       31.580       42.869       28.436      997.295     1837.718      808.625        0.291        0.182       40.050       30.316        0.573      343.051       18.891      864.857
08/13/2013  09:05:00      -10.562       -0.994       16.529       34.764       19.202       21.980     1208.568      368.719      483.130        0.122        0.103       10.609       15.769        2.210      343.270       19.264      864.848
08/13/2013  09:06:00      -27.594       17.671       -2.273       33.672       18.966       25.653     1133.798      359.726      658.092        0.161        0.108       32.767       19.671        0.360      343.424       19.528      864.846
08/13/2013  09:07:00      -22.087       11.835       -2.337       29.741       18.322       18.941      884.500      335.701      358.773        0.111        0.079       25.058        9.874        0.155      343.456       19.580      864.839
08/13/2013  09:08:00      -36.989       19.956       -1.552       21.735       17.427       21.605      472.425      303.696      466.770        0.151        0.062       42.029        5.482        0.017      343.190       19.126      864.830
08/13/2013  09:09:00      -39.559       28.742       -6.747       28.918       23.021       18.836      836.273      529.947      354.799        0.208        0.086       48.898       12.274        0.063      343.208       19.159      864.810
08/13/2013  09:10:00      -31.460        7.657       -3.795       19.274       18.143       13.064      371.472      329.180      170.670        0.097        0.044       32.378       10.089        0.097      343.490       19.639      864.799
08/13/2013  09:11:00      -24.103       13.843       -1.210       25.156       20.764       26.591      632.845      431.131      707.083        0.127        0.089       27.795       20.615        0.550      343.827       20.215      864.795
08/13/2013  09:12:00        7.194        7.232       36.895       29.107       36.930       23.160      847.220     1363.853      536.394        0.211        0.137       10.201        9.360        0.842      344.205       20.860      864.781
08/13/2013  09:13:00       28.068       -9.714        8.417       43.193       35.790       32.748     1865.640     1280.939     1072.447        0.259        0.211       29.702       20.056        0.456      343.428       19.534      864.782
08/13/2013  09:14:00       30.572      -42.152       -4.130       52.088       22.134       32.950     2713.160      489.925     1085.673        0.351        0.214       52.072       25.114        0.233      343.238       19.208      864.776
08/13/2013  09:15:00       32.057       -3.273       17.428       37.437       36.515       36.787     1401.505     1333.321     1353.289        0.271        0.204       32.223       30.660        0.905      343.487       19.634      864.781
08/13/2013  09:16:00       52.043       17.555        8.582       39.671       28.806       32.200     1573.760      829.804     1036.843        0.326        0.172       54.925       21.199        0.149      342.996       18.797      864.783
08/13/2013  09:17:00       53.784       -1.923       22.509       42.020       46.369       28.777     1765.705     2150.047      828.098        0.407        0.237       53.818       25.357        0.222      343.338       19.380      864.773
08/13/2013  09:18:00       58.947        7.719       38.842       47.744       36.479       35.461     2279.498     1330.693     1257.494        0.495        0.243       59.450       30.347        0.261      343.572       19.778      864.769
08/13/2013  09:19:00       34.380       -5.322       26.871       47.167       43.673       38.707     2224.754     1907.290     1498.216        0.378        0.282       34.789       37.081        1.136      343.905       20.347      864.768
08/13/2013  09:20:00        8.652       18.907       25.360       35.816       25.315       29.149     1282.821      640.868      849.678        0.192        0.139       20.793       16.899        0.661      343.704       20.003      864.770
08/13/2013  09:21:00       10.138       -6.923       21.888       20.343       14.795       21.061      413.838      218.906      443.578        0.085        0.054       12.277       11.402        0.863      344.247       20.930      864.763
08/13/2013  09:22:00      -62.191       -1.103       17.175       37.668       36.869       16.283     1418.869     1359.326      265.120        0.360        0.152       62.201       12.530        0.041      343.527       19.701      864.753
08/13/2013  09:23:00      -39.964      -23.062       -3.063       43.092       34.082       21.354     1856.935     1161.554      456.008        0.281        0.174       46.141       11.623        0.063      343.484       19.629      864.745
08/13/2013  09:24:00      -48.996      -31.806       -0.897       13.066       11.439       12.848      170.709      130.854      165.078        0.194        0.023       58.414       11.352        0.038      343.454       19.575      864.731
08/13/2013  09:25:00      -45.390      -19.404       -7.968       22.679       18.096       12.496      514.317      327.448      156.150        0.175        0.050       49.363        7.581        0.024      343.528       19.703      864.716
08/13/2013  09:26:00      -59.281       -4.418      -13.464       38.402       23.667       15.387     1474.702      560.134      236.762        0.299        0.114       59.446        5.444        0.008      343.602       19.828      864.700
08/13/2013  09:27:00      -91.089       19.146      -10.358       29.019       14.159       12.026      842.085      200.470      144.623        0.498        0.059       93.079        9.947        0.011      343.440       19.553      864.687
08/13/2013  09:28:00      -30.022       21.322        3.442       12.005        8.746       17.250      144.128       76.500      297.550        0.094        0.026       36.823        5.753        0.024      343.747       20.076      864.670
08/13/2013  09:29:00       -5.553       18.893       36.144       18.744       25.502       17.648      351.337      650.355      311.436        0.150        0.066       19.693        6.897        0.123      344.683       21.677      864.659
08/13/2013  09:30:00        9.949       36.357       30.421       15.853       23.304       19.453      251.309      543.084      378.402        0.176        0.059       37.694       12.596        0.112      344.362       21.127      864.646
08/13/2013  09:31:00       40.889        8.236       30.788       45.330       31.919       32.776     2054.846     1018.831     1074.281        0.342        0.207       41.711       29.952        0.516      344.066       20.623      864.637
08/13/2013  09:32:00       14.184       26.062       50.665       34.559       28.056       31.049     1194.345      787.150      964.037        0.320        0.147       29.671       20.173        0.462      344.201       20.853      864.637
08/13/2013  09:33:00      -14.240      -12.392       33.344       23.433       29.201       26.376      549.108      852.693      695.705        0.178        0.105       18.877       19.686        1.088      344.333       21.078      864.629
08/13/2013  09:34:00       13.707      -29.542        4.191       28.333       40.419       27.728      802.774     1633.674      768.866        0.214        0.160       32.567       20.857        0.410      344.203       20.855      864.635
08/13/2013  09:35:00       20.613      -41.822       19.657       33.789       50.296       28.249     1141.720     2529.677      798.013        0.351        0.223       46.626       27.288        0.343      344.481       21.331      864.634
08/13/2013  09:36:00       18.017      -49.712        2.879       23.196       43.015       26.932      538.060     1850.314      725.329        0.296        0.156       52.876       26.294        0.247      344.140       20.747      864.636
08/13/2013  09:37:00       -0.611       -1.301       27.385       25.977       31.242       19.128      674.820      976.068      365.891        0.138        0.101        1.437       10.898       57.532      344.572       21.486      864.636
08/13/2013  09:38:00       39.480       15.717       23.239       27.715       29.894       33.622      768.094      893.676     1130.463        0.257        0.140       42.494       21.318        0.252      344.236       20.911      864.641
08/13/2013  09:39:00       20.987       18.841       26.422       34.027       35.470       29.953     1157.869     1258.152      897.197        0.240        0.166       28.204       28.094        0.992      344.306       21.030      864.629
08/13/2013  09:40:00       45.622      -29.689       22.108       45.537       32.274       27.772     2073.596     1041.599      771.298        0.367        0.194       54.431       27.762        0.260      344.169       20.799      864.626
08/13/2013  09:41:00        4.155      -27.112        2.186       29.916       17.252       22.262      894.978      297.625      495.581        0.122        0.084       27.428       18.175        0.439      344.069       20.626      864.617
08/13/2013  09:42:00      -50.678       -1.963       -0.647       16.929       14.639       11.575      286.606      214.299      133.984        0.160        0.032       50.716        8.737        0.030      344.000       20.507      864.609
08/13/2013  09:43:00      -44.369        0.267        9.411       26.699       18.380       17.163      712.845      337.841      294.579        0.170        0.067       44.370       17.958        0.164      344.243       20.924      864.602
08/13/2013  09:44:00      -45.760        7.167       10.633       33.369       24.973       24.186     1113.503      623.668      584.978        0.229        0.116       46.318        7.520        0.026      344.504       21.370      864.594
08/13/2013  09:45:00      -18.584        3.129       26.555       16.266       16.496       18.095      264.568      272.102      327.438        0.096        0.043       18.845       14.317        0.577      345.273       22.688      864.580
08/13/2013  09:46:00        4.055       14.753       41.040       27.022       28.298       22.724      730.193      800.755      516.368        0.198        0.102       15.300       16.783        1.203      345.043       22.292      864.572
08/13/2013  09:47:00        3.223       19.221       55.718       22.599       28.042       21.638      510.725      786.364      468.204        0.262        0.088       19.489       12.030        0.381      345.166       22.502      864.557
08/13/2013  09:48:00       36.503       23.365       43.353       37.954       29.867       26.991     1440.525      892.010      728.521        0.341        0.153       43.341       23.493        0.294      344.897       22.042      864.546
08/13/2013  09:49:00        1.630       10.999       48.858       22.919       53.168       28.735      525.279     2826.863      825.684        0.334        0.209       11.119       32.776        8.690      344.872       22.000      864.542
08/13/2013  09:50:00        7.122      -36.994       22.352       21.522       43.592       28.441      463.197     1900.266      808.916        0.255        0.159       37.674       27.425        0.530      344.876       22.008      864.533
08/13/2013  09:51:00       31.969       -6.383       11.326       37.542       33.238       29.303     1409.364     1104.795      858.663        0.228        0.169       32.600       25.900        0.631      344.555       21.458      864.528
08/13/2013  09:52:00       44.245       -9.007       15.102       42.257       42.960       34.489     1785.667     1845.566     1189.493        0.354        0.241       45.152       28.393        0.395      344.366       21.133      864.533
08/13/2013  09:53:00       29.337       13.352       26.987       39.763       33.559       24.646     1581.057     1126.189      607.442        0.254        0.166       32.232       21.995        0.466      344.235       20.910      864.539
08/13/2013  09:54:00       35.462       34.638        4.851       26.094       36.476       22.472      680.893     1330.467      504.990        0.250        0.126       49.572       13.398        0.073      344.428       21.240      864.537
08/13/2013  09:55:00       14.589        6.083       18.850       32.208       24.033       18.984     1037.345      577.590      360.400        0.129        0.099       15.806       12.888        0.665      344.658       21.634      864.527
08/13/2013  09:56:00       32.214       29.535       43.744       34.990       34.302       27.673     1224.270     1176.633      765.805        0.349        0.158       43.704       26.673        0.372      344.852       21.966      864.520
08/13/2013  09:57:00      -14.028       -2.248        8.691       15.163       22.731       17.674      229.920      516.698      312.384        0.067        0.053       14.207       14.843        1.092      344.720       21.740      864.522
08/13/2013  09:58:00       62.961       14.716       20.339       89.203       38.252       31.039     7957.101     1463.225      963.393        0.749        0.519       64.658       28.322        0.192      345.105       22.397      864.512
08/13/2013  09:59:00       51.017       60.511       29.437       50.000       45.620       37.434     2499.997     2081.176     1401.297        0.656        0.299       79.147       20.123        0.065      345.310       22.750      864.502
08/13/2013  10:00:00       57.554       70.572       48.431       48.740       49.290       49.087     2375.569     2429.460     2409.494        0.893        0.361       91.065       18.918        0.043      345.296       22.727      864.500
08/13/2013  10:01:00       65.927       59.227       30.471       60.300       45.708       49.543     3636.055     2089.191     2454.465        0.848        0.409       88.624       33.882        0.146      344.943       22.121      864.490
08/13/2013  10:02:00      118.809       90.581       31.221       49.531       31.777       42.702     2453.312     1009.750     1823.444        1.429        0.264      149.400       15.689        0.011      344.625       21.577      864.492
08/13/2013  10:03:00       53.322       37.137        7.111       46.736       35.286       26.037     2184.259     1245.082      677.904        0.419        0.205       64.980       20.245        0.097      344.742       21.776      864.485
08/13/2013  10:04:00       47.019       71.424       72.214       64.483       39.863       46.261     4157.993     1589.066     2140.065        1.021        0.394       85.511       42.008        0.241      344.930       22.098      864.485
08/13/2013  10:05:00       77.643       53.923       31.408       48.935       43.584       38.013     2394.641     1899.572     1444.962        0.783        0.287       94.531       31.826        0.113      344.879       22.011      864.482
08/13/2013  10:06:00       21.059       30.871       18.046       37.347       41.420       29.403     1394.818     1715.652      864.564        0.285        0.199       37.369       27.844        0.555      345.353       22.824      864.478
08/13/2013  10:07:00      115.896       67.373       17.739       40.479       29.011       30.940     1638.561      841.629      957.303        1.086        0.172      134.057       19.888        0.022      344.808       21.889      864.463
08/13/2013  10:08:00       94.510       79.474       50.931       54.944       45.289       38.128     3018.868     2051.056     1453.734        1.218        0.326      123.484       29.153        0.056      345.132       22.445      864.461
08/13/2013  10:09:00       70.821       47.314       51.154       53.465       58.753       35.727     2858.478     3451.954     1276.408        0.873        0.379       85.172       23.567        0.077      344.865       21.988      864.458
08/13/2013  10:10:00       57.898       41.871       26.067       52.649       58.825       28.878     2771.934     3460.417      833.950        0.642        0.353       71.452       21.695        0.092      345.146       22.468      864.439
08/13/2013  10:11:00       -7.720        4.097       34.669       23.767       37.171       19.033      564.888     1381.651      362.249        0.179        0.115        8.740       17.715        4.108      345.475       23.031      864.452
08/13/2013  10:12:00       51.332       21.469       14.534       33.992       31.619       31.431     1155.468      999.735      987.899        0.322        0.157       55.640       11.135        0.040      345.008       22.231      864.452
08/13/2013  10:13:00        2.243       39.737        9.792       21.980       41.827       25.047      483.118     1749.459      627.359        0.227        0.143       39.800       24.244        0.371      345.448       22.986      864.450
08/13/2013  10:14:00      -47.830       30.908      -15.493       19.955       42.976       19.369      398.186     1846.906      375.173        0.305        0.131       56.948        7.474        0.017      344.956       22.145      864.457
08/13/2013  10:15:00      -32.652        0.151        7.593       36.552       19.768       24.158     1336.069      390.765      583.604        0.172        0.116       32.653       26.724        0.670      345.088       22.369      864.450
08/13/2013  10:16:00       41.156       44.028        5.361       49.320       46.629       38.641     2432.468     2174.306     1493.113        0.488        0.305       60.269       30.258        0.252      345.352       22.820      864.456
08/13/2013  10:17:00      112.662       79.444       22.661       34.232       31.786       34.401     1171.839     1010.329     1183.445        1.144        0.168      137.855       19.899        0.021      345.090       22.371      864.450
08/13/2013  10:18:00       42.509       14.004       12.644       37.012       52.059       30.279     1369.922     2710.161      916.825        0.358        0.250       44.756       17.990        0.162      344.846       21.957      864.444
08/13/2013  10:19:00       19.861      -16.756       30.363       33.527       29.938       20.283     1124.041      896.283      411.396        0.201        0.122       25.985       14.100        0.294      345.577       23.209      864.438
08/13/2013  10:20:00       79.319       58.600       29.852       42.189       33.543       35.781     1779.928     1125.113     1280.274        0.740        0.209       98.617       22.552        0.052      345.278       22.694      864.428
08/13/2013  10:21:00       45.237       42.367       35.091       56.873       41.147       29.031     3234.508     1693.113      842.823        0.542        0.289       61.979       15.485        0.062      345.655       23.340      864.418
08/13/2013  10:22:00       57.733       57.948       37.255       27.246       26.266       37.073      742.367      689.903     1374.432        0.544        0.140       81.798       21.383        0.068      345.237       22.624      864.410
08/13/2013  10:23:00       53.993       40.319        2.629       27.169       27.970       22.952      738.169      782.299      526.778        0.330        0.102       67.386       11.947        0.031      345.304       22.738      864.396
08/13/2013  10:24:00       40.700       14.017       13.036       33.444       30.445       27.769     1118.485      926.925      771.113        0.242        0.141       43.046       17.255        0.161      345.452       22.994      864.390
08/13/2013  10:25:00       27.436       25.716       21.196       32.796       32.428       27.882     1075.571     1051.570      777.420        0.238        0.145       37.604       13.231        0.124      345.618       23.277      864.376
08/13/2013  10:26:00      -21.956       52.013       -8.906       38.204       36.686       26.568     1459.581     1345.853      705.849        0.339        0.176       56.458       25.988        0.212      345.131       22.444      864.375
08/13/2013  10:27:00      -43.734       10.995        8.554       62.110       14.612       33.902     3857.647      213.508     1149.348        0.366        0.261       45.095       41.938        0.865      345.275       22.689      864.368
08/13/2013  10:28:00       20.880       82.540        4.943       62.014       59.855       40.808     3845.723     3582.601     1665.301        0.818        0.455       85.140       32.823        0.149      345.740       23.487      864.366
08/13/2013  10:29:00       25.388      -23.072       -0.833       27.445       54.373       35.206      753.255     2956.417     1239.437        0.306        0.247       34.305       21.352        0.387      345.271       22.683      864.363
08/13/2013  10:30:00       85.804       57.416       20.014       39.043       33.807       33.091     1524.368     1142.931     1094.997        0.741        0.188      103.242       13.921        0.018      345.278       22.694      864.368
08/13/2013  10:31:00       45.956       60.540        8.180       44.858       42.955       35.035     2012.212     1845.127     1227.458        0.546        0.254       76.007       27.232        0.128      345.679       23.383      864.364
08/13/2013  10:32:00       57.899       98.748      -10.993       35.611       33.143       37.304     1268.137     1098.452     1391.604        0.849        0.188      114.471       13.310        0.014      345.475       23.033      864.367
08/13/2013  10:33:00       15.844       22.033       20.736       18.646       19.002       26.992      347.676      361.074      728.550        0.130        0.072       27.138       18.372        0.458      345.934       23.820      864.365
08/13/2013  10:34:00      -10.733       -4.736       27.027       23.330       10.836       10.050      544.274      117.417      101.002        0.082        0.038       11.731        7.441        0.402      346.482       24.763      864.368
08/13/2013  10:35:00       -0.774      -23.446       28.805       23.501       38.987       31.386      552.308     1519.997      985.084        0.222        0.153       23.459        4.737        0.041      345.745       23.495      864.359
08/13/2013  10:36:00       -3.368      -13.661       53.860       29.584       70.699       38.700      875.203     4998.416     1497.662        0.523        0.369       14.071       39.979        8.073      346.135       24.165      864.340
08/13/2013  10:37:00       12.858      -66.761       12.894       40.192       63.312       32.144     1615.378     4008.384     1033.213        0.572        0.333       67.988       28.171        0.172      345.967       23.876      864.342
08/13/2013  10:38:00       49.858      -40.783       20.118       46.546       45.761       36.244     2166.490     2094.038     1313.616        0.506        0.279       64.414       39.261        0.372      345.939       23.827      864.337
08/13/2013  10:39:00       28.346       36.574       26.206       26.231       20.302       29.189      688.056      412.172      852.025        0.239        0.098       46.273       20.532        0.197      345.756       23.515      864.331
08/13/2013  10:40:00       39.455       27.636       10.958       29.593       29.762       22.819      875.744      885.765      520.716        0.236        0.114       48.171       15.531        0.104      345.924       23.803      864.338
08/13/2013  10:41:00        0.496       24.948       15.863       19.139       27.526       15.776      366.310      757.702      248.893        0.112        0.069       24.953        9.943        0.159      346.553       24.885      864.332
08/13/2013  10:42:00        4.489       54.231       78.615       32.513       43.666       25.889     1057.119     1906.701      670.260        0.639        0.182       54.416       24.802        0.208      346.545       24.871      864.322
08/13/2013  10:43:00       12.149       24.978       50.582       25.518       45.388       23.884      651.161     2060.113      570.445        0.331        0.164       27.775       19.462        0.491      346.359       24.549      864.309
08/13/2013  10:44:00       29.439       12.831       23.295       46.118       46.794       30.518     2126.837     2189.661      931.358        0.341        0.262       32.114       28.276        0.775      346.558       24.893      864.301
08/13/2013  10:45:00       43.114       37.577        5.938       59.981       40.943       38.929     3597.763     1676.336     1515.470        0.505        0.339       57.192       33.733        0.348      346.572       24.917      864.286
08/13/2013  10:46:00       62.350       59.525       17.177       51.194       45.743       44.840     2620.819     2092.412     2010.652        0.722        0.336       86.202       31.785        0.136      346.088       24.084      864.272
08/13/2013  10:47:00       89.487       69.423       21.107       48.615       40.418       34.924     2363.437     1633.648     1219.717        0.924        0.261      113.259       28.536        0.063      345.983       23.903      864.266
08/13/2013  10:48:00       34.797       62.431        7.727       59.070       45.712       33.132     3489.221     2089.617     1097.758        0.592        0.334       71.474       18.322        0.066      345.941       23.830      864.256
08/13/2013  10:49:00       88.526       75.054       14.772       60.585       41.884       34.742     3670.514     1754.289     1207.029        1.016        0.332      116.060       25.065        0.047      346.276       24.407      864.248
08/13/2013  10:50:00      106.271       68.799       24.288       57.471       38.143       40.686     3302.933     1454.881     1655.326        1.151        0.321      126.597       27.784        0.048      346.121       24.141      864.233
08/13/2013  10:51:00       70.512       68.270        1.603       51.544       50.549       35.899     2656.798     2555.195     1288.768        0.807        0.325       98.147       20.983        0.046      346.196       24.269      864.230
08/13/2013  10:52:00        5.493      131.285       -3.340       42.122       59.487       42.472     1774.271     3538.718     1803.840        1.220        0.356      131.400       39.188        0.089      346.297       24.444      864.214
08/13/2013  10:53:00       23.607       26.255       17.821       33.176       40.109       32.719     1100.656     1608.716     1070.507        0.267        0.189       35.307       19.982        0.320      346.503       24.798      864.220
08/13/2013  10:54:00        7.781       -4.344       38.903       38.401       39.346       31.999     1474.620     1548.084     1023.927        0.282        0.202        8.911       22.443        6.343      346.505       24.802      864.211
08/13/2013  10:55:00       54.629       17.897       63.410       35.604       20.245       21.812     1267.648      409.872      475.763        0.474        0.108       57.486       16.586        0.083      346.077       24.065      864.204
08/13/2013  10:56:00       38.813      -34.909       12.556       40.954       38.911       27.187     1677.271     1514.097      739.108        0.341        0.197       52.202       20.577        0.155      345.812       23.609      864.190
08/13/2013  10:57:00       46.940       -0.774       21.237       29.520       20.018       31.564      871.424      400.702      996.282        0.246        0.113       46.947       19.447        0.172      346.232       24.333      864.185
08/13/2013  10:58:00       30.607       12.183       38.765       35.486       40.360       28.875     1259.253     1628.917      833.776        0.315        0.186       32.943       29.060        0.778      346.330       24.501      864.167
08/13/2013  10:59:00        4.777       23.246       16.572       43.332       39.476       26.251     1877.637     1558.346      689.141        0.248        0.206       23.732       17.591        0.549      346.018       23.963      864.142
08/13/2013  11:00:00       13.465      -76.392       17.415       37.527       54.992       36.230     1408.260     3024.079     1312.580        0.603        0.287       77.570       32.712        0.178      346.383       24.591      864.119
08/13/2013  11:01:00       70.055       47.193       32.352       51.890       38.441       37.617     2692.570     1477.717     1415.055        0.688        0.279       84.468       20.417        0.058      346.325       24.492      864.113
08/13/2013  11:02:00       76.413       41.123        5.082       36.434       28.068       27.416     1327.466      787.785      751.657        0.521        0.143       86.776       16.472        0.036      346.218       24.308      864.099
08/13/2013  11:03:00       78.197       37.699       10.317       52.987       44.811       38.164     2807.623     2007.989     1456.521        0.696        0.314       86.810       30.729        0.125      346.624       25.008      864.087
08/13/2013  11:04:00       32.181        8.158       17.326       35.592       19.194       28.443     1266.769      368.406      809.002        0.192        0.122       33.199       20.718        0.389      346.862       25.417      864.090
08/13/2013  11:05:00       62.237       35.252       11.510       32.238       32.081       38.150     1039.283     1029.203     1455.442        0.439        0.176       71.527       11.955        0.028      346.305       24.456      864.076
08/13/2013  11:06:00      -19.697       27.003       13.935       25.536       41.399       43.901      652.098     1713.848     1927.288        0.280        0.215       33.423       19.746        0.349      346.571       24.914      864.057
08/13/2013  11:07:00      -70.594       23.895       11.519       55.647       42.924       30.825     3096.641     1842.486      950.190        0.579        0.294       74.529       30.263        0.165      346.489       24.772      864.047
08/13/2013  11:08:00       25.377       22.039       31.579       20.547       21.735       21.607      422.194      472.411      466.882        0.174        0.068       33.611       13.260        0.156      347.568       26.631      864.043
08/13/2013  11:09:00       48.349       38.843        7.264       48.269       28.056       23.251     2329.882      787.142      540.593        0.378        0.183       62.020       11.447        0.034      346.867       25.423      864.037
08/13/2013  11:10:00      123.088       69.960        0.419       59.705       41.518       31.537     3564.682     1723.741      994.568        1.316        0.314      141.581       29.106        0.042      346.312       24.469      864.028
08/13/2013  11:11:00       52.873       37.723       21.944       52.379       42.146       34.830     2743.521     1776.247     1213.130        0.522        0.287       64.950       26.032        0.161      346.887       25.458      864.004
08/13/2013  11:12:00        3.879       26.782       80.122       33.862       43.136       29.892     1146.627     1860.721      893.504        0.553        0.195       27.061       18.317        0.458      347.536       26.576      863.993
08/13/2013  11:13:00        5.081       39.134       80.518       28.138       59.498       31.288      791.731     3539.961      978.909        0.667        0.266       39.462       25.464        0.416      346.936       25.542      863.984
08/13/2013  11:14:00       59.237       61.523       16.474       52.074       51.795       28.429     2711.731     2682.711      808.193        0.688        0.310       85.405       26.422        0.096      346.310       24.465      863.982
08/13/2013  11:15:00       12.485      -22.117       41.302       27.994       71.794       53.267      783.671     5154.371     2837.425        0.556        0.439       25.397       32.266        1.614      346.836       25.371      863.968
08/13/2013  11:16:00       60.341       11.508       50.807       48.897       69.636       45.381     2390.876     4849.135     2059.452        0.783        0.465       61.428       46.683        0.578      346.356       24.546      863.971
08/13/2013  11:17:00       77.094       23.460       61.012       67.745       50.015       46.756     4589.326     2501.543     2186.141        0.975        0.464       80.585       49.202        0.373      346.495       24.785      863.963
08/13/2013  11:18:00       22.315       -4.904       27.947       44.604       23.031       22.875     1989.476      530.418      523.244        0.217        0.152       22.847       17.630        0.595      346.876       25.439      863.970
08/13/2013  11:19:00       12.690       19.268      -13.734       19.483       24.846       22.519      379.587      617.348      507.118        0.111        0.075       23.071       17.761        0.593      346.438       24.685      863.954
08/13/2013  11:20:00       -7.013       19.990       22.062       25.475       16.497       23.027      648.951      272.147      530.257        0.119        0.073       21.184       13.927        0.432      347.067       25.769      863.947
08/13/2013  11:21:00      -80.482       63.004      -20.433       27.526       22.975       17.743      757.668      527.841      314.797        0.623        0.080      102.210       14.255        0.019      346.366       24.562      863.932
08/13/2013  11:22:00      -28.620       38.957        5.470       35.080       37.790       26.102     1230.629     1428.113      681.319        0.285        0.167       48.341       25.391        0.276      347.151       25.915      863.918
08/13/2013  11:23:00       -6.856       33.819       18.377       37.663       39.489       26.897     1418.503     1559.414      723.452        0.261        0.185       34.507       29.646        0.738      347.174       25.953      863.899
08/13/2013  11:24:00       -7.515      -10.096       29.834       27.321       26.974       22.004      746.413      727.604      484.157        0.150        0.098       12.586       17.978        2.040      347.264       26.109      863.884
08/13/2013  11:25:00       -2.864      -43.179        6.124       43.975       55.842       25.720     1933.838     3118.303      661.539        0.381        0.286       43.274       30.439        0.495      346.797       25.304      863.873
08/13/2013  11:26:00       32.418      -52.518       18.823       36.057       65.423       44.301     1300.103     4280.198     1962.548        0.585        0.377       61.718       36.467        0.349      347.191       25.982      863.854
08/13/2013  11:27:00        4.580      -59.225       14.979       20.709       38.575       26.350      428.854     1487.999      694.335        0.318        0.131       59.402       22.144        0.139      346.915       25.507      863.845
08/13/2013  11:28:00        6.914       32.404       56.461       25.214       29.548       23.621      635.747      873.074      557.975        0.318        0.103       33.133       16.881        0.260      347.229       26.048      863.831
08/13/2013  11:29:00        4.011       25.533       51.629       28.401       34.833       33.666      806.638     1213.349     1133.395        0.324        0.158       25.846       28.894        1.250      347.291       26.156      863.824
08/13/2013  11:30:00       12.985      -29.829       12.025       23.838       44.850       27.645      568.238     2011.519      764.240        0.227        0.167       32.533       28.392        0.762      346.961       25.587      863.814
08/13/2013  11:31:00        1.579       14.987       30.698       18.374       26.895       22.845      337.612      723.354      521.876        0.138        0.079       15.070       20.110        1.781      347.476       26.474      863.819
08/13/2013  11:32:00       -9.331      -11.185       16.760       35.704       36.348       26.001     1274.745     1321.175      676.039        0.188        0.164       14.567       19.042        1.709      347.290       26.154      863.810
08/13/2013  11:33:00      -65.677      -70.996       -3.089       17.483       34.548       16.042      305.664     1193.599      257.359        0.556        0.088       96.716        7.432        0.006      346.359       24.549      863.807
08/13/2013  11:34:00      -22.670      -67.908       -7.076       14.463       25.165       16.664      209.183      633.258      277.699        0.315        0.056       71.592        7.896        0.012      346.400       24.620      863.802
08/13/2013  11:35:00       29.151      -54.008       -0.437       15.899       25.324       19.846      252.783      641.291      393.876        0.253        0.064       61.373        9.227        0.023      346.488       24.773      863.801
08/13/2013  11:36:00       34.323      -34.051       22.865       20.068       24.737       24.979      402.709      611.924      623.945        0.225        0.082       48.348       17.163        0.126      346.844       25.384      863.791
08/13/2013  11:37:00      -29.512      -44.349        6.808       32.694       27.754       22.662     1068.870      770.306      513.553        0.262        0.118       53.271       21.792        0.167      346.946       25.561      863.791
08/13/2013  11:38:00      -73.027      -23.595        2.164       31.446       32.943       23.717      988.856     1085.246      562.477        0.427        0.132       76.744       19.216        0.063      346.840       25.378      863.778
08/13/2013  11:39:00      -67.081       23.252       -9.584       31.289       26.508       18.584      979.007      702.700      345.374        0.358        0.101       70.997        8.175        0.013      346.657       25.064      863.777
08/13/2013  11:40:00      -43.560       32.119       26.917       28.222       23.466       30.501      796.498      550.661      930.335        0.297        0.114       54.121       25.909        0.229      347.336       26.234      863.772
08/13/2013  11:41:00      -57.156      -18.410        8.255       32.766       31.709       24.796     1073.621     1005.443      614.851        0.318        0.135       60.048       24.618        0.168      346.958       25.580      863.774
08/13/2013  11:42:00      -45.019      -60.378       25.881       39.965       38.175       44.689     1597.193     1457.324     1997.138        0.570        0.253       75.314       28.965        0.148      346.738       25.201      863.771
08/13/2013  11:43:00      -21.230      -34.882      -17.560       18.550       18.911       20.585      344.090      357.643      423.732        0.155        0.056       40.834       13.947        0.117      346.857       25.407      863.768
08/13/2013  11:44:00      -26.000     -114.641       -3.810       31.493       36.172       20.532      991.784     1308.449      421.556        0.828        0.136      117.552       11.038        0.009      346.773       25.263      863.775
08/13/2013  11:45:00      -52.198     -140.746       -2.840       44.655       38.675       28.895     1994.072     1495.769      834.921        1.343        0.216      150.114       25.778        0.029      346.694       25.125      863.773
08/13/2013  11:46:00      -30.643      -74.247        0.020       26.910       59.829       16.172      724.145     3579.529      261.532        0.551        0.228       80.322       13.236        0.027      346.756       25.232      863.771
08/13/2013  11:47:00      -51.921      -48.379        4.725       53.082       45.275       20.126     2817.747     2049.831      405.066        0.516        0.264       70.967       22.068        0.097      347.083       25.796      863.752
08/13/2013  11:48:00     -104.657      -66.082        0.221       44.719       67.364       28.360     1999.767     4537.931      804.316        1.133        0.367      123.774       29.249        0.056      346.973       25.605      863.741
08/13/2013  11:49:00      -88.132      -72.819        2.132       62.353       40.963       25.565     3887.868     1677.962      653.583        0.965        0.311      114.323       30.044        0.069      347.026       25.698      863.728
08/13/2013  11:50:00      -13.268      -48.363       11.611       32.984       27.344       28.082     1087.949      747.676      788.614        0.264        0.131       50.150       26.087        0.271      347.408       26.357      863.727
08/13/2013  11:51:00      -18.250      -54.674       -0.409       37.900       47.684       25.769     1436.388     2273.722      664.055        0.385        0.219       57.640       24.962        0.188      347.109       25.840      863.707
08/13/2013  11:52:00      -61.676      -38.266      -22.673       42.126       22.258       16.970     1774.622      495.404      287.993        0.417        0.128       72.582        8.338        0.013      346.751       25.224      863.707
08/13/2013  11:53:00       14.979      -16.134       12.520       43.622       28.068       21.383     1902.915      787.830      457.229        0.189        0.157       22.016       13.634        0.384      346.985       25.626      863.693
08/13/2013  11:54:00      -28.794      -40.574       -9.506       33.866       16.185       18.374     1146.908      261.959      337.610        0.216        0.087       49.752       10.370        0.043      346.867       25.423      863.679
08/13/2013  11:55:00        5.236      -35.770       -7.787       18.564       32.432       26.136      344.639     1051.832      683.101        0.172        0.104       36.151       10.501        0.084      347.039       25.720      863.663
08/13/2013  11:56:00       19.179      -16.702       28.564       25.167       44.783       23.689      633.403     2005.539      561.190        0.233        0.160       25.432       19.654        0.597      347.720       26.895      863.656
08/13/2013  11:57:00        1.804      -38.584       14.891       13.644       21.384       22.127      186.150      457.262      489.582        0.142        0.057       38.626       15.963        0.171      347.363       26.279      863.631
08/13/2013  11:58:00      -26.892      -72.263       -7.861       17.391       16.574       14.696      302.434      274.697      215.970        0.340        0.040       77.105        4.869        0.004      346.890       25.462      863.621
08/13/2013  11:59:00       12.788      -78.770       -3.742       37.813       35.479       20.993     1429.786     1258.794      440.695        0.476        0.156       79.801       19.604        0.060      346.994       25.641      863.600
08/13/2013  12:00:00      -25.346       15.058       32.092       21.754       24.905       21.320      473.224      620.245      454.559        0.172        0.077       29.481       19.371        0.432      347.950       27.290      863.585
08/13/2013  12:01:00      -45.530      -30.355       -7.781       39.610       17.725       18.463     1568.990      314.169      340.866        0.264        0.111       54.721       13.288        0.059      347.423       26.382      863.558
08/13/2013  12:02:00      -56.383       61.353       -6.584       42.317       44.670       30.576     1790.710     1995.371      934.863        0.585        0.236       83.326       34.129        0.168      347.671       26.810      863.555
08/13/2013  12:03:00       26.146       45.784       19.077       24.784       33.394       27.925      614.261     1115.160      779.807        0.283        0.125       52.724       18.039        0.117      347.835       27.094      863.539
08/13/2013  12:04:00       19.915       32.226      -17.209       24.313       26.970       26.550      591.137      727.376      704.886        0.188        0.101       37.883       15.071        0.158      347.372       26.294      863.530
08/13/2013  12:05:00       -0.937      129.902        5.700       36.829       88.571       38.020     1356.384     7844.782     1445.484        1.378        0.532      129.906       44.436        0.117      347.822       27.069      863.519
08/13/2013  12:06:00      -47.008       74.409        0.113       42.712       75.987       44.584     1824.338     5774.050     1987.751        0.866        0.479       88.014       42.785        0.236      347.781       27.000      863.507
08/13/2013  12:07:00       -7.555       91.282       10.908       32.863       63.020       35.988     1080.004     3971.472     1295.139        0.743        0.317       91.594       39.100        0.182      347.965       27.317      863.495
08/13/2013  12:08:00       -7.212      148.766      -15.932       43.086       72.916       33.330     1856.421     5316.765     1110.894        1.536        0.414      148.941       29.046        0.038      347.312       26.189      863.476
08/13/2013  12:09:00      -20.191      162.702      -17.617       40.436       57.530       33.120     1635.043     3309.744     1096.952        1.661        0.302      163.950       22.291        0.018      347.446       26.420      863.462
08/13/2013  12:10:00      -31.003      119.875       -8.120       39.469       77.040       36.614     1557.836     5935.231     1340.582        1.211        0.442      123.819       18.960        0.023      347.487       26.492      863.449
08/13/2013  12:11:00      -77.570       46.677      -13.865       34.732       34.180       26.129     1206.289     1168.264      682.705        0.572        0.153       90.531       22.013        0.059      347.159       25.927      863.430
08/13/2013  12:12:00      -64.371      114.818      -12.765       44.259       65.470       34.614     1958.895     4286.320     1198.141        1.247        0.372      131.631       37.024        0.079      347.448       26.425      863.409
08/13/2013  12:13:00      -64.506      107.307       -2.514       45.268       72.733       35.227     2049.232     5290.128     1240.921        1.213        0.429      125.203       37.673        0.091      347.724       26.901      863.396
08/13/2013  12:14:00      -53.028      122.291      -16.691       29.969       53.003       28.766      898.147     2809.352      827.502        1.129        0.227      133.294       19.288        0.021      347.446       26.421      863.375
08/13/2013  12:15:00       -4.763       68.046       24.266       23.935       52.559       33.816      572.864     2762.461     1143.516        0.486        0.224       68.213       32.419        0.226      348.126       27.597      863.363
08/13/2013  12:16:00       -6.774       67.408       20.185       38.022       56.758       33.452     1445.681     3221.461     1119.056        0.539        0.289       67.748       32.457        0.230      347.927       27.251      863.343
08/13/2013  12:17:00       28.315       71.131        4.041       39.888       40.547       29.158     1591.057     1644.098      850.179        0.498        0.204       76.560       21.470        0.079      347.740       26.927      863.325
08/13/2013  12:18:00        2.242      160.316      -13.314       40.058       93.630       40.230     1604.672     8766.615     1618.421        1.893        0.599      160.332       42.602        0.071      347.656       26.782      863.301
08/13/2013  12:19:00       31.804      210.743      -30.417       40.728       56.001       30.590     1658.781     3136.115      935.748        2.604        0.287      213.129       15.905        0.006      347.358       26.267      863.303
08/13/2013  12:20:00       89.163       76.818        8.097       33.615       35.913       42.082     1129.979     1289.720     1770.896        0.905        0.210      117.690       26.723        0.052      347.534       26.572      863.291
08/13/2013  12:21:00       90.854      116.038      -18.109       60.372       65.262       34.835     3644.777     4259.113     1213.462        1.558        0.456      147.375       32.836        0.050      347.557       26.613      863.272
08/13/2013  12:22:00       39.551      124.165       -4.568       39.261       61.221       41.757     1541.458     3747.986     1743.689        1.202        0.352      130.312       40.941        0.099      347.588       26.664      863.266
08/13/2013  12:23:00       26.722      106.358       -3.051       46.389       46.116       38.122     2151.928     2126.703     1453.311        0.888        0.287      109.664       31.959        0.085      347.672       26.811      863.263
08/13/2013  12:24:00       87.907       79.481      -11.900       33.826       35.565       30.692     1144.182     1264.880      942.018        0.877        0.168      118.511       23.559        0.040      347.533       26.572      863.267
08/13/2013  12:25:00      118.273       79.769        3.371       27.189       28.311       26.093      739.235      801.538      680.857        1.129        0.111      142.659       14.264        0.010      347.157       25.923      863.256
08/13/2013  12:26:00      122.656       77.162       24.083       29.735       25.333       26.998      884.171      641.762      728.879        1.192        0.113      144.909       18.102        0.016      347.188       25.979      863.252
08/13/2013  12:27:00       91.466       57.701       44.268       56.241       39.183       32.796     3163.053     1535.324     1075.609        0.971        0.289      108.145       21.504        0.040      347.383       26.313      863.239
08/13/2013  12:28:00      117.862       91.670       18.768       62.218       38.571       36.585     3871.067     1487.726     1338.441        1.467        0.335      149.315       28.893        0.037      347.479       26.477      863.226
08/13/2013  12:29:00       43.576       94.506       -7.019       66.043       54.654       35.318     4361.674     2987.030     1247.367        0.974        0.430      104.069       21.781        0.044      347.913       27.228      863.221
08/13/2013  12:30:00       22.544       71.615       30.537       83.194       53.338       45.892     6921.243     2844.994     2106.081        0.922        0.594       75.080       37.165        0.245      348.164       27.661      863.214
08/13/2013  12:31:00      110.695       80.141       -0.659       51.167       40.366       39.105     2618.024     1629.407     1529.237        1.223        0.289      136.660       29.165        0.046      347.589       26.669      863.221
08/13/2013  12:32:00        3.101       77.924        8.368       31.799       57.638       35.564     1011.203     3322.082     1264.800        0.587        0.280       77.986       37.817        0.235      348.047       27.460      863.221
08/13/2013  12:33:00       63.768       43.339       19.748       38.525       30.982       37.226     1484.187      959.882     1385.761        0.508        0.191       77.101       26.493        0.118      348.043       27.452      863.206
08/13/2013  12:34:00       81.011       58.498       49.822       40.349       29.886       47.084     1628.009      893.145     2216.948        0.860        0.237       99.924        4.683        0.002      347.661       26.792      863.192
08/13/2013  12:35:00      105.072       90.486       48.393       56.281       35.865       43.325     3167.561     1286.302     1877.064        1.395        0.317      138.664       35.715        0.066      347.484       26.487      863.180
08/13/2013  12:36:00       32.774       48.636       49.417       53.536       46.246       37.811     2866.082     2138.695     1429.690        0.616        0.322       58.648       31.518        0.289      347.981       27.343      863.167
08/13/2013  12:37:00       53.250       52.620       32.067       57.435       57.199       42.462     3298.812     3271.705     1802.992        0.750        0.419       74.863       36.549        0.238      348.188       27.702      863.169
08/13/2013  12:38:00       47.737       82.654        5.621       36.700       50.455       38.594     1346.874     2545.701     1489.482        0.726        0.269       95.449       37.192        0.152      347.968       27.323      863.169
08/13/2013  12:39:00       36.684       74.479      -19.181       31.828       54.781       21.198     1013.001     3000.941      449.373        0.586        0.223       83.023       15.635        0.035      347.614       26.711      863.169
08/13/2013  12:40:00      -20.172       59.768       -9.992       23.794       52.557       20.483      566.164     2762.236      419.542        0.391        0.187       63.080       10.377        0.027      347.688       26.839      863.172
08/13/2013  12:41:00       30.144       14.426       26.258       27.215       35.541       20.868      740.640     1263.184      435.468        0.212        0.122       33.418       17.251        0.266      347.975       27.333      863.159
08/13/2013  12:42:00       35.739      112.933       -5.275       57.967       47.284       35.840     3360.123     2235.761     1284.515        1.047        0.344      118.453       28.945        0.060      348.076       27.508      863.147
08/13/2013  12:43:00       79.246       61.550       -2.993       32.460       34.735       34.654     1053.649     1206.532     1200.909        0.677        0.173      100.341       21.905        0.048      347.924       27.244      863.145
08/13/2013  12:44:00       64.700       60.396       18.078       42.222       34.764       38.476     1782.691     1208.507     1480.395        0.632        0.224       88.509       31.184        0.124      347.842       27.104      863.130
08/13/2013  12:45:00       33.070       31.843       29.093       64.815       32.058       39.160     4200.932     1027.705     1533.505        0.486        0.338       45.909       28.203        0.377      348.148       27.634      863.117
08/13/2013  12:46:00       62.756       63.358        1.588       38.878       35.851       39.767     1511.508     1285.293     1581.427        0.617        0.219       89.177       28.236        0.100      348.152       27.638      863.117
08/13/2013  12:47:00       21.328       10.603       19.291       37.476       39.144       30.538     1404.419     1532.287      932.591        0.240        0.193       23.818       26.972        1.282      348.537       28.306      863.104
08/13/2013  12:48:00       -0.369       25.799        9.217       25.618       30.503       24.290      656.270      930.432      590.013        0.146        0.109       25.801       15.530        0.362      348.576       28.373      863.089
08/13/2013  12:49:00        0.473       78.482       -1.338       29.237       58.080       32.186      854.829     3373.322     1035.950        0.571        0.263       78.483       24.932        0.101      348.410       28.086      863.078
08/13/2013  12:50:00       -8.102       96.502       -4.590       34.643       51.060       34.104     1200.165     2607.099     1163.053        0.718        0.249       96.842       26.904        0.077      348.366       28.010      863.065
08/13/2013  12:51:00      112.805       82.833       20.974       38.236       27.522       41.044     1462.026      757.438     1684.642        1.196        0.195      139.951       21.157        0.023      347.805       27.040      863.057
08/13/2013  12:52:00       42.692       41.325        5.950       28.259       30.848       31.220      798.581      951.604      974.671        0.314        0.136       59.417       16.030        0.073      348.031       27.430      863.055
08/13/2013  12:53:00        4.469       65.774        1.450       24.540       60.836       27.832      602.188     3700.985      774.646        0.471        0.254       65.926       36.863        0.313      348.327       27.944      863.044
08/13/2013  12:54:00      -23.328      135.292       -1.872       29.680       34.483       24.559      880.891     1189.097      603.168        1.076        0.134      137.288       13.657        0.010      348.001       27.380      863.048
08/13/2013  12:55:00        8.892       71.812        4.348       23.142       52.752       36.881      535.543     2782.826     1360.187        0.497        0.234       72.360       35.701        0.243      348.224       27.764      863.044
08/13/2013  12:56:00        8.687      111.562       -2.511       43.970       67.048       41.035     1933.334     4495.491     1683.896        1.032        0.406      111.900       34.865        0.097      348.190       27.706      863.028
08/13/2013  12:57:00       -5.102       46.037       19.531       39.268       33.342       32.858     1541.960     1111.690     1079.617        0.313        0.187       46.319       23.952        0.267      348.537       28.306      863.021
08/13/2013  12:58:00        4.806       20.621       19.274       28.445       30.186       25.727      809.091      911.222      661.854        0.160        0.119       21.174       22.260        1.105      348.761       28.693      863.020
08/13/2013  12:59:00      -21.519       34.117        1.032       36.602       26.738       25.454     1339.694      714.901      647.916        0.216        0.135       40.336       16.269        0.163      348.232       27.779      863.010
08/13/2013  13:00:00      -58.494        6.821      -18.182       23.311       22.885       19.641      543.411      523.745      385.767        0.263        0.073       58.890       18.245        0.096      347.922       27.243      862.998
08/13/2013  13:01:00      -71.480       36.936       -4.772       38.479       36.702       30.033     1480.631     1347.048      901.952        0.511        0.186       80.459       25.025        0.097      348.163       27.659      862.993
08/13/2013  13:02:00     -106.761       30.467      -16.112       26.080       52.243       21.596      680.175     2729.374      466.385        0.823        0.194      111.023        7.554        0.005      347.978       27.339      862.971
08/13/2013  13:03:00      -57.869       13.124      -11.962       22.190       47.428       19.346      492.381     2249.429      374.266        0.339        0.156       59.338        7.312        0.015      348.034       27.436      862.956
08/13/2013  13:04:00      -58.114       48.882       14.719       37.075       27.861       22.804     1374.552      776.217      520.026        0.433        0.134       75.939       19.498        0.066      348.541       28.313      862.946
08/13/2013  13:05:00       -6.232       19.578       39.130       22.940       18.547       17.063      526.238      343.981      291.131        0.156        0.058       20.546       10.724        0.272      349.265       29.567      862.933
08/13/2013  13:06:00       21.723       40.348       26.629       25.611       27.641       22.228      655.900      764.008      494.074        0.236        0.096       45.824       15.797        0.119      348.637       28.479      862.926
08/13/2013  13:07:00       -4.719       51.829       15.512       27.100       44.909       29.039      734.429     2016.786      843.237        0.327        0.180       52.043       26.009        0.250      348.872       28.885      862.924
08/13/2013  13:08:00       13.168       38.824       27.023       29.077       54.104       31.300      845.473     2927.209      979.666        0.358        0.238       40.997       26.790        0.427      348.885       28.907      862.907
08/13/2013  13:09:00       -7.732      -77.056      -20.033       36.475       38.334       26.944     1330.429     1469.514      725.960        0.496        0.176       77.443       23.713        0.094      348.408       28.082      862.913
08/13/2013  13:10:00      -26.773      -54.108        0.547       53.260       45.329       40.551     2836.603     2054.713     1644.359        0.509        0.327       60.369       29.884        0.245      348.475       28.197      862.906
08/13/2013  13:11:00      -28.634      -48.210        9.539       45.864       40.282       26.565     2103.521     1622.649      705.680        0.383        0.222       56.072       23.608        0.177      348.425       28.112      862.909
08/13/2013  13:12:00       -5.136      -15.023       15.514       37.737       40.261       30.318     1424.051     1620.927      919.194        0.223        0.198       15.877       17.899        1.271      348.632       28.469      862.917
08/13/2013  13:13:00      -32.153      -55.385       -9.584       48.763       63.207       33.860     2377.849     3995.170     1146.473        0.586        0.376       64.042       19.351        0.091      348.416       28.097      862.890
08/13/2013  13:14:00      -38.115      -12.874        0.906       35.757       23.665       19.127     1278.538      560.014      365.850        0.191        0.110       40.230       20.908        0.270      348.862       28.868      862.885
08/13/2013  13:15:00      -82.771      -89.364       -5.228       44.960       58.890       33.984     2021.426     3468.056     1154.933        1.075        0.332      121.807       27.965        0.053      348.392       28.055      862.877
08/13/2013  13:16:00      -97.248     -129.038       -9.019       48.758       53.941       31.101     2377.347     2909.677      967.254        1.622        0.313      161.579       18.621        0.013      348.239       27.789      862.865
08/13/2013  13:17:00     -134.499     -104.201       -3.917       76.396       46.257       31.022     5836.285     2139.734      962.394        1.895        0.447      170.140       32.044        0.035      348.354       27.987      862.840
08/13/2013  13:18:00      -97.657     -185.084      -19.564      109.093       84.432       49.890    11901.333     7128.756     2488.982        3.284        1.076      209.268       44.397        0.045      348.370       28.013      862.843
08/13/2013  13:19:00      -32.060      -27.621        7.199       36.514       31.320       30.526     1333.292      980.959      931.846        0.254        0.162       42.317       19.051        0.203      348.749       28.673      862.850
08/13/2013  13:20:00       34.432      -61.795        4.799       56.314       75.995       40.475     3171.274     5775.298     1638.265        0.780        0.529       70.740       20.473        0.084      348.576       28.373      862.838
08/13/2013  13:21:00      -78.070     -138.077      -13.265      114.469       46.832       38.062    13103.201     2193.260     1448.699        2.104        0.837      158.620       36.538        0.053      348.034       27.435      862.827
08/13/2013  13:22:00       27.109      -80.277       -1.977       44.087       66.225       35.816     1943.653     4385.762     1282.772        0.740        0.381       84.730       37.556        0.196      348.602       28.417      862.780
08/13/2013  13:23:00       85.707     -229.058      -23.976       87.063       78.944       57.464     7579.914     6232.232     3302.135        3.875        0.856      244.568       54.758        0.050      348.472       28.190      862.753
08/13/2013  13:24:00       49.128     -153.721       -4.893       57.241       86.401       51.356     3276.479     7465.157     2637.430        1.972        0.669      161.381       47.153        0.085      348.603       28.417      862.748
08/13/2013  13:25:00       42.340      -14.104       62.954       60.428       85.992       60.735     3651.565     7394.680     3688.751        1.034        0.737       44.627       64.914        2.116      349.010       29.125      862.734
08/13/2013  13:26:00       38.610      -73.695       43.921       65.638      117.611       60.151     4308.297    13832.246     3618.119        1.530        1.088       83.196       65.012        0.611      348.970       29.052      862.716
08/13/2013  13:27:00       78.884       -1.084       61.478       81.881       96.119       70.499     6704.539     9238.944     4970.080        1.545        1.046       78.891       69.996        0.787      348.890       28.916      862.696
08/13/2013  13:28:00       38.358      -79.219      -22.412       52.312       56.072       31.482     2736.498     3144.105      991.116        0.756        0.344       88.017       13.337        0.023      348.477       28.201      862.683
08/13/2013  13:29:00      -14.556      -16.487       12.689       22.301       34.703       23.339      497.324     1204.317      544.692        0.145        0.112       21.993       15.458        0.494      349.224       29.497      862.673
08/13/2013  13:30:00      -17.082       37.827       18.544       29.294       29.292       23.717      858.129      858.005      562.516        0.217        0.114       41.505       20.952        0.255      349.278       29.589      862.668
08/13/2013  13:31:00      -78.174        3.053       -0.335       25.123       35.953       20.016      631.158     1292.639      400.636        0.422        0.116       78.233       11.260        0.021      348.415       28.094      862.661
08/13/2013  13:32:00      -58.364       -0.169        3.340       30.866       35.341       27.366      952.683     1249.006      748.916        0.318        0.148       58.364       16.702        0.082      348.706       28.598      862.638
08/13/2013  13:33:00      -48.849       16.616       11.947       24.879       25.136       27.498      618.964      631.798      756.153        0.241        0.100       51.598       16.833        0.106      349.073       29.234      862.628
08/13/2013  13:34:00      -26.972       12.462       12.437       40.127       20.334       20.791     1610.148      413.491      432.254        0.175        0.123       29.712       18.015        0.368      349.122       29.318      862.627
08/13/2013  13:35:00       15.813       25.278        5.300       21.851       40.677       23.091      477.483     1654.627      533.178        0.179        0.133       29.816       21.760        0.533      348.993       29.096      862.635
08/13/2013  13:36:00        1.414       -8.426        8.439       25.213       24.368       22.844      635.698      593.782      521.856        0.095        0.088        8.544       18.539        4.709      349.349       29.713      862.627
08/13/2013  13:37:00       16.596      -17.142       11.063       31.190       49.586       25.201      972.789     2458.741      635.115        0.238        0.203       23.860       21.754        0.831      348.968       29.053      862.612
08/13/2013  13:38:00       48.810       78.241       90.941      101.771       76.471       60.319    10357.309     5847.818     3638.351        1.831        0.992       92.217       54.459        0.349      349.148       29.361      862.611
08/13/2013  13:39:00      131.433      125.276       79.516       94.238       65.444       66.223     8880.739     4282.950     4385.527        2.842        0.877      181.573       60.495        0.111      348.737       28.648      862.607
08/13/2013  13:40:00       61.485       83.140       88.430       52.997       63.011       51.061     2808.638     3970.354     2607.264        1.395        0.469      103.405       38.402        0.138      348.845       28.839      862.614
08/13/2013  13:41:00      124.822       95.122       61.073       68.415       59.320       49.041     4680.656     3518.918     2405.010        1.948        0.530      156.935       41.950        0.071      348.831       28.814      862.598
08/13/2013  13:42:00       52.636       -7.235       30.419       68.235       93.636       43.828     4656.026     8767.716     1920.913        0.954        0.767       53.131       38.618        0.528      348.990       29.089      862.590
08/13/2013  13:43:00       45.738      -74.308        4.489       44.390       69.268       37.247     1970.491     4798.004     1387.330        0.789        0.408       87.256       41.749        0.229      348.805       28.769      862.589
08/13/2013  13:44:00      -30.349      -35.842       13.545       55.198       39.426       34.196     3046.799     1554.378     1169.350        0.408        0.289       46.965       25.270        0.290      349.209       29.468      862.576
08/13/2013  13:45:00      -39.568      -69.395       -2.062       53.283       63.044       38.923     2839.088     3974.560     1515.009        0.736        0.416       79.883       22.198        0.077      348.483       28.212      862.570
08/13/2013  13:46:00      -35.076       45.909       28.583       32.512       39.633       27.218     1057.040     1570.799      740.808        0.376        0.168       57.775       24.344        0.178      349.099       29.279      862.570
08/13/2013  13:47:00      -63.190        2.985       12.762       62.012       56.080       33.866     3845.547     3144.976     1146.874        0.615        0.407       63.261       33.256        0.276      348.832       28.815      862.543
08/13/2013  13:48:00     -220.949      -99.202      -27.961       81.310       72.513       36.378     6611.352     5258.079     1323.387        3.631        0.660      242.197       37.146        0.024      348.436       28.126      862.524
08/13/2013  13:49:00     -254.725      -55.372      -28.433       69.014       61.440       42.261     4762.993     3774.846     1785.987        3.954        0.516      260.674       40.950        0.025      348.521       28.271      862.514
08/13/2013  13:50:00     -308.057      -32.128      -33.892       57.189       71.428       35.434     3270.603     5101.967     1255.581        5.335        0.481      309.728       30.153        0.009      348.574       28.365      862.511
08/13/2013  13:51:00     -224.396       18.203      -35.667       71.533       92.210       36.073     5116.941     8502.702     1301.251        3.344        0.746      225.134       26.653        0.014      348.544       28.314      862.516
08/13/2013  13:52:00     -146.720       12.605      -43.067       43.997       65.163       31.293     1935.721     4246.269      979.239        1.535        0.358      147.261       26.220        0.032      348.486       28.216      862.538
08/13/2013  13:53:00     -238.274       59.254      -31.375       88.771       62.906       33.767     7880.315     3957.149     1140.224        3.712        0.649      245.531       19.433        0.006      348.499       28.236      862.524
08/13/2013  13:54:00     -234.453       17.229      -30.886       66.474       44.191       27.196     4418.732     1952.808      739.607        3.166        0.356      235.085       25.002        0.011      348.444       28.140      862.515
08/13/2013  13:55:00     -139.067       21.711      -19.734       50.712       78.371       31.721     2571.690     6141.939     1006.205        1.496        0.486      140.752       31.357        0.050      348.706       28.597      862.487
08/13/2013  13:56:00     -213.979       28.498      -18.192       66.723       50.324       32.919     4451.901     2532.508     1083.631        2.750        0.403      215.868       34.125        0.025      348.882       28.901      862.456
08/13/2013  13:57:00     -123.994        2.991       -7.160       55.296       60.026       28.755     3057.701     3603.091      826.846        1.146        0.374      124.030       29.764        0.058      348.857       28.860      862.438
08/13/2013  13:58:00     -195.882      133.676      -28.819       91.653       82.264       45.768     8400.224     6767.446     2094.754        3.716        0.863      237.148       45.883        0.037      348.865       28.870      862.410
08/13/2013  13:59:00     -129.173      127.635      -13.518       85.553      105.173       53.677     7319.254    11061.456     2881.215        2.721        1.063      181.594       44.918        0.061      348.933       28.989      862.399
08/13/2013  14:00:00     -228.827       70.081      -29.930       75.038       71.009       42.366     5630.754     5042.250     1794.890        3.532        0.623      239.318       26.130        0.012      349.093       29.265      862.375
08/13/2013  14:01:00     -109.934       42.619        1.754       82.003       69.458       40.221     6724.437     4824.391     1617.756        1.353        0.658      117.906       35.697        0.092      349.247       29.533      862.384
08/13/2013  14:02:00     -100.883       75.717      -20.533       71.401       75.534       29.617     5098.162     5705.320      877.195        1.400        0.584      126.137       37.614        0.089      349.001       29.108      862.386
08/13/2013  14:03:00      -90.517      201.136      -19.403       48.651       65.296       36.598     2366.933     4263.544     1339.420        2.850        0.398      220.565       31.081        0.020      349.029       29.153      862.390
08/13/2013  14:04:00      -21.944       81.787      -17.698       62.642       56.441       29.963     3923.958     3185.580      897.785        0.774        0.400       84.680       25.093        0.088      349.031       29.160      862.389
08/13/2013  14:05:00       62.954       38.727        1.495       22.829       42.120       18.638      521.143     1774.092      347.365        0.405        0.132       73.912       16.439        0.049      348.720       28.622      862.372
08/13/2013  14:06:00      -10.217       40.219       -9.730       62.808       50.570       32.432     3944.819     2557.361     1051.859        0.468        0.378       41.497       30.060        0.525      348.658       28.515      862.375
08/13/2013  14:07:00      -20.003       15.504      -13.369       43.605       25.010       18.506     1901.418      625.494      342.485        0.184        0.143       25.308       16.948        0.448      348.973       29.061      862.375
08/13/2013  14:08:00       42.566      -27.702       -6.651       46.102       44.040       28.847     2125.415     1939.565      832.157        0.376        0.245       50.786       26.988        0.282      348.866       28.876      862.354
08/13/2013  14:09:00        5.928      -26.245        3.268       30.653       35.816       28.267      939.635     1282.797      799.022        0.188        0.151       26.906       17.865        0.441      349.124       29.321      862.324
08/13/2013  14:10:00      -23.628      -33.402        2.884       42.211       55.446       46.129     1781.803     3074.204     2127.841        0.433        0.349       40.914       36.597        0.800      349.053       29.200      862.313
08/13/2013  14:11:00      -44.913      -54.897       12.773       50.852       46.592       37.000     2585.940     2170.786     1368.981        0.566        0.306       70.929       39.719        0.314      349.223       29.493      862.295
08/13/2013  14:12:00      -36.914     -131.105       10.071       52.708       78.055       34.048     2778.106     6092.559     1159.237        1.434        0.501      136.203       33.685        0.061      348.991       29.090      862.268
08/13/2013  14:13:00     -230.516      -25.185       -2.933      102.633       78.633       39.735    10533.598     6183.102     1578.898        3.603        0.915      231.887       49.175        0.045      349.176       29.409      862.241
08/13/2013  14:14:00     -257.694      -34.156      -24.926       72.777       93.974       37.341     5296.436     8831.026     1394.364        4.186        0.776      259.948       21.558        0.007      348.983       29.075      862.240
08/13/2013  14:15:00      -81.857       36.149        2.978       54.956       46.650       30.996     3020.215     2176.220      960.765        0.709        0.308       89.483       23.219        0.067      349.162       29.388      862.250
08/13/2013  14:16:00     -103.453       79.016       10.437       77.507       75.914       53.736     6007.282     5762.949     2887.535        1.585        0.733      130.177       40.887        0.099      349.284       29.597      862.239
08/13/2013  14:17:00     -127.874      130.763      -33.647       58.369       56.801       40.092     3406.974     3226.409     1607.378        2.141        0.412      182.896       40.360        0.049      348.910       28.949      862.246
08/13/2013  14:18:00      -72.091       93.484      -23.997       50.284       56.239       25.591     2528.520     3162.820      654.878        1.043        0.317      118.052       29.298        0.062      349.063       29.218      862.236
08/13/2013  14:19:00      -62.417       22.163       -9.783       59.578       62.489       37.560     3549.486     3904.873     1410.746        0.667        0.443       66.235       38.038        0.330      349.112       29.303      862.228
08/13/2013  14:20:00      -12.687      117.875        8.939       33.903       73.004       38.031     1149.386     5329.537     1446.319        1.103        0.396      118.556       38.467        0.105      349.284       29.599      862.215
08/13/2013  14:21:00      -31.589      168.059       -4.308       38.168      106.047       39.434     1456.788    11245.957     1555.044        2.176        0.713      171.002       51.086        0.089      349.246       29.531      862.203
08/13/2013  14:22:00      -40.390      196.589      -15.522       43.677       61.866       33.081     1907.685     3827.386     1094.328        2.367        0.341      200.695       21.990        0.012      349.163       29.387      862.182
08/13/2013  14:23:00     -130.068      127.841      -22.070       61.169       80.092       45.814     3741.682     6414.707     2098.940        2.300        0.613      182.376       34.253        0.035      349.453       29.891      862.180
08/13/2013  14:24:00     -210.694       47.706      -18.368       63.521       73.135       39.843     4034.926     5348.677     1587.462        2.899        0.549      216.027       38.458        0.032      349.231       29.505      862.177
08/13/2013  14:25:00      -91.627       37.123      -12.410       53.751       49.378       23.693     2889.151     2438.190      561.375        0.791        0.294       98.862       15.368        0.024      349.139       29.349      862.177
08/13/2013  14:26:00       14.271       -7.915        9.899       37.410       28.617       25.687     1399.483      818.909      659.846        0.162        0.144       16.318       18.783        1.325      349.474       29.928      862.165
08/13/2013  14:27:00        5.435       34.544       23.796       23.254       43.171       25.799      540.765     1863.761      665.584        0.243        0.154       34.969       23.235        0.441      349.543       30.049      862.147
08/13/2013  14:28:00      -16.964        1.385       18.080       32.812       45.556       25.560     1076.633     2075.353      653.327        0.221        0.190       17.021       27.794        2.666      349.542       30.046      862.145
08/13/2013  14:29:00       26.357      -50.103       22.316       30.844       46.500       26.896      951.377     2162.236      723.405        0.377        0.192       56.613       30.411        0.289      349.402       29.804      862.150
08/13/2013  14:30:00        7.398       -6.215       18.839       28.295       24.863       20.914      800.631      618.172      437.376        0.115        0.093        9.663       18.704        3.747      349.436       29.862      862.149
08/13/2013  14:31:00       42.042       22.549       38.508       57.736       38.381       34.522     3333.409     1473.114     1191.791        0.488        0.300       47.708       36.247        0.577      348.964       29.045      862.128
08/13/2013  14:32:00        1.923       24.453       38.132       33.331       42.081       37.796     1110.944     1770.785     1428.564        0.318        0.216       24.528       24.186        0.972      349.318       29.659      862.121
08/13/2013  14:33:00      -17.649       47.925        3.295       41.292       37.963       25.604     1704.999     1441.183      655.564        0.321        0.190       51.072       18.347        0.129      349.184       29.427      862.137
08/13/2013  14:34:00      -53.868       -0.822      -16.637       21.836       21.888       13.550      476.816      479.101      183.592        0.216        0.057       53.875        8.041        0.022      349.217       29.482      862.146
08/13/2013  14:35:00     -153.817       55.256      -13.219      108.265       71.266       43.806    11721.345     5078.901     1919.001        2.280        0.936      163.441       42.883        0.069      349.501       29.974      862.129
08/13/2013  14:36:00     -223.183      175.767      -53.107       57.024       56.526       31.867     3251.756     3195.242     1015.502        4.549        0.373      284.086       24.156        0.007      349.043       29.173      862.116
08/13/2013  14:37:00     -148.007      239.341      -55.795       87.620       89.343       35.546     7677.231     7982.098     1263.524        4.961        0.846      281.407       19.052        0.005      349.068       29.221      862.120
08/13/2013  14:38:00       25.755       36.795      -36.773      110.104       34.390       26.923    12122.802     1182.655      724.834        0.870        0.702       44.913       21.172        0.222      348.951       29.023      862.153
08/13/2013  14:39:00       70.708       63.904      -22.182       26.558       54.369       28.699      705.347     2956.021      823.641        0.703        0.224       95.306       16.492        0.030      348.858       28.861      862.132
08/13/2013  14:40:00      103.472      121.306        8.217       76.307       36.456       38.133     5822.812     1329.013     1454.093        1.705        0.430      159.442       32.324        0.041      349.038       29.172      862.071
08/13/2013  14:41:00       88.212        4.650       56.734       70.049       93.831       48.662     4906.912     8804.190     2367.973        1.355        0.804       88.334       55.536        0.395      348.840       28.829      862.027
08/13/2013  14:42:00       48.120       56.925       24.732       67.499       40.076       42.258     4556.136     1606.090     1785.715        0.706        0.397       74.538       28.318        0.144      349.056       29.203      862.021
08/13/2013  14:43:00       68.334      115.900       -0.837       63.813       59.067       49.895     4072.105     3488.889     2489.538        1.408        0.503      134.546       42.118        0.098      349.334       29.686      862.002
08/13/2013  14:44:00       39.786       99.343        6.210       48.591       70.346       49.214     2361.125     4948.607     2421.975        1.061        0.487      107.014       47.159        0.194      349.434       29.858      861.984
08/13/2013  14:45:00      103.015       82.862        8.192       40.168       39.267       34.647     1613.431     1541.860     1200.436        1.095        0.218      132.205       20.895        0.025      349.304       29.633      861.974
08/13/2013  14:46:00       35.276      128.214      -13.233       53.576      123.008       31.878     2870.379    15130.900     1016.232        1.843        0.951      132.978       31.502        0.056      349.390       29.781      861.953
08/13/2013  14:47:00       14.618      175.071      -17.612       45.925       72.263       38.255     2109.147     5221.877     1463.476        1.998        0.440      175.680       38.611        0.048      349.260       29.556      861.938
08/13/2013  14:48:00      -43.533      152.131      -15.820       56.747       86.534       45.028     3220.268     7488.135     2027.521        1.901        0.637      158.237       33.665        0.045      349.361       29.732      861.891
08/13/2013  14:49:00       24.944      194.079      -14.628       57.216       92.038       51.164     3273.632     8471.033     2617.764        2.643        0.718      195.675       46.785        0.057      349.350       29.710      861.873
08/13/2013  14:50:00       51.863      135.720      -12.019      133.583       62.761       37.345    17844.495     3938.895     1394.627        2.221        1.159      145.292       52.366        0.130      349.203       29.456      861.850
08/13/2013  14:51:00      157.261      116.087       48.139       99.823       67.994       61.686     9964.660     4623.229     3805.201        2.946        0.920      195.467       58.179        0.089      349.265       29.563      861.825
08/13/2013  14:52:00      172.028      103.567       21.294       59.456       52.495       45.530     3534.975     2755.727     2073.014        2.457        0.418      200.798       23.976        0.014      349.341       29.696      861.814
08/13/2013  14:53:00       76.368       88.488       69.494       74.622       69.379       56.139     5568.405     4813.399     3151.634        1.601        0.677      116.886       42.899        0.135      349.585       30.120      861.795
08/13/2013  14:54:00       30.719       -1.554       80.784       53.251       71.885       45.442     2835.628     5167.415     2064.952        0.877        0.503       30.758       33.624        1.195      349.509       29.989      861.776
08/13/2013  14:55:00      100.137      104.947       99.846       79.265       78.232       81.499     6282.935     6120.212     6642.160        2.502        0.952      145.056       75.733        0.273      349.122       29.316      861.773
08/13/2013  14:56:00       57.497       43.282       60.456       66.742       70.233       47.204     4454.493     4932.705     2228.246        1.022        0.581       71.967       35.768        0.247      349.578       30.107      861.754
08/13/2013  14:57:00       50.092      -61.314       38.848       78.689      124.376       75.878     6191.964    15469.435     5757.528        1.759        1.371       79.174       69.066        0.761      349.644       30.223      861.745
08/13/2013  14:58:00       60.744       56.412       95.489       90.491       85.410       67.312     8188.651     7294.945     4530.889        1.800        1.001       82.899       66.980        0.653      349.323       29.666      861.739
08/13/2013  14:59:00      101.005     -169.715        1.199      101.382      121.200       68.962    10278.404    14689.483     4755.730        3.436        1.486      197.497       77.629        0.154      349.554       30.063      861.732
08/13/2013  15:00:00       40.078       43.742       75.645       62.576       76.509       57.909     3915.801     5853.576     3353.484        1.118        0.656       59.326       53.660        0.818      349.400       29.799      861.755
08/13/2013  15:01:00       28.105       22.431       65.124       50.586       42.970       28.123     2558.902     1846.434      790.913        0.536        0.260       35.959       19.566        0.296      349.636       30.210      861.744
08/13/2013  15:02:00       16.043       15.568       17.501       35.048       37.565       32.871     1228.370     1411.111     1080.490        0.226        0.186       22.355       15.465        0.479      349.657       30.246      861.720
08/13/2013  15:03:00       55.573       -0.087       57.154       61.801       54.471       46.683     3819.423     2967.082     2179.345        0.766        0.448       55.574       37.711        0.460      349.566       30.089      861.696
08/13/2013  15:04:00       26.319      -35.589        6.237       54.537       72.360       48.570     2974.325     5236.035     2359.052        0.628        0.528       44.263       50.835        1.319      349.322       29.665      861.692
08/13/2013  15:05:00       48.550     -140.518       -8.928       58.437       55.564       31.765     3414.934     3087.403     1008.993        1.485        0.376      148.669       22.761        0.023      349.544       30.049      861.705
08/13/2013  15:06:00       98.100     -151.654      -10.525       70.007      112.674       66.488     4900.939    12695.371     4420.612        2.737        1.101      180.617       70.391        0.152      349.610       30.161      861.698
08/13/2013  15:07:00       82.648     -116.613       -3.717       73.659      104.347       61.200     5425.590    10888.369     3745.478        2.025        1.003      142.931       72.764        0.259      349.567       30.088      861.680
08/13/2013  15:08:00       24.532      -51.073        3.915       59.382       90.084       64.406     3526.225     8115.097     4148.070        0.950        0.789       56.660       65.097        1.320      349.759       30.424      861.688
08/13/2013  15:09:00       25.340      -13.063       -2.968       54.262       38.923       31.893     2944.346     1514.989     1017.139        0.315        0.274       28.509       26.522        0.865      349.121       29.317      861.677
08/13/2013  15:10:00       -6.234       13.020       26.032       42.130       48.164       37.838     1774.915     2319.817     1431.719        0.321        0.276       14.436       29.104        4.065      349.675       30.278      861.649
08/13/2013  15:11:00       33.679      -50.215       62.431       81.213       66.991       57.015     6595.552     4487.735     3250.732        1.094        0.717       60.463       49.828        0.679      349.719       30.353      861.609
08/13/2013  15:12:00      161.103     -144.930      -11.258      112.459      121.382       95.363    12647.065    14733.629     9094.124        4.177        1.824      216.700       96.463        0.198      349.633       30.203      861.551
08/13/2013  15:13:00       58.566     -111.950       23.506       58.145      103.559       71.731     3380.814    10724.479     5145.388        1.788        0.963      126.344       58.221        0.212      349.833       30.550      861.534
08/13/2013  15:14:00       79.833     -117.889        1.404       71.015      105.959       64.499     5043.090    11227.359     4160.076        2.035        1.022      142.377       63.504        0.199      349.715       30.344      861.542
08/13/2013  15:15:00       75.185      -84.923        6.083       41.780       48.977       28.796     1745.532     2398.718      829.238        0.894        0.249      113.423       28.474        0.063      349.575       30.103      861.549
08/13/2013  15:16:00      -82.724      -53.008        3.088       60.135       45.736       36.330     3616.175     2091.827     1319.895        0.834        0.351       98.250       20.329        0.043      349.714       30.345      861.526
08/13/2013  15:17:00      -64.345      -48.004        7.183       63.406       31.248       25.719     4020.344      976.438      661.469        0.608        0.283       80.279       21.578        0.072      349.730       30.372      861.509
08/13/2013  15:18:00        1.234      -22.749       17.436       21.920       28.433       21.179      480.469      808.451      448.550        0.128        0.087       22.782       19.009        0.696      349.795       30.486      861.502
08/13/2013  15:19:00       45.232      -63.926        5.143       65.705       50.023       39.197     4317.152     2502.349     1536.367        0.726        0.418       78.310       39.220        0.251      349.603       30.153      861.476
08/13/2013  15:20:00       29.762      -47.012       25.640       42.283       59.145       41.491     1787.886     3498.128     1721.541        0.538        0.350       55.641       31.055        0.312      349.835       30.555      861.468
08/13/2013  15:21:00       36.643      -64.973       29.341       73.188      109.032       72.381     5356.534    11887.937     5238.978        1.445        1.124       74.594       61.419        0.678      349.871       30.615      861.434
08/13/2013  15:22:00      -30.064     -175.773       -1.304       93.574      133.372       46.856     8756.036    17788.175     2195.492        3.027        1.437      178.326       52.368        0.086      349.627       30.191      861.454
08/13/2013  15:23:00        6.563      -68.317       50.575       69.770      104.652       54.714     4867.849    10951.957     2993.599        1.304        0.941       68.631       59.992        0.764      349.922       30.705      861.449
08/13/2013  15:24:00       45.642     -215.635      -14.696      111.260      108.690       64.861    12378.700    11813.599     4206.984        3.859        1.420      220.412       52.107        0.056      349.727       30.363      861.441
08/13/2013  15:25:00       83.481     -117.525       29.924       72.143      161.365       71.655     5204.662    26038.550     5134.460        2.902        1.819      144.157       94.716        0.432      349.643       30.220      861.442
08/13/2013  15:26:00      121.715     -149.555       -0.786      117.933      173.063       71.710    13908.302    29950.940     5142.327        4.308        2.450      192.825       94.153        0.238      349.873       30.619      861.410
08/13/2013  15:27:00       87.704     -139.312      -15.756       90.116      117.840       75.968     8120.940    13886.381     5771.104        2.756        1.389      164.620       72.587        0.194      349.645       30.223      861.402
08/13/2013  15:28:00      112.322     -122.313      -16.109       66.184       84.469       62.700     4380.332     7134.995     3931.292        2.164        0.772      166.062       50.407        0.092      349.498       29.969      861.431
08/13/2013  15:29:00       20.197      -11.542       26.873       32.313       37.632       27.751     1044.122     1416.200      770.106        0.225        0.162       23.262       14.856        0.408      349.596       30.139      861.432
08/13/2013  15:30:00      -22.310      -33.610        7.020       40.345       48.267       24.347     1627.715     2329.737      592.794        0.311        0.228       40.341       22.933        0.323      349.776       30.453      861.409
08/13/2013  15:31:00      -82.288      -17.757      -14.633       55.200       25.303       23.622     3047.031      640.251      557.991        0.577        0.212       84.182       29.247        0.121      349.605       30.155      861.399
08/13/2013  15:32:00      -71.895        0.437        7.405       42.718       35.918       19.390     1824.827     1290.070      375.988        0.436        0.175       71.896        5.325        0.005      350.033       30.897      861.389
08/13/2013  15:33:00      -69.962       18.158       -3.656       30.493       37.731       19.262      929.809     1423.618      371.028        0.398        0.136       72.280       17.166        0.056      349.939       30.738      861.374
08/13/2013  15:34:00      -62.768       -9.906        5.986       30.242       33.647       18.748      914.603     1132.127      351.489        0.324        0.120       63.545       15.610        0.060      349.790       30.476      861.365
08/13/2013  15:35:00       10.677       -2.220       27.937       25.662       30.309       24.857      658.526      918.627      617.871        0.155        0.110       10.906       21.605        3.925      349.244       29.530      861.365
08/13/2013  15:36:00      -14.796       -0.358       -2.546       29.657       22.643       27.287      879.528      512.695      744.575        0.118        0.107       14.801       16.455        1.236      349.647       30.229      861.364
08/13/2013  15:37:00      -43.406      -18.286       -1.344       43.622       41.881       33.748     1902.859     1754.048     1138.934        0.351        0.240       47.100       16.530        0.123      349.882       30.636      861.365
08/13/2013  15:38:00      -69.918      -68.278        2.148       81.881       42.995       27.338     6704.453     1848.576      747.340        0.943        0.465       97.726       30.904        0.100      350.032       30.898      861.373
08/13/2013  15:39:00     -186.088     -113.509       -2.572       82.332       63.715       39.812     6778.542     4059.656     1584.965        2.997        0.621      217.975       34.749        0.025      349.881       30.633      861.375
08/13/2013  15:40:00     -189.499     -148.556       -8.995       82.282       58.867       43.965     6770.343     3465.349     1932.878        3.511        0.608      240.788       38.418        0.025      349.728       30.364      861.356
08/13/2013  15:41:00     -245.232      -33.014      -14.025      109.380       82.049       50.194    11963.954     6732.103     2519.427        4.132        1.061      247.444       54.022        0.048      349.748       30.400      861.317
08/13/2013  15:42:00     -217.338      -31.592       -1.975      109.948      108.450       53.516    12088.645    11761.469     2863.958        3.747        1.336      219.622       54.289        0.061      350.180       31.150      861.279
08/13/2013  15:43:00     -410.082     -165.557       -8.608      196.327      128.302       87.977    38544.199    16461.351     7740.021       12.919        3.137      442.240       73.007        0.027      349.956       30.762      861.278
08/13/2013  15:44:00     -357.011     -110.692       -3.797      175.686      139.698       59.173    30865.433    19515.461     3501.480        9.679        2.694      373.778       63.172        0.029      349.880       30.631      861.290
08/13/2013  15:45:00     -209.423       25.489      -24.567      156.498      128.147       68.618    24491.707    16421.771     4708.375        4.536        2.281      210.968       59.678        0.080      350.196       31.178      861.277
08/13/2013  15:46:00     -122.550      -64.733       12.391       76.370       71.932       43.163     5832.411     5174.202     1863.035        1.611        0.643      138.596       39.932        0.083      350.278       31.324      861.287
08/13/2013  15:47:00     -282.461      -91.065       -6.366      126.103      138.050       73.016    15901.950    19057.826     5331.273        6.420        2.015      296.778       61.705        0.043      350.097       31.007      861.283
08/13/2013  15:48:00     -278.031     -264.266        0.191      157.827      145.712       82.101    24909.415    21232.070     6740.495       10.000        2.644      383.586       93.560        0.059      349.762       30.425      861.275
08/13/2013  15:49:00     -261.489     -182.237       -5.926      111.833       71.420       61.995    12506.701     5100.774     3843.371        6.153        1.073      318.727       59.635        0.035      349.756       30.413      861.283
08/13/2013  15:50:00     -159.549      -97.311       -5.013       96.275       50.379       31.542     9268.823     2538.029      994.921        2.387        0.640      186.883       26.897        0.021      349.664       30.256      861.264
08/13/2013  15:51:00      -52.024      -20.606       18.748       60.389       53.994       35.619     3646.772     2915.360     1268.710        0.566        0.392       55.956       29.987        0.287      349.963       30.777      861.243
08/13/2013  15:52:00      -54.235      -76.211       -9.150       80.709       39.310       29.795     6513.960     1545.253      887.747        0.889        0.447       93.539       29.443        0.099      349.821       30.530      861.253
08/13/2013  15:53:00     -270.121     -213.503        7.232      195.718      131.199       79.459    38305.486    17213.285     6313.693        9.021        3.092      344.309       97.781        0.081      349.836       30.553      861.254
08/13/2013  15:54:00     -247.225     -180.517       -6.530      129.305       94.719       57.694    16719.683     8971.604     3328.617        6.138        1.451      306.115       64.630        0.045      349.770       30.439      861.254
08/13/2013  15:55:00     -188.960     -184.753        9.382      138.034      135.408       69.751    19053.258    18335.231     4865.146        5.608        2.113      264.272       73.678        0.078      349.897       30.659      861.262
08/13/2013  15:56:00     -175.608     -186.685       -2.689      106.394      104.553       51.330    11319.734    10931.228     2634.738        4.529        1.244      256.300       51.895        0.041      349.893       30.652      861.234
08/13/2013  15:57:00     -193.459      -67.983      -25.210      116.452      126.223       59.279    13561.125    15932.195     3514.008        3.784        1.650      205.056       47.549        0.054      350.159       31.112      861.240
08/13/2013  15:58:00     -365.871       25.711      -34.410      119.053      112.745       70.537    14173.700    12711.514     4975.533        8.378        1.593      366.774       68.393        0.035      349.972       30.788      861.234
08/13/2013  15:59:00     -107.194      -57.888       13.749      127.079       86.945       55.762    16149.180     7559.436     3109.358        2.092        1.341      121.826       58.621        0.232      350.112       31.034      861.218
08/13/2013  16:00:00        8.358      -58.253        3.485       84.043       81.534       44.803     7063.300     6647.743     2007.330        0.959        0.786       58.850       28.027        0.227      350.160       31.119      861.234
08/13/2013  16:01:00      -94.345      -31.651       -0.003       79.051       59.507       39.177     6249.006     3541.102     1534.860        1.061        0.566       99.513       27.893        0.079      350.294       31.352      861.237
08/13/2013  16:02:00     -200.787      -70.534        3.730       81.856       83.247       47.548     6700.401     6930.071     2260.824        3.060        0.795      212.816       42.343        0.040      350.171       31.135      861.226
08/13/2013  16:03:00     -200.247      -24.814       -0.784       86.012       57.143       39.571     7398.107     3265.267     1565.878        2.647        0.611      201.779       41.291        0.042      350.001       30.841      861.224
08/13/2013  16:04:00     -187.666      -32.523       -6.315       50.431       53.419       33.067     2543.281     2853.642     1093.430        2.140        0.325      190.463       24.229        0.016      349.931       30.721      861.222
08/13/2013  16:05:00      -26.074      -80.238       -5.149       50.632       67.345       29.798     2563.603     4535.372      887.930        0.756        0.399       84.368       26.106        0.096      350.045       30.920      861.224
08/13/2013  16:06:00      -95.870      -81.057        6.980       73.861       57.251       32.771     5455.406     3277.678     1073.946        1.281        0.490      125.544       30.250        0.058      350.049       30.926      861.210
08/13/2013  16:07:00     -241.753     -146.573      -10.753      153.072       81.883       51.788    23431.129     6704.852     2682.004        5.643        1.641      282.716       56.420        0.040      349.870       30.612      861.175
08/13/2013  16:08:00     -255.117     -203.886      -19.044      172.436      118.176       71.087    29734.019    13965.670     5053.343        7.788        2.438      326.580       82.835        0.064      349.934       30.723      861.107
08/13/2013  16:09:00     -141.029     -287.223       15.653      125.419      212.929       71.546    15729.995    45338.764     5118.788        8.440        3.309      319.979       64.740        0.041      349.973       30.792      861.076
08/13/2013  16:10:00     -332.933     -259.102       10.176      172.019      150.669       84.398    29590.522    22701.207     7123.014       11.874        2.971      421.875       81.958        0.038      350.053       30.930      861.015
08/13/2013  16:11:00     -364.251     -117.985      -11.847      222.014      168.350       94.417    49290.099    28341.846     8914.557       11.663        4.327      382.883      100.999        0.070      350.116       31.039      861.038
08/13/2013  16:12:00     -327.540     -209.433        9.571      213.781      181.894       90.179    45702.398    33085.418     8132.216       11.906        4.346      388.774      107.019        0.076      349.964       30.774      861.043
08/13/2013  16:13:00     -340.782     -146.981       -8.228      176.808      158.349       90.548    31260.899    25074.483     8198.989       10.116        3.227      371.128       71.349        0.037      349.946       30.744      861.050
08/13/2013  16:14:00     -296.992      -84.190       -3.608      221.709      116.484       60.823    49155.049    13568.552     3699.380        8.085        3.321      308.694       75.930        0.061      350.085       30.987      861.052
08/13/2013  16:15:00     -251.821      -86.099       -0.275      176.362      158.742       85.073    31103.610    25199.031     7237.455        6.717        3.177      266.133       94.816        0.127      350.175       31.144      861.059
08/13/2013  16:16:00     -387.550      -69.516      -11.906      159.580      127.487       74.290    25465.793    16253.000     5519.051       10.120        2.362      393.735       81.676        0.043      350.111       31.030      861.058
08/13/2013  16:17:00     -293.131      -68.174       -8.001      138.560      138.316       64.910    19198.842    19131.282     4213.313        6.658        2.127      300.954       73.698        0.060      350.280       31.325      861.046
08/13/2013  16:18:00     -231.665        5.028        5.516      164.006      104.119       70.902    26898.086    10840.765     5027.109        4.824        2.138      231.719       77.432        0.112      350.406       31.546      861.034
08/13/2013  16:19:00     -319.132      -55.489      -33.087      163.677      118.404       69.626    26790.074    14019.449     4847.726        7.583        2.283      323.921       56.009        0.030      350.177       31.145      861.057
08/13/2013  16:20:00     -343.430       25.413      -31.466       68.013       65.967       49.302     4625.738     4351.594     2430.672        6.549        0.570      344.369       42.471        0.015      349.716       30.345      861.049
08/13/2013  16:21:00     -171.355       34.923       -9.587       72.623       62.413       37.436     5274.136     3895.335     1401.423        2.062        0.529      174.878       26.278        0.023      349.935       30.727      861.016
08/13/2013  16:22:00     -106.667        5.829       -1.986       86.726       59.181       41.107     7521.392     3502.444     1689.804        1.206        0.636      106.826       39.441        0.136      350.038       30.907      861.006
08/13/2013  16:23:00     -151.449      -46.684       17.613      228.837      107.845       55.195    52366.536    11630.478     3046.445        4.622        3.352      158.481       94.806        0.358      350.203       31.193      861.011
08/13/2013  16:24:00     -254.798      -64.693      -20.958      150.081       98.122       56.250    22524.185     9627.862     3164.077        5.243        1.766      262.882       70.106        0.071      350.182       31.154      861.002
08/13/2013  16:25:00     -231.903       52.767      -18.471      148.559       97.096       59.753    22069.892     9427.599     3570.478        4.598        1.753      237.831       47.771        0.040      350.300       31.361      861.017
08/13/2013  16:26:00     -331.786      -17.162      -14.261      151.499      108.292       75.672    22952.058    11727.095     5726.306        7.549        2.020      332.229       78.371        0.056      350.268       31.304      860.982
08/13/2013  16:27:00     -153.820      -68.754       16.424      120.799       88.158       59.324    14592.395     7771.850     3519.334        2.727        1.294      168.487       54.362        0.104      350.374       31.491      860.999
08/13/2013  16:28:00     -223.950     -110.415       -6.517      212.324       96.711       67.660    45081.671     9352.944     4577.835        6.069        2.951      249.690       82.892        0.110      350.060       30.943      860.992
08/13/2013  16:29:00     -305.214     -125.856        5.530      138.675      138.869       67.245    19230.626    19284.474     4521.909        7.602        2.152      330.145       57.436        0.030      350.052       30.928      860.970
08/13/2013  16:30:00     -411.788     -128.095      -28.537      189.683      129.686       74.336    35979.808    16818.566     5525.858       12.255        2.916      431.252       76.005        0.031      349.992       30.823      860.950
08/13/2013  16:31:00     -254.987      -92.355       -2.199      148.915      112.356       57.001    22175.608    12623.804     3249.065        5.579        1.902      271.197       61.160        0.051      350.036       30.901      860.939
08/13/2013  16:32:00     -331.561      -50.384      -18.968      130.388      113.928       67.761    17000.945    12979.566     4591.614        7.370        1.729      335.367       70.754        0.045      350.173       31.136      860.940
08/13/2013  16:33:00     -284.764     -111.744       -6.409      191.487      132.664       71.285    36667.257    17599.623     5081.536        7.647        2.967      305.903       83.947        0.075      350.140       31.081      860.939
08/13/2013  16:34:00     -318.516        3.750      -25.046      101.398       98.118       57.647    10281.491     9627.132     3323.172        6.266        1.162      318.538       59.088        0.034      350.045       30.915      860.932
08/13/2013  16:35:00     -277.265      -97.855      -26.356      159.137      110.028       69.906    25324.659    12106.261     4886.905        6.472        2.116      294.026       61.004        0.043      350.211       31.204      860.916
08/13/2013  16:36:00     -282.822      -39.762      -13.119      106.003      146.615       51.214    11236.714    21495.914     2622.907        5.854        1.768      285.603       38.307        0.018      350.170       31.133      860.931
08/13/2013  16:37:00     -172.580       -8.651        0.039       89.931       60.581       45.509     8087.570     3670.113     2071.087        2.184        0.691      172.797       45.623        0.070      350.395       31.526      860.929
08/13/2013  16:38:00     -188.459      -75.622       -7.363       97.822       92.823       52.569     9569.089     8616.082     2763.461        3.112        1.047      203.066       41.008        0.041      350.483       31.680      860.921
08/13/2013  16:39:00     -333.850      -90.715       -8.023      209.903      150.647       67.787    44059.198    22694.452     4595.102        9.554        3.567      345.956       66.862        0.037      350.345       31.438      860.925
08/13/2013  16:40:00     -317.320      -34.680      -19.133      139.451      129.595       70.989    19446.605    16794.776     5039.395        7.176        2.064      319.209       67.631        0.045      350.297       31.355      860.941
08/13/2013  16:41:00     -169.389      -54.600        6.658       95.321       78.945       52.522     9086.067     6232.342     2758.567        2.489        0.904      177.971       47.008        0.070      350.166       31.128      860.945
08/13/2013  16:42:00     -192.042      -31.447       -9.824       71.925      102.296       49.350     5173.214    10464.387     2435.382        2.802        0.904      194.600       15.370        0.006      350.195       31.177      860.927
08/13/2013  16:43:00     -273.167      -20.674      -20.585      176.761      109.918       45.438    31244.413    12082.067     2064.597        6.042        2.270      273.948       67.315        0.060      350.150       31.099      860.914
08/13/2013  16:44:00     -135.316      -26.579       -1.403      104.918       63.582       41.866    11007.712     4042.677     1752.733        1.791        0.840      137.902       46.279        0.113      350.122       31.051      860.907
08/13/2013  16:45:00     -441.530     -113.929      -20.373      153.047      140.552       62.448    23423.240    19754.983     3899.813       12.770        2.354      455.992       55.843        0.015      350.173       31.139      860.905
08/13/2013  16:46:00     -513.158     -128.741      -34.451      150.276      135.149       62.203    22582.921    18265.342     3869.188       16.290        2.236      529.061       36.596        0.005      349.662       30.251      860.891
08/13/2013  16:47:00     -205.855     -134.345       11.723      174.083      100.550       69.935    30304.885    10110.204     4890.888        5.293        2.265      245.815       70.300        0.082      349.930       30.719      860.885
08/13/2013  16:48:00     -206.164      -91.085       -0.736      169.665       91.794       66.036    28786.293     8426.208     4360.734        4.618        2.079      225.389       69.850        0.096      349.909       30.680      860.904
08/13/2013  16:49:00      -90.658      -68.338        7.901       97.218       78.171       58.735     9451.251     6110.758     3449.816        1.598        0.951      113.529       48.040        0.179      349.975       30.796      860.895
08/13/2013  16:50:00     -163.126      -98.860        5.641      145.949      101.573       60.866    21301.088    10317.009     3704.680        3.586        1.766      190.744       59.817        0.098      349.901       30.667      860.866
08/13/2013  16:51:00      -96.460       36.933       15.100       92.014       85.097       47.387     8466.628     7241.537     2245.540        1.442        0.898      103.289       47.746        0.214      350.063       30.951      860.843
08/13/2013  16:52:00     -123.318      160.790      -29.838       67.335       80.492       41.600     4533.960     6478.882     1730.589        2.735        0.637      202.634       32.907        0.026      349.858       30.591      860.850
08/13/2013  16:53:00     -140.252      208.577      -22.554       68.433      100.000       51.824     4683.043    10000.051     2685.679        4.052        0.868      251.347       57.010        0.051      349.835       30.551      860.834
08/13/2013  16:54:00     -162.514      138.760      -27.766       75.527       58.689       39.943     5704.371     3444.347     1595.483        2.859        0.537      213.694       36.282        0.029      349.794       30.479      860.817
08/13/2013  16:55:00     -197.623       78.026      -20.609      128.636      101.252       54.014    16547.159    10252.015     2917.459        3.764        1.486      212.469       53.209        0.063      349.937       30.729      860.813
08/13/2013  16:56:00     -350.785      -96.029      -18.069      152.711      119.050       60.341    23320.556    14172.901     3641.011        8.686        2.057      363.691       65.748        0.033      350.084       30.984      860.806
08/13/2013  16:57:00     -298.191        6.040      -23.894      123.187       77.802       54.516    15175.151     6053.162     2972.044        5.686        1.210      298.252       60.612        0.041      350.036       30.899      860.821
08/13/2013  16:58:00     -314.449       89.376      -39.692      145.514      118.149       77.664    21174.389    13959.303     6031.633        7.480        2.058      326.905       79.171        0.059      349.987       30.814      860.797
08/13/2013  16:59:00     -335.180      -34.305      -24.680       98.871      121.422       55.759     9775.566    14743.382     3109.068        7.088        1.381      336.931       46.163        0.019      350.060       30.943      860.771
08/13/2013  17:00:00     -199.227      -67.858      -20.978      118.910       59.169       50.901    14139.694     3500.954     2590.864        3.248        1.012      210.467       58.314        0.077      350.035       30.899      860.758
08/13/2013  17:01:00     -174.708     -178.100       -2.189      135.219       91.747       50.694    18284.146     8417.438     2569.886        4.575        1.464      249.484       43.313        0.030      349.923       30.706      860.746
08/13/2013  17:02:00     -219.889     -114.257       -6.201       86.050       89.476       44.863     7404.666     8005.950     2012.679        3.943        0.871      247.802       36.179        0.021      349.866       30.606      860.778
08/13/2013  17:03:00     -330.263      -93.779       -9.572      227.932      103.945       64.276    51952.776    10804.513     4131.342        9.241        3.344      343.320       77.293        0.051      350.055       30.935      860.782
08/13/2013  17:04:00     -293.921     -209.219       -2.357      162.809      115.583       81.376    26506.846    13359.383     6622.077        8.832        2.324      360.780       86.273        0.057      349.952       30.755      860.784
08/13/2013  17:05:00     -342.007     -214.266       -5.183      172.074      133.567       84.293    29609.611    17840.012     7105.310       10.872        2.728      403.582       86.120        0.046      349.919       30.698      860.765
08/13/2013  17:06:00     -266.191     -183.693        1.903      183.052      120.320       76.643    33507.884    14476.807     5874.177        7.922        2.693      323.421       94.180        0.085      349.981       30.805      860.763
08/13/2013  17:07:00     -177.429     -131.754        6.183      141.442      109.032       65.681    20005.789    11887.978     4313.982        4.254        1.810      220.998       72.530        0.108      350.108       31.026      860.771
08/13/2013  17:08:00     -247.962     -250.694        8.268      188.180      157.757       91.877    35411.881    24887.353     8441.300        9.656        3.437      352.608      104.810        0.088      349.991       30.823      860.757
08/13/2013  17:09:00     -266.652     -167.887      -12.042      163.151       90.583       69.383    26618.154     8205.324     4814.043        6.953        1.982      315.102       82.188        0.068      349.961       30.770      860.768
08/13/2013  17:10:00     -143.783        2.846       -5.808       87.554       56.842       44.324     7665.773     3230.968     1964.656        1.679        0.643      143.811       45.755        0.101      349.991       30.824      860.761
08/13/2013  17:11:00      -60.889      -81.827       17.244       78.251       70.949       45.095     6123.145     5033.699     2033.600        1.194        0.660      101.996       39.518        0.150      350.019       30.873      860.733
08/13/2013  17:12:00     -272.980      -93.759      -26.265      111.076      132.297       61.559    12337.896    17502.574     3789.505        5.881        1.681      288.632       53.416        0.034      350.001       30.839      860.724
08/13/2013  17:13:00     -359.205     -215.335      -17.330      140.837      134.175       66.060    19835.161    18002.868     4363.872       10.894        2.110      418.805       63.633        0.023      349.995       30.827      860.766
08/13/2013  17:14:00     -482.371     -185.656      -28.845      142.602      118.846       69.130    20335.215    14124.329     4778.946       15.360        1.962      516.866       75.265        0.021      349.828       30.540      860.775
08/13/2013  17:15:00     -289.031      -20.603        4.141      168.208      123.309       65.080    28294.091    15205.037     4235.457        6.585        2.387      289.764       84.622        0.085      350.089       30.994      860.770
08/13/2013  17:16:00     -284.789      -71.461      -10.890      172.307      125.000       58.015    29689.562    15625.075     3365.756        6.750        2.434      293.618       56.367        0.037      350.112       31.033      860.780
08/13/2013  17:17:00     -505.568     -145.699      -25.354      179.736      138.411       83.976    32305.169    19157.696     7052.005       16.798        2.926      526.144       84.284        0.026      349.840       30.559      860.770
08/13/2013  17:18:00     -354.231     -226.758      -16.601      208.043      135.526       86.249    43281.959    18367.293     7438.924       12.312        3.454      420.593       90.230        0.046      349.895       30.655      860.768
08/13/2013  17:19:00     -404.763      -99.430      -17.378      134.194      105.495       60.583    18007.935    11129.200     3670.316       10.341        1.640      416.796       54.321        0.017      349.911       30.683      860.797
08/13/2013  17:20:00     -248.278     -122.086       -4.321      127.423       93.483       52.340    16236.625     8739.104     2739.467        5.214        1.386      276.671       55.157        0.040      349.971       30.788      860.822
08/13/2013  17:21:00     -174.980     -190.018        8.148      128.792       91.856       59.480    16587.434     8437.543     3537.858        4.767        1.428      258.312       59.865        0.054      349.896       30.657      860.811
08/13/2013  17:22:00     -279.029      -53.283       -3.755      163.052       79.913       57.732    26585.935     6386.118     3332.982        5.850        1.815      284.071       50.963        0.032      350.010       30.854      860.810
08/13/2013  17:23:00     -484.781      -28.881      -42.380      161.836      112.358       81.391    26190.949    12624.378     6624.568       14.153        2.272      485.640       94.529        0.038      349.906       30.674      860.816
08/13/2013  17:24:00     -318.023     -138.334       -4.334      154.347      114.494       64.980    23822.935    13108.786     4222.354        8.072        2.058      346.807       73.773        0.045      350.058       30.936      860.807
08/13/2013  17:25:00     -311.707      -76.737        3.198      130.047      125.269       62.916    16912.299    15692.357     3958.482        6.981        1.828      321.013       63.355        0.039      350.051       30.925      860.818
08/13/2013  17:26:00      -90.064      -74.406        4.427       91.811       93.804       49.491     8429.292     8799.139     2449.369        1.667        0.984      116.824       41.624        0.127      350.161       31.121      860.842
08/13/2013  17:27:00     -184.758      -55.737        3.939      131.127       87.041       50.503    17194.239     7576.216     2550.534        3.228        1.366      192.982       50.643        0.069      350.180       31.151      860.849
08/13/2013  17:28:00     -233.253       40.838       -8.561      135.738      103.398       60.473    18424.821    10691.076     3657.027        4.446        1.639      236.801       58.458        0.061      350.231       31.241      860.857
08/13/2013  17:29:00     -444.327     -115.970      -10.130      188.419      142.309       79.413    35501.794    20251.900     6306.503       13.651        3.103      459.212       83.243        0.033      350.056       30.936      860.869
08/13/2013  17:30:00     -337.602      -16.720      -12.048      244.500      143.678      101.155    59780.369    20643.305    10232.322       10.251        4.533      338.016      130.059        0.148      349.989       30.819      860.874
08/13/2013  17:31:00     -310.655     -109.791       -9.520      193.162      113.703       92.112    37311.578    12928.271     8484.661        8.368        2.936      329.485       99.131        0.091      349.958       30.766      860.862
08/13/2013  17:32:00     -216.405     -105.785       18.032      140.800      160.408       82.701    19824.751    25730.761     6839.392        5.536        2.620      240.876       81.482        0.114      349.968       30.784      860.882
08/13/2013  17:33:00     -322.519     -162.960      -26.480      177.113      120.829       72.542    31369.050    14599.545     5262.366        9.124        2.562      361.351       85.598        0.056      349.845       30.568      860.909
08/13/2013  17:34:00     -115.129     -147.268       22.123      194.099      147.233       91.534    37674.500    21677.671     8378.547        5.157        3.387      186.929      104.474        0.312      349.852       30.582      860.894
08/13/2013  17:35:00     -450.872     -171.575      -20.792      161.384      153.470       70.271    26044.658    23553.006     4938.055       14.384        2.727      482.414       79.232        0.027      349.774       30.444      860.894
08/13/2013  17:36:00     -243.372      -67.528       -0.277      203.830      107.632       62.003    41546.695    11584.555     3844.393        6.037        2.849      252.567       75.340        0.089      349.847       30.574      860.898
08/13/2013  17:37:00     -322.502      -53.421      -41.197      138.557      113.963       50.032    19198.109    12987.609     2503.247        7.162        1.734      326.896       44.598        0.019      349.960       30.769      860.896
08/13/2013  17:38:00     -417.644      -86.800      -16.468      176.352      131.120       73.918    31099.904    17192.425     5463.872       11.799        2.688      426.569       64.248        0.023      349.861       30.597      860.888
08/13/2013  17:39:00     -460.446       20.110      -23.153      148.822      128.564       79.412    22147.841    16528.666     6306.328       12.896        2.249      460.884       67.230        0.021      349.679       30.281      860.893
08/13/2013  17:40:00     -499.603     -135.583      -36.773      108.477      150.225       62.908    11767.331    22567.583     3957.438       15.381        1.915      517.673       51.857        0.010      349.734       30.374      860.888
08/13/2013  17:41:00     -351.328      -67.760       -7.537      131.083      100.510       52.238    17182.787    10102.342     2728.831        7.904        1.501      357.802       51.753        0.021      349.726       30.362      860.896
08/13/2013  17:42:00     -245.647      -70.757        5.174      148.214      106.937       56.600    21967.459    11435.581     3203.583        5.099        1.830      255.635       72.362        0.080      349.890       30.646      860.894
08/13/2013  17:43:00     -151.770      -28.412        9.582      116.936      124.491       64.211    13674.103    15497.894     4123.084        2.861        1.665      154.406       49.707        0.104      349.867       30.608      860.884
08/13/2013  17:44:00     -156.016      120.343      -22.679      108.580      120.590       57.971    11789.526    14541.897     3360.652        3.451        1.485      197.037       41.808        0.045      349.830       30.543      860.886
08/13/2013  17:45:00     -227.994       14.670      -19.685      122.789       87.241       49.634    15077.078     7611.047     2463.487        3.886        1.258      228.466       49.925        0.048      349.949       30.749      860.880
08/13/2013  17:46:00     -400.665      -80.885      -21.121      160.372       97.154       68.961    25719.339     9438.950     4755.683       10.371        1.996      408.748       62.227        0.023      349.979       30.799      860.897
08/13/2013  17:47:00     -498.803     -101.780      -23.871      173.209      140.771       74.558    30001.215    19816.436     5558.878       15.755        2.769      509.081       75.771        0.022      349.835       30.551      860.891
08/13/2013  17:48:00     -261.207      -50.189        3.004      169.956      119.867       73.892    28884.914    14368.020     5460.058        5.973        2.436      265.985       81.663        0.094      349.957       30.764      860.885
08/13/2013  17:49:00     -260.025      -42.221       -1.446      141.295       74.292       60.894    19964.279     5519.247     3708.049        4.929        1.460      263.431       71.805        0.074      349.868       30.607      860.885
08/13/2013  17:50:00     -395.209      -27.169      -31.547      165.048      152.172       69.695    27240.781    23156.450     4857.356       10.658        2.763      396.142       72.851        0.034      349.824       30.532      860.875
08/13/2013  17:51:00     -275.823      -33.865       -1.727      137.359      116.150       65.368    18867.487    13490.740     4272.971        5.692        1.832      277.895       56.872        0.042      349.939       30.732      860.865
08/13/2013  17:52:00     -500.857      -83.329      -22.105      215.638      134.204       81.635    46499.774    18010.812     6664.295       16.472        3.559      507.742       88.321        0.030      349.797       30.485      860.874
08/13/2013  17:53:00     -348.391      -23.781       -2.865      174.295      187.468       86.147    30378.899    35144.256     7421.350        9.743        3.647      349.201       80.758        0.053      349.810       30.508      860.865
08/13/2013  17:54:00     -376.620      -79.674        2.292      194.835      131.005       80.119    37960.864    17162.367     6419.089       10.486        3.077      384.955       87.913        0.052      349.690       30.300      860.883
08/13/2013  17:55:00     -231.771      -71.040        0.660      133.094      150.123       70.998    17714.112    22536.830     5040.778        5.202        2.265      242.414       78.100        0.104      349.771       30.441      860.886
08/13/2013  17:56:00     -382.598     -170.263      -12.818      171.157      140.673       76.903    29294.890    19788.953     5914.085       11.526        2.750      418.773       64.286        0.024      349.689       30.298      860.870
08/13/2013  17:57:00     -454.447      -50.433      -33.430      203.380      110.242       73.526    41363.285    12153.247     5406.079       13.454        2.946      457.236       87.580        0.037      349.657       30.242      860.880
08/13/2013  17:58:00     -407.897     -102.891      -10.786      163.623      144.484       76.651    26772.439    20875.505     5875.375       11.529        2.676      420.674       84.677        0.041      349.719       30.349      860.873
08/13/2013  17:59:00     -503.639     -152.381      -23.269      137.794      146.763       60.763    18987.302    21539.523     3692.177       16.081        2.211      526.186       54.465        0.011      349.663       30.250      860.857
08/13/2013  18:00:00     -347.657     -138.067      -13.225      217.589      123.081       74.943    47344.811    15148.880     5616.434       10.410        3.406      374.070       89.609        0.057      349.653       30.235      860.860
08/13/2013  18:01:00     -223.511     -142.397        5.123      161.600       89.326       63.552    26114.683     7979.193     4038.868        5.419        1.907      265.017       68.094        0.066      349.761       30.423      860.862
08/13/2013  18:02:00     -273.158      -54.708       -9.289      117.921      117.330       51.867    13905.463    13766.410     2690.138        5.402        1.518      278.583       60.200        0.047      349.784       30.460      860.853
08/13/2013  18:03:00     -152.955      -46.416        7.150      121.510       64.598       47.893    14764.616     4172.877     2293.773        2.341        1.062      159.842       47.393        0.088      349.931       30.718      860.836
08/13/2013  18:04:00     -195.819      -13.619       13.816      110.493      100.574       56.974    12208.709    10115.065     3245.982        3.214        1.278      196.292       50.418        0.066      349.904       30.671      860.840
08/13/2013  18:05:00     -138.502     -108.209       18.418      181.646      104.162       70.980    32995.250    10849.627     5038.222        4.005        2.444      175.761       78.558        0.200      349.737       30.383      860.827
08/13/2013  18:06:00     -302.994      -73.409       -6.710      158.251      100.543       55.142    25043.245    10108.920     3040.640        6.771        1.910      311.760       48.671        0.024      349.827       30.536      860.826
08/13/2013  18:07:00     -350.822     -105.365      -25.284      145.259      133.352       64.372    21100.173    17782.798     4143.750        8.891        2.151      366.303       69.355        0.036      349.688       30.295      860.822
08/13/2013  18:08:00     -208.495     -106.466       -3.322      156.851      106.326       73.197    24602.247    11305.168     5357.778        4.803        2.063      234.106       74.970        0.103      349.701       30.320      860.803
08/13/2013  18:09:00     -323.923      -73.685      -18.050      188.580      100.410       58.770    35562.577    10082.089     3453.897        7.988        2.455      332.199       68.878        0.043      349.734       30.376      860.806
08/13/2013  18:10:00     -257.857      -52.759       -5.037      140.491      162.173       84.063    19737.698    26299.991     7066.543        6.119        2.655      263.199       79.931        0.092      349.702       30.318      860.811
08/13/2013  18:11:00     -369.023      -24.965      -25.019      157.482      126.440       60.382    24800.439    15986.956     3646.026        9.092        2.222      369.866       64.718        0.031      349.724       30.358      860.805
08/13/2013  18:12:00     -278.769     -110.171        9.223      168.330      152.182       80.740    28335.029    23159.216     6518.929        7.396        2.901      299.750       83.943        0.078      349.676       30.277      860.805
08/13/2013  18:13:00     -412.513      -22.221      -36.725      140.528      128.828       59.861    19748.046    16596.596     3583.290       10.596        1.996      413.111       58.889        0.020      349.637       30.209      860.811
08/13/2013  18:14:00     -249.430      -87.232      -18.439      146.327      102.579       57.788    21411.504    10522.458     3339.426        5.271        1.764      264.244       57.022        0.047      349.741       30.388      860.820
08/13/2013  18:15:00     -398.539      -99.542       -6.620      199.390      152.832       83.387    39756.526    23357.757     6953.363       11.942        3.503      410.782       95.700        0.054      349.592       30.131      860.803
08/13/2013  18:16:00     -324.642     -130.651       -7.777      180.433      126.824       74.504    32555.944    16084.377     5550.783        8.835        2.710      349.945       87.390        0.062      349.572       30.095      860.805
08/13/2013  18:17:00     -217.452      -56.485        6.370      146.856      125.245       63.074    21566.550    15686.281     3978.296        4.587        2.062      224.669       66.325        0.087      349.620       30.178      860.800
08/13/2013  18:18:00     -499.971       40.715      -41.697      136.556      143.753       68.509    18647.412    20664.914     4693.503       14.868        2.200      501.626       69.703        0.019      349.588       30.123      860.831
08/13/2013  18:19:00     -553.188       -9.215      -35.550      215.122      201.208       85.267    46277.660    40484.577     7270.540       20.068        4.702      553.265       91.719        0.027      349.521       30.007      860.797
08/13/2013  18:20:00     -428.864      -52.639      -29.852      162.866      134.890       80.878    26525.341    18195.354     6541.268       11.942        2.563      432.082       83.779        0.038      349.567       30.086      860.827
08/13/2013  18:21:00     -343.799      -62.950      -11.727      157.520      147.671       72.442    24812.635    21806.611     5247.823        8.707        2.593      349.514       68.454        0.038      349.564       30.081      860.842
08/13/2013  18:22:00     -367.661     -105.989       -4.805      199.527      162.197       91.724    39810.991    26307.973     8413.225       11.047        3.727      382.634      107.253        0.079      349.514       29.994      860.845
08/13/2013  18:23:00     -427.845     -325.641       -6.091      220.515      155.884      103.698    48626.663    24299.837    10753.265       18.639        4.184      537.675      116.011        0.047      349.359       29.725      860.820
08/13/2013  18:24:00     -361.445     -197.274      -10.877      165.651      165.588       86.705    27440.331    27419.326     7517.843       11.602        3.119      411.776       90.588        0.048      349.384       29.769      860.828
08/13/2013  18:25:00     -240.158      -69.287       -1.786      150.661       97.439       57.831    22698.612     9494.389     3344.466        4.900        1.777      249.953       57.147        0.052      349.487       29.948      860.829
08/13/2013  18:26:00     -289.880     -133.292       -2.628      117.347      127.679       77.683    13770.372    16302.037     6034.629        6.895        1.805      319.057       59.977        0.035      349.416       29.825      860.834
08/13/2013  18:27:00     -408.484      -37.007      -30.171      174.363      174.753       85.633    30402.310    30538.537     7333.035       11.870        3.414      410.157       81.258        0.039      349.421       29.834      860.830
08/13/2013  18:28:00     -495.983     -160.195       -4.822      183.226      167.315       80.446    33571.886    27994.415     6471.535       16.985        3.402      521.212       75.756        0.021      349.316       29.652      860.797
08/13/2013  18:29:00     -472.676       22.324      -36.356      166.825      149.798       83.024    27830.492    22439.438     6893.053       14.119        2.858      473.203       71.060        0.023      349.377       29.755      860.823
08/13/2013  18:30:00     -459.551      -50.157      -14.313      197.234      182.613       93.814    38901.082    33347.338     8801.098       14.746        4.052      462.280       94.810        0.042      349.338       29.689      860.817
08/13/2013  18:31:00     -482.807     -119.744      -31.876      181.385      109.768       63.829    32900.432    12048.967     4074.081       14.873        2.451      497.435       68.734        0.019      349.327       29.670      860.818
08/13/2013  18:32:00     -287.716     -101.293       -0.006      225.407      106.823       62.433    50808.279    11411.213     3897.841        7.957        3.306      305.026       70.056        0.053      349.343       29.699      860.823
08/13/2013  18:33:00     -496.577     -109.367      -34.241      130.305      145.150       66.933    16979.480    21068.470     4479.965       15.112        2.126      508.478       67.866        0.018      349.326       29.668      860.843
08/13/2013  18:34:00     -308.332      -24.059      -12.910      188.050      130.051       60.843    35362.957    16913.329     3701.845        7.589        2.799      309.269       67.094        0.047      349.354       29.718      860.836
08/13/2013  18:35:00     -271.136     -117.907        1.921      172.540      131.799       71.108    29770.091    17371.064     5056.388        6.980        2.610      295.663       84.436        0.082      349.286       29.599      860.832
08/13/2013  18:36:00     -207.093      -54.574        1.883      137.515      119.358       73.201    18910.448    14246.367     5358.419        4.219        1.926      214.163       67.818        0.100      349.369       29.741      860.829
08/13/2013  18:37:00     -316.003       67.800      -21.491      156.249       93.837       61.930    24413.642     8805.428     3835.316        7.098        1.853      323.194       77.767        0.058      349.384       29.768      860.837
08/13/2013  18:38:00     -419.885      -65.031      -28.417      119.293      114.850       63.060    14230.702    13190.428     3976.533       10.636        1.570      424.892       56.010        0.017      349.358       29.723      860.833
08/13/2013  18:39:00     -288.852      -93.796       -7.821      179.697      152.225       72.685    32291.151    23172.552     5283.153        7.651        3.037      303.699       76.057        0.063      349.316       29.652      860.829
08/13/2013  18:40:00     -385.890      -93.282      -18.463      199.358      117.245       76.339    39743.562    13746.425     5827.625       10.863        2.966      397.004       88.301        0.049      349.263       29.560      860.823
08/13/2013  18:41:00     -371.312     -345.343      -13.905      201.028      193.144      111.470    40412.427    37304.709    12425.466       17.372        4.507      507.084      116.791        0.053      349.169       29.396      860.817
08/13/2013  18:42:00     -298.534     -217.255      -13.477      213.641      157.611       89.993    45642.653    24841.072     8098.792       10.753        3.929      369.218      110.546        0.090      349.178       29.412      860.838
08/13/2013  18:43:00     -262.807      -10.148       -8.002      202.131      125.711       86.419    40857.110    15803.377     7468.175        6.667        3.206      263.003      102.302        0.151      349.256       29.549      860.842
08/13/2013  18:44:00     -364.366     -191.753      -29.954      242.826      167.116       76.707    58964.337    27927.663     5883.918       13.159        4.639      411.743       91.968        0.050      349.175       29.406      860.853
08/13/2013  18:45:00     -333.119     -139.656      -24.369      188.451      154.882       75.197    35513.797    23988.567     5654.534        9.810        3.258      361.209       75.181        0.043      349.173       29.402      860.855
08/13/2013  18:46:00     -339.400     -208.907      -10.575      131.576      131.064       75.632    17312.219    17177.685     5720.164        9.957        2.011      398.540       61.707        0.024      349.152       29.364      860.859
08/13/2013  18:47:00     -269.735      -24.792        1.490      201.310       86.408       64.765    40525.661     7466.257     4194.450        6.277        2.609      270.872       76.420        0.080      349.217       29.479      860.878
08/13/2013  18:48:00     -364.105     -133.751      -23.884      145.881      132.389       70.597    21281.268    17526.739     4983.898        9.740        2.190      387.894       76.465        0.039      349.128       29.324      860.867
08/13/2013  18:49:00     -554.892     -120.127      -37.358      217.973      195.613       75.796    47512.052    38264.555     5745.105       20.761        4.576      567.746       81.984        0.021      349.072       29.228      860.865
08/13/2013  18:50:00     -413.654      -80.526      -17.918      148.011      133.118       77.264    21907.296    17720.356     5969.742       11.175        2.280      421.419       63.746        0.023      349.073       29.229      860.865
08/13/2013  18:51:00     -283.089      -40.786      -12.596      208.218      100.627       74.094    43354.556    10125.748     5489.913        7.046        2.949      286.012      100.081        0.122      349.117       29.306      860.870
08/13/2013  18:52:00     -433.173      -53.852      -17.576      203.926      164.168       79.566    41585.648    26951.047     6330.710       13.285        3.743      436.508       87.635        0.040      349.037       29.168      860.864
08/13/2013  18:53:00     -399.077      -79.125      -24.375      243.146      160.450       79.283    59120.105    25744.146     6285.840       12.862        4.558      406.846      105.108        0.067      349.003       29.108      860.875
08/13/2013  18:54:00     -302.689     -114.384       -7.607      181.816      122.797       68.226    33056.932    15079.122     4654.766        7.877        2.640      323.580       80.024        0.061      349.038       29.170      860.880
08/13/2013  18:55:00     -425.291      -89.906       -9.637      169.617      164.242       86.018    28770.057    26975.335     7399.028       12.609        3.157      434.691       88.341        0.041      349.026       29.148      860.881
08/13/2013  18:56:00     -273.316      -31.996        2.069      130.596      101.454       60.964    17055.380    10292.936     3716.585        5.339        1.553      275.183       68.760        0.062      349.040       29.173      860.914
08/13/2013  18:57:00     -343.365        5.572        8.447      197.086      139.514       79.558    38842.843    19464.179     6329.471        9.131        3.232      343.410       77.382        0.051      349.031       29.157      860.935
08/13/2013  18:58:00     -275.682       20.372       11.783      217.555      165.851       92.602    47330.046    27506.690     8575.084        7.997        4.171      276.434      102.516        0.138      348.939       28.998      860.918
08/13/2013  18:59:00     -211.311       -9.623       -3.012      191.240      110.010       69.485    36572.730    12102.204     4828.186        4.912        2.675      211.530       87.324        0.170      348.984       29.077      860.922
08/13/2013  19:00:00     -380.694      -26.898       -2.009      174.523      124.461       82.067    30458.309    15490.577     6734.951        9.916        2.634      381.643       77.577        0.041      348.934       28.988      860.943
08/13/2013  19:01:00     -319.262     -120.715      -13.404      126.517      125.953       73.607    16006.437    15864.182     5418.026        7.698        1.864      341.322       67.256        0.039      348.919       28.964      860.972
08/13/2013  19:02:00     -267.731      -87.185       -0.671      116.956      128.157       68.869    13678.776    16424.165     4742.926        5.706        1.742      281.569       67.468        0.057      348.912       28.950      860.982
08/13/2013  19:03:00     -452.838      -90.664      -11.953      178.389      153.596       88.479    31822.516    23591.743     7828.516       13.832        3.162      461.825       84.704        0.034      348.835       28.818      860.979
08/13/2013  19:04:00     -271.682     -107.404       -0.782      219.488      132.407       71.290    48175.183    17531.489     5082.244        7.806        3.539      292.142       73.261        0.063      348.859       28.859      860.997
08/13/2013  19:05:00     -461.729     -109.112      -26.681      201.746      136.341       76.867    40701.540    18588.780     5908.498       14.549        3.260      474.446       73.590        0.024      348.826       28.802      860.986
08/13/2013  19:06:00     -273.563     -102.742      -13.024      206.524      121.983       80.167    42652.017    14879.943     6426.746        7.475        3.198      292.220       98.527        0.114      348.799       28.755      861.004
08/13/2013  19:07:00     -291.558      -18.282       -6.428      179.732      154.748       75.235    32303.762    23946.966     5660.349        7.364        3.096      292.131       86.233        0.087      348.814       28.781      861.022
08/13/2013  19:08:00     -423.553     -109.166      -14.653      164.312      175.276       83.522    26998.397    30721.549     6975.898       12.810        3.235      437.395       84.510        0.037      348.753       28.675      861.003
08/13/2013  19:09:00     -410.362      -52.301      -19.405      179.891      114.872       77.929    32360.936    13195.502     6072.899       11.156        2.581      413.681       88.878        0.046      348.716       28.611      861.010
08/13/2013  19:10:00     -266.358     -219.612      -10.863      201.466      162.936      101.066    40588.707    26548.134    10214.341        9.831        3.868      345.219      102.730        0.089      348.699       28.584      860.992
08/13/2013  19:11:00     -454.002     -155.538       -1.208      178.252      132.080       75.876    31773.841    17445.234     5757.213       14.263        2.749      479.906       82.464        0.030      348.679       28.549      860.993
08/13/2013  19:12:00     -323.005     -175.530        0.126      225.440      163.907       95.433    50822.981    26865.419     9107.506       11.095        4.340      367.618      102.477        0.078      348.682       28.554      860.994
08/13/2013  19:13:00     -414.316     -129.079       -7.609      200.305      161.275       93.660    40122.061    26009.600     8772.102       13.163        3.745      433.958       99.644        0.053      348.675       28.541      861.002
08/13/2013  19:14:00     -313.448     -129.839      -19.571      134.681      148.885       72.946    18139.045    22166.665     5321.137        8.055        2.281      339.275       62.906        0.034      348.666       28.525      861.014
08/13/2013  19:15:00     -197.294     -110.277       -2.684      114.165      108.121       53.871    13033.534    11690.163     2902.137        3.935        1.381      226.022       50.461        0.050      348.665       28.524      861.033
08/13/2013  19:16:00     -353.573      -85.928      -19.176      145.419      130.962       76.334    21146.801    17150.972     5826.900        8.844        2.206      363.864       67.887        0.035      348.630       28.464      861.041
08/13/2013  19:17:00     -322.099     -138.466      -13.416      176.605      162.117       76.555    31189.398    26281.775     5860.728        9.321        3.167      350.601       90.647        0.067      348.623       28.450      861.047
08/13/2013  19:18:00     -177.906      -81.600        7.790      149.426      121.334       72.365    22328.234    14722.041     5236.729        4.032        2.114      195.727       81.687        0.174      348.570       28.359      861.029
08/13/2013  19:19:00     -181.980      -69.228        5.430      132.725      117.867       67.115    17616.012    13892.586     4504.400        3.697        1.801      194.703       66.639        0.117      348.608       28.425      861.042
08/13/2013  19:20:00     -594.184     -173.817      -35.744      232.401      217.359       95.962    54010.325    47245.039     9208.619       24.749        5.523      619.085      102.054        0.027      348.531       28.291      861.051
08/13/2013  19:21:00     -330.425      -29.370       -1.408      167.841      147.059       80.771    28170.595    21626.381     6524.005        8.317        2.816      331.728       89.954        0.074      348.503       28.243      861.070
08/13/2013  19:22:00     -170.103      -82.760       16.306      194.860      122.594       75.313    37970.520    15029.326     5672.049        4.735        2.934      189.167       84.806        0.201      348.529       28.288      861.089
08/13/2013  19:23:00     -269.445     -115.971       -7.257      192.267       98.576       73.219    36966.419     9717.258     5360.980        6.906        2.602      293.342       92.596        0.100      348.500       28.238      861.106
08/13/2013  19:24:00     -127.068     -121.275       24.367      116.710      112.830       66.887    13621.336    12730.565     4473.866        3.113        1.541      175.653       74.853        0.182      348.488       28.220      861.116
08/13/2013  19:25:00     -176.563     -141.263      -12.832      134.476       82.262       58.627    18083.834     6767.014     3437.162        3.979        1.414      226.119       46.232        0.042      348.458       28.167      861.118
08/13/2013  19:26:00     -280.046      -33.524       -8.081      145.405      131.886       66.127    21142.499    17393.921     4372.841        6.125        2.145      282.046       72.896        0.067      348.406       28.075      861.121
08/13/2013  19:27:00     -387.671      -64.308      -15.069      199.005      152.566       73.500    39602.806    23276.335     5402.318       11.145        3.414      392.968       78.143        0.040      348.397       28.060      861.125
08/13/2013  19:28:00     -342.890      -31.496       -8.021      227.532      145.774       99.954    51770.947    21250.001     9990.880       10.081        4.151      344.333      117.529        0.117      348.341       27.963      861.135
08/13/2013  19:29:00     -378.343      -90.730      -18.540      207.676      162.168       85.562    43129.507    26298.374     7320.877       11.422        3.837      389.070      101.126        0.068      348.323       27.930      861.139
08/13/2013  19:30:00     -483.417       -1.448      -21.588      229.696      143.282       97.860    52760.180    20529.802     9576.494       15.850        4.143      483.419      119.221        0.061      348.296       27.883      861.156
08/13/2013  19:31:00     -415.033      -84.117      -30.026      192.882      131.076       93.121    37203.616    17180.885     8671.456       12.163        3.153      423.472      100.138        0.056      348.279       27.855      861.174
08/13/2013  19:32:00     -348.976      -55.745      -13.835      139.102      125.638       75.531    19349.281    15784.963     5704.883        8.295        2.042      353.400       68.569        0.038      348.280       27.855      861.178
08/13/2013  19:33:00     -204.878      -86.795       15.521      206.773      145.900       87.858    42755.145    21286.832     7719.108        6.074        3.588      222.505       98.591        0.196      348.237       27.782      861.199
08/13/2013  19:34:00     -282.036     -113.885      -10.615      225.819      124.114       79.718    50994.052    15404.380     6354.989        8.268        3.638      304.161      102.048        0.113      348.219       27.753      861.189
08/13/2013  19:35:00     -180.666      -62.626       11.207      142.868      132.040       71.606    20411.367    17434.679     5127.354        3.982        2.149      191.212       69.470        0.132      348.175       27.676      861.223
08/13/2013  19:36:00     -311.081      -21.746       -3.376      159.004      108.641       72.454    25282.197    11802.866     5249.516        6.979        2.117      311.840       78.840        0.064      348.156       27.643      861.217
08/13/2013  19:37:00     -315.453      -86.510       -1.070      227.522      155.317       84.039    51766.364    24123.423     7062.529        9.496        4.148      327.100       95.325        0.085      348.145       27.624      861.229
08/13/2013  19:38:00     -315.324     -118.313      -12.198      152.766      139.594       83.986    23337.310    19486.574     7053.707        8.172        2.494      336.790       78.217        0.054      348.124       27.588      861.240
08/13/2013  19:39:00     -437.525     -142.796      -12.855      226.098      177.799       92.551    51120.523    31612.497     8565.673       15.163        4.565      460.238      102.568        0.050      348.129       27.596      861.249
08/13/2013  19:40:00     -396.634      -92.775      -16.119      154.091      118.655       62.664    23743.919    14078.958     3926.775       10.396        2.087      407.340       64.979        0.025      348.105       27.555      861.281
08/13/2013  19:41:00     -218.761      -69.721       16.310      196.840      133.232      109.236    38745.818    17750.774    11932.587        6.069        3.421      229.603      127.551        0.309      348.058       27.474      861.272
08/13/2013  19:42:00     -193.923      -49.000        5.829      167.655      125.846       79.508    28108.310    15837.285     6321.457        4.515        2.513      200.017       68.726        0.118      348.035       27.434      861.275
08/13/2013  19:43:00     -299.387      -68.892      -19.414      130.045       97.750       65.968    16911.753     9555.053     4351.827        6.278        1.541      307.212       71.613        0.054      348.012       27.395      861.296
08/13/2013  19:44:00     -382.168     -107.859       -8.531      161.566      125.746       74.026    26103.468    15812.078     5479.865       10.257        2.370      397.097       78.454        0.039      347.993       27.362      861.286
08/13/2013  19:45:00     -327.672     -130.136       -4.077      215.032      211.853       96.662    46238.703    44881.494     9343.638       11.238        5.023      352.569      117.359        0.111      347.952       27.292      861.298
08/13/2013  19:46:00     -359.364      -47.463      -14.973      214.951      135.382       84.848    46203.864    18328.408     7199.254       10.166        3.587      362.485       86.192        0.057      347.963       27.310      861.285
08/13/2013  19:47:00     -376.750      -71.608      -18.786      260.951      113.293       74.346    68095.191    12835.302     5527.318       11.693        4.323      383.495      116.323        0.092      347.931       27.255      861.322
08/13/2013  19:48:00     -372.287      -93.486        2.067      249.714      140.093       80.841    62356.912    19625.916     6535.317       11.791        4.426      383.845      103.776        0.073      347.920       27.237      861.322
08/13/2013  19:49:00     -375.909     -102.890       -5.857      159.108      136.276       78.960    25315.497    18571.187     6234.613       10.102        2.506      389.736       83.236        0.046      347.881       27.168      861.321
08/13/2013  19:50:00     -298.542      -86.077        8.656      177.126      144.871       83.076    31373.462    20987.570     6901.675        7.793        2.963      310.703       81.492        0.069      347.876       27.158      861.320
08/13/2013  19:51:00     -419.245      -17.748      -15.372      195.266      149.821       81.694    38128.816    22446.242     6673.981       12.177        3.362      419.621       88.521        0.045      347.851       27.116      861.351
08/13/2013  19:52:00     -401.442     -123.868      -28.339      222.198      155.446       87.339    49372.001    24163.471     7628.142       12.922        4.058      420.117      106.342        0.064      347.886       27.175      861.374
08/13/2013  19:53:00     -345.769     -133.780        0.975      165.061      185.405       78.203    27245.099    34374.934     6115.698       10.258        3.387      370.747       79.030        0.045      347.841       27.099      861.369
08/13/2013  19:54:00     -424.328     -158.539      -38.951      261.565      161.741       85.431    68416.267    26160.080     7298.496       15.427        5.094      452.977      102.342        0.051      347.864       27.138      861.387
08/13/2013  19:55:00     -379.845      -86.110      -13.219      174.509      121.919       68.050    30453.467    14864.262     4630.798       10.090        2.497      389.484       68.845        0.031      347.820       27.063      861.394
08/13/2013  19:56:00     -277.600      -82.389       -5.248      131.384      125.886       57.561    17261.743    15847.309     3313.316        6.014        1.821      289.568       57.818        0.040      347.772       26.980      861.412
08/13/2013  19:57:00     -119.970      -57.108       16.587      114.390       94.153       58.599    13085.149     8864.857     3433.856        2.165        1.269      132.868       54.734        0.170      347.704       26.864      861.424
08/13/2013  19:58:00     -228.274      -66.916        1.378      131.431      124.704       64.783    17274.172    15551.039     4196.841        4.680        1.851      237.880       54.796        0.053      347.738       26.922      861.440
08/13/2013  19:59:00     -283.155      -14.460       -7.884      150.323      106.111       64.239    22597.067    11259.475     4126.709        5.921        1.899      283.524       68.959        0.059      347.717       26.886      861.442
08/13/2013  20:00:00     -212.816      -62.369       -9.618      152.719      115.123       63.223    23323.090    13253.271     3997.164        4.492        2.029      221.767       60.993        0.076      347.710       26.874      861.453
08/13/2013  20:01:00     -400.402     -169.938        0.892      239.126      127.215       72.948    57181.350    16183.568     5321.428       13.393        3.934      434.972       86.926        0.040      347.737       26.920      861.456
08/13/2013  20:02:00     -325.495     -106.935        0.322      222.346      160.147       88.347    49437.550    25647.084     7805.206       10.012        4.144      342.610      103.863        0.092      347.700       26.856      861.460
08/13/2013  20:03:00     -401.882      -67.624      -17.518      157.190      119.245       83.276    24708.695    14219.335     6934.956       10.612        2.293      407.531       80.765        0.039      347.732       26.912      861.489
08/13/2013  20:04:00     -189.113      -86.031       18.509      194.679      131.669       80.877    37899.893    17336.657     6541.155        5.263        3.089      207.762       96.406        0.215      347.622       26.721      861.511
08/13/2013  20:05:00     -210.057        6.725        0.312      145.152      109.696       71.898    21069.076    12033.274     5169.329        4.121        1.914      210.165       75.247        0.128      347.650       26.770      861.526
08/13/2013  20:06:00     -227.872      -80.046        2.380      116.897      133.085       66.915    13664.885    17711.702     4477.620        4.709        1.793      241.523       56.751        0.055      347.662       26.789      861.522
08/13/2013  20:07:00     -338.333      -24.157      -17.871      239.458      128.333       69.195    57340.266    16469.433     4787.948        9.697        3.930      339.194       86.601        0.065      347.651       26.772      861.539
08/13/2013  20:08:00     -414.826     -103.557      -21.123      121.987      113.500       64.557    14880.874    12882.167     4167.556       10.759        1.597      427.556       56.990        0.018      347.639       26.749      861.544
08/13/2013  20:09:00     -464.818      -65.890      -22.755      167.503      134.014       76.163    28057.179    17959.795     5800.833       13.636        2.591      469.465       83.713        0.032      347.613       26.706      861.559
08/13/2013  20:10:00     -219.221      -57.794       -7.316      140.582       92.076       68.305    19763.427     8477.925     4665.532        4.217        1.645      226.711       80.855        0.127      347.571       26.634      861.576
08/13/2013  20:11:00     -285.033      -23.404      -16.232      133.952      108.369       54.693    17943.180    11743.758     2991.292        5.736        1.634      285.992       51.808        0.033      347.562       26.619      861.592
08/13/2013  20:12:00     -414.558      -97.323      -25.439      174.699      148.758       75.350    30519.860    22128.982     5677.555       12.014        2.916      425.829       68.690        0.026      347.580       26.651      861.587
08/13/2013  20:13:00     -344.120      -69.970       -1.861      168.676      128.342       81.633    28451.572    16471.627     6663.918        8.744        2.579      351.162       85.538        0.059      347.555       26.607      861.603
08/13/2013  20:14:00     -261.598       -0.823       -3.874       93.126      100.742       55.031     8672.377    10149.041     3028.400        4.515        1.092      261.599       46.863        0.032      347.552       26.601      861.612
08/13/2013  20:15:00     -272.979       -9.711        2.736      180.875      110.350       66.968    32715.617    12177.160     4484.685        6.199        2.469      273.151       72.953        0.071      347.488       26.490      861.620
08/13/2013  20:16:00     -426.080       15.899      -31.088      107.939      121.656       59.997    11650.827    14800.067     3599.623       10.640        1.503      426.377       48.684        0.013      347.512       26.531      861.642
08/13/2013  20:17:00     -470.315      -33.540      -27.660      168.897      174.001       68.584    28526.243    30276.262     4703.811       14.329        3.175      471.510       65.959        0.020      347.525       26.553      861.641
08/13/2013  20:18:00     -450.355      -81.049      -20.279      169.872      130.038       74.135    28856.354    16909.923     5496.072       13.052        2.563      457.590       94.246        0.042      347.471       26.459      861.661
08/13/2013  20:19:00     -439.524      -31.215      -30.140      222.970      152.866       78.122    49715.484    23368.072     6102.982       13.711        3.959      440.631       96.315        0.048      347.490       26.495      861.658
08/13/2013  20:20:00     -402.675      -62.225      -16.995      158.034      142.907       73.287    24974.882    20422.389     5371.046       10.853        2.538      407.454       82.833        0.041      347.457       26.437      861.689
08/13/2013  20:21:00     -304.610      -23.335      -11.691      149.314      116.128       65.588    22294.600    13485.606     4301.827        6.677        2.004      305.503       73.031        0.057      347.425       26.380      861.700
08/13/2013  20:22:00     -290.632      -42.791       -9.335      110.831       98.765       52.754    12283.547     9754.515     2782.951        5.560        1.241      293.765       60.400        0.042      347.410       26.355      861.717
08/13/2013  20:23:00     -336.392      -36.619      -16.361      109.695       84.981       54.451    12032.940     7221.847     2964.944        6.849        1.111      338.380       54.831        0.026      347.386       26.314      861.753
08/13/2013  20:24:00     -248.307      -87.189        4.999      143.768      115.691       65.983    20669.219    13384.431     4353.797        5.384        1.920      263.170       68.849        0.068      347.346       26.247      861.784
08/13/2013  20:25:00     -308.593      -34.780       -4.483      153.931      144.955       72.261    23694.628    21012.006     5221.674        7.319        2.496      310.547       81.297        0.069      347.325       26.209      861.792
08/13/2013  20:26:00      -96.050      -31.577       23.129      114.068      110.192       59.629    13011.621    12142.381     3555.592        1.973        1.435      101.108       65.891        0.425      347.260       26.098      861.820
08/13/2013  20:27:00     -205.392      -35.109      -10.142      126.392       96.989       58.933    15974.849     9406.839     3473.118        3.618        1.443      208.371       60.910        0.085      347.316       26.194      861.859
08/13/2013  20:28:00     -174.904       -7.905       11.770      195.878       77.316       73.060    38368.284     5977.765     5337.816        4.023        2.484      175.082       93.741        0.287      347.245       26.072      861.874
08/13/2013  20:29:00     -297.587      -42.207      -15.207      165.442      135.667       62.870    27371.082    18405.533     3952.622        7.014        2.486      300.565       36.618        0.015      347.295       26.158      861.904
08/13/2013  20:30:00     -360.375       32.174      -13.073      163.186      106.936       74.324    26629.550    11435.281     5524.066        8.733        2.179      361.808       80.857        0.050      347.280       26.131      861.913
08/13/2013  20:31:00     -439.034       52.711      -44.764      159.809      121.622       59.325    25539.016    14791.887     3519.441       12.068        2.193      442.187       70.627        0.026      347.287       26.142      861.939
08/13/2013  20:32:00     -263.289       -3.622      -28.622      150.453      107.811       62.998    22635.998    11623.284     3968.728        5.418        1.911      263.314       57.079        0.047      347.276       26.124      861.960
08/13/2013  20:33:00     -229.801       60.043       -2.286      120.667      188.673       72.942    14560.594    35597.366     5320.599        5.594        2.774      237.515       60.200        0.064      347.239       26.060      861.982
08/13/2013  20:34:00     -394.647     -124.514      -31.677      124.346      125.312       58.020    15462.015    15703.055     3366.343       10.339        1.727      413.824       44.349        0.011      347.276       26.123      862.005
08/13/2013  20:35:00     -334.951      -46.695      -46.061      158.763      106.487       66.716    25205.642    11339.467     4450.978        7.874        2.050      338.190       67.584        0.040      347.276       26.125      862.015
08/13/2013  20:36:00     -191.334      -62.297       -7.906      135.939       84.791       63.567    18479.359     7189.523     4040.819        3.513        1.485      201.220       51.379        0.065      347.215       26.021      862.049
08/13/2013  20:37:00      -81.968      -15.629      -10.957       82.262       85.053       42.082     6767.038     7233.982     1770.889        1.142        0.789       83.444       34.394        0.170      347.137       25.888      862.074
08/13/2013  20:38:00     -319.203       43.459      -27.593      127.396      110.289       54.548    16229.684    12163.589     2975.444        6.795        1.568      322.148       46.920        0.021      347.169       25.940      862.085
08/13/2013  20:39:00     -303.265       16.587      -19.687      100.654       72.704       46.236    10131.221     5285.866     2137.749        5.509        0.878      303.718       44.437        0.021      347.142       25.893      862.120
08/13/2013  20:40:00     -125.518        4.523      -10.059       75.639       33.444       33.418     5721.211     1118.471     1116.746        1.192        0.398      125.599       33.498        0.071      347.104       25.831      862.139
08/13/2013  20:41:00      -87.277       14.622       -2.590       71.522       71.004       33.484     5115.371     5041.506     1121.152        0.956        0.564       88.493       37.850        0.183      347.051       25.739      862.147
08/13/2013  20:42:00     -104.056       38.939       -5.590       75.688       96.350       49.986     5728.650     9283.244     2498.556        1.494        0.876      111.104       46.850        0.178      347.026       25.696      862.153
08/13/2013  20:43:00     -161.105      -24.616       -8.663       96.768       87.553       53.720     9364.092     7665.542     2885.807        2.327        0.996      162.975       55.480        0.116      347.074       25.778      862.184
08/13/2013  20:44:00     -214.533       35.729      -22.757      107.935       91.096       49.991    11649.901     8298.398     2499.128        3.513        1.122      217.488       41.937        0.037      347.092       25.808      862.202
08/13/2013  20:45:00      -98.055       16.583        5.559      117.384      113.517       55.523    13778.967    12886.188     3082.748        1.983        1.487       99.447       54.821        0.304      346.947       25.560      862.219
08/13/2013  20:46:00     -177.562      -15.093      -18.337      124.173       95.255       73.219    15418.915     9073.463     5360.972        3.097        1.493      178.202       46.161        0.067      347.001       25.651      862.229
08/13/2013  20:47:00     -110.378      -22.545       -6.008      103.687       77.503       37.821    10750.923     6006.724     1430.399        1.545        0.909      112.657       34.671        0.095      346.974       25.607      862.247
08/13/2013  20:48:00      -21.445       14.083       44.261       93.708       81.542       59.477     8781.132     6649.131     3537.529        1.079        0.948       25.656       58.512        5.201      346.880       25.445      862.242
08/13/2013  20:49:00     -125.813       39.967      -19.588      111.917       76.076       47.425    12525.311     5787.552     2249.138        1.918        1.028      132.009       50.916        0.149      346.951       25.566      862.296
08/13/2013  20:50:00     -281.427      -48.294      -20.497       82.399      100.820       53.366     6789.653    10164.707     2847.935        5.087        0.990      285.541       44.598        0.024      346.992       25.634      862.326
08/13/2013  20:51:00     -300.896      -23.348      -43.112      112.726      141.131       66.819    12707.042    19917.926     4464.827        6.501        1.854      301.801       46.033        0.023      347.021       25.686      862.355
08/13/2013  20:52:00     -233.876        4.980      -31.463       96.427       80.409       47.041     9298.219     6465.682     2212.810        3.684        0.899      233.929       51.077        0.048      347.035       25.709      862.335
08/13/2013  20:53:00      -89.909       24.259       -7.742       69.847       41.652       23.586     4878.561     1734.878      556.287        0.795        0.358       93.124       24.989        0.072      346.966       25.594      862.341
08/13/2013  20:54:00     -153.923      162.093      -21.362       68.924      140.350       46.090     4750.535    19698.081     2124.327        3.849        1.329      223.532       44.215        0.039      346.919       25.509      862.333
08/13/2013  20:55:00     -232.376      -97.927       -7.835      107.280       94.220       48.554    11509.100     8877.472     2357.532        4.319        1.137      252.167       47.764        0.036      346.892       25.464      862.344
08/13/2013  20:56:00     -241.654      -70.952       -6.110      141.277      112.435       63.035    19959.295    12641.741     3973.462        5.002        1.829      251.855       62.503        0.062      346.849       25.388      862.347
08/13/2013  20:57:00     -320.265     -114.056      -15.972      110.750       92.536       51.956    12265.621     8562.855     2699.398        6.968        1.176      339.969       34.199        0.010      346.827       25.352      862.340
08/13/2013  20:58:00     -324.919      -58.169      -14.866      128.694       87.962       54.709    16562.095     7737.265     2993.095        6.823        1.365      330.085       66.351        0.040      346.849       25.390      862.369
08/13/2013  20:59:00     -339.318      -34.425      -17.679      125.697       80.927       60.168    15799.616     6549.132     3620.216        7.130        1.298      341.060       64.759        0.036      346.887       25.453      862.374
08/13/2013  21:00:00     -154.657      -39.836       -5.478      124.529       59.324       37.439    15507.385     3519.390     1401.712        2.298        1.021      159.705       51.700        0.105      346.816       25.333      862.376
08/13/2013  21:01:00     -280.965     -108.283      -15.106      129.852      102.058       57.780    16861.521    10415.828     3338.523        6.075        1.531      301.109       56.442        0.035      346.887       25.455      862.356
08/13/2013  21:02:00     -286.054        5.675      -32.475       77.198       76.701       50.281     5959.530     5883.029     2528.193        4.864        0.719      286.110       42.952        0.023      346.904       25.482      862.326
08/13/2013  21:03:00     -234.316      -53.656      -23.816      104.582       66.160       53.194    10937.394     4377.207     2829.555        3.824        0.907      240.381       52.136        0.047      346.845       25.381      862.335
08/13/2013  21:04:00     -316.824     -111.300       -2.175      132.761      101.672       58.698    17625.568    10337.238     3445.495        7.208        1.570      335.805       65.285        0.038      346.774       25.259      862.344
08/13/2013  21:05:00     -226.175      -86.105        2.712      147.422      108.042       80.302    21733.149    11673.122     6448.491        4.921        1.993      242.011       84.846        0.123      346.734       25.191      862.343
08/13/2013  21:06:00     -388.002      -92.614      -20.208      115.192      140.613       64.860    13269.085    19772.006     4206.788        9.838        1.862      398.902       60.735        0.023      346.769       25.251      862.371
08/13/2013  21:07:00     -333.415      -65.729      -12.855      119.012       88.055       52.914    14163.890     7753.712     2799.855        7.018        1.236      339.832       50.063        0.022      346.720       25.167      862.371
08/13/2013  21:08:00     -360.805     -143.539       -8.332      119.938      103.792       68.533    14385.226    10772.719     4696.738        9.035        1.493      388.308       60.483        0.024      346.784       25.277      862.366
08/13/2013  21:09:00     -174.091      -42.980       -2.743      125.607       78.979       52.171    15777.166     6237.645     2721.815        2.845        1.237      179.318       60.793        0.115      346.699       25.131      862.355
08/13/2013  21:10:00     -312.122      -77.070       -3.428      178.970      117.992       58.996    32030.436    13922.200     3480.507        7.639        2.472      321.496       63.630        0.039      346.715       25.159      862.364
08/13/2013  21:11:00     -222.729      -11.325        7.459      144.324      120.039       59.253    20829.326    14409.263     3510.865        4.426        1.937      223.017       65.367        0.086      346.658       25.060      862.358
08/13/2013  21:12:00     -231.195      -28.798      -19.805      161.514       95.644       66.567    26086.801     9147.734     4431.196        4.716        1.983      232.982       86.816        0.139      346.674       25.088      862.333
08/13/2013  21:13:00     -294.147      -30.090      -15.199      155.072       97.049       61.441    24047.444     9418.467     3775.025        6.244        1.862      295.683       67.687        0.052      346.654       25.053      862.333
08/13/2013  21:14:00     -234.038     -150.227       -3.355      133.143      106.246       64.911    17727.135    11288.185     4213.391        5.529        1.661      278.104       62.147        0.050      346.619       24.993      862.393
08/13/2013  21:15:00     -378.392      -76.117      -27.128      193.811      145.707       72.809    37562.577    21230.474     5301.142       10.689        3.205      385.971       64.576        0.028      346.759       25.235      862.412
08/13/2013  21:16:00     -325.237       26.197      -20.372      143.789      104.069       54.746    20675.176    10830.442     2997.149        7.069        1.725      326.291       49.846        0.023      346.725       25.175      862.412
08/13/2013  21:17:00     -388.394      -20.156      -44.716      116.995       89.833       52.280    13687.828     8069.910     2733.185        8.887        1.225      388.916       44.393        0.013      346.738       25.196      862.370
08/13/2013  21:18:00     -383.194      -47.683      -16.632      192.814      157.671       84.232    37177.149    24860.057     7095.065       10.925        3.457      386.150       83.474        0.047      346.664       25.070      862.391
08/13/2013  21:19:00     -447.040     -162.010      -29.602      212.249      135.803       82.575    45049.608    18442.481     6818.629       14.863        3.516      475.491       97.056        0.042      346.661       25.066      862.449
08/13/2013  21:20:00     -245.620     -120.253      -15.643      192.849      127.166       58.290    37190.741    16171.079     3397.703        6.589        2.838      273.478       82.575        0.091      346.713       25.156      862.469
08/13/2013  21:21:00     -227.769      -60.330        1.736      138.587      102.386       69.623    19206.472    10482.896     4847.342        4.502        1.727      235.624       66.263        0.079      346.618       24.994      862.482
08/13/2013  21:22:00     -183.999      -36.239       10.347      173.351       87.324       61.816    30050.597     7625.469     3821.163        3.838        2.075      187.533       85.407        0.207      346.588       24.942      862.498
08/13/2013  21:23:00     -251.897      -11.096      -12.173      182.468      119.996       64.141    33294.443    14398.926     4114.089        5.776        2.590      252.141       84.964        0.114      346.635       25.022      862.506
08/13/2013  21:24:00     -298.463        1.518      -21.920      140.089       96.457       64.622    19624.878     9303.935     4175.978        6.133        1.655      298.467       68.265        0.052      346.623       25.001      862.507
08/13/2013  21:25:00     -270.707      -40.310      -21.090      101.371       83.591       45.984    10276.077     6987.456     2114.515        4.736        0.969      273.692       34.940        0.016      346.638       25.026      862.495
08/13/2013  21:26:00     -362.314      -81.799       -1.956      197.276      153.560       78.414    38917.807    23580.565     6148.728       10.330        3.432      371.433       61.823        0.028      346.590       24.945      862.508
08/13/2013  21:27:00     -274.672      -60.971      -11.091      134.475      116.446       61.241    18083.470    13559.593     3750.485        5.733        1.770      281.358       65.355        0.054      346.573       24.915      862.522
08/13/2013  21:28:00     -489.461     -142.944      -28.916      224.184      214.071      106.591    50258.488    45826.195    11361.643       18.413        5.372      509.907      113.169        0.049      346.655       25.056      862.533
08/13/2013  21:29:00     -331.287     -188.173      -11.563      194.147      150.516       86.407    37693.010    22655.018     7466.151       10.654        3.391      380.998      104.004        0.075      346.669       25.081      862.609
08/13/2013  21:30:00     -250.067     -105.902       -5.305      192.382      110.261       80.040    37010.804    12157.523     6406.472        6.467        2.779      271.567       94.327        0.121      346.729       25.185      862.626
08/13/2013  21:31:00     -110.452       22.059       26.704      135.028       74.820       58.018    18232.434     5597.967     3366.060        2.029        1.360      112.633       66.594        0.350      346.636       25.024      862.578
08/13/2013  21:32:00     -264.346       28.745      -19.187      189.023      101.013       59.543    35729.856    10203.674     3545.342        6.027        2.474      265.905       78.980        0.088      346.634       25.018      862.606
08/13/2013  21:33:00     -298.599      -72.521      -16.902      125.462      116.555       67.092    15740.606    13584.966     4501.328        6.426        1.691      307.279       76.754        0.062      346.580       24.927      862.641
08/13/2013  21:34:00     -424.990      -25.472      -26.455      190.054      137.211       83.607    36120.470    18826.740     6990.173       12.194        3.097      425.753       91.372        0.046      346.634       25.019      862.666
08/13/2013  21:35:00     -161.684      -59.259        6.843      116.328       81.296       51.203    13532.097     6609.014     2621.790        2.623        1.138      172.202       50.625        0.086      346.564       24.900      862.674
08/13/2013  21:36:00     -285.925       -4.626      -18.367      143.339      101.897       46.691    20546.139    10382.906     2180.036        5.760        1.655      285.962       59.556        0.043      346.590       24.945      862.660
08/13/2013  21:37:00     -268.357      -59.743      -13.442      108.910      103.706       42.022    11861.388    10754.924     1765.880        5.007        1.219      274.927       35.997        0.017      346.530       24.840      862.690
08/13/2013  21:38:00     -241.712     -103.886        2.824      106.017      103.542       56.247    11239.601    10720.990     3163.756        4.717        1.256      263.091       47.653        0.033      346.546       24.868      862.708
08/13/2013  21:39:00     -260.761      -99.191      -16.502       87.051       90.743       46.650     7577.808     8234.299     2176.213        4.804        0.899      278.990       36.958        0.018      346.536       24.849      862.708
08/13/2013  21:40:00     -230.719      -75.874      -15.778      109.711       71.670       49.167    12036.593     5136.558     2417.428        3.941        0.980      242.875       46.560        0.037      346.523       24.829      862.696
08/13/2013  21:41:00     -239.161      -60.497       -3.325      132.868      105.776       60.125    17653.847    11188.566     3614.985        4.666        1.623      246.694       68.776        0.078      346.453       24.709      862.710
08/13/2013  21:42:00     -303.149      -83.713      -16.459       93.665       96.448       51.175     8773.156     9302.167     2618.864        5.993        1.035      314.495       44.774        0.020      346.481       24.758      862.738
08/13/2013  21:43:00     -269.803      -15.009      -27.630      126.617       81.587       50.514    16031.779     6656.408     2551.632        4.951        1.262      270.220       64.607        0.057      346.461       24.721      862.725
08/13/2013  21:44:00     -275.526      -22.091      -18.187      122.163      104.877       42.358    14923.884    10999.106     1794.166        5.222        1.386      276.410       41.515        0.023      346.443       24.690      862.721
08/13/2013  21:45:00     -131.159      -41.680        0.518       94.105       55.529       34.639     8855.725     3083.475     1199.828        1.604        0.657      137.622       30.936        0.051      346.374       24.576      862.723
08/13/2013  21:46:00     -216.403      -90.752       -5.343       66.548       60.613       35.468     4428.586     3673.877     1258.013        3.223        0.468      234.662       29.617        0.016      346.366       24.558      862.725
08/13/2013  21:47:00     -237.766     -100.827       -9.464       77.802       92.447       44.440     6053.098     8546.438     1974.901        4.168        0.829      258.262       37.836        0.021      346.315       24.471      862.743
08/13/2013  21:48:00     -190.393      -38.392       -6.265       98.751      100.478       51.149     9751.850    10095.753     2616.188        3.011        1.123      194.225       55.470        0.082      346.246       24.353      862.746
08/13/2013  21:49:00     -347.623      -95.506      -20.654      118.194      105.314       56.461    13969.768    11090.940     3187.852        7.931        1.412      360.504       49.252        0.019      346.272       24.396      862.740
08/13/2013  21:50:00     -376.883     -127.751      -13.250       99.468       92.827       47.719     9893.806     8616.920     2277.075        8.966        1.039      397.946       52.837        0.018      346.337       24.508      862.748
08/13/2013  21:51:00     -274.370      -10.449      -11.886      108.114       72.700       53.235    11688.602     5285.284     2833.998        4.767        0.990      274.569       60.199        0.048      346.349       24.530      862.764
08/13/2013  21:52:00     -126.907       67.323       -3.775       98.925      116.386       56.342     9786.164    13545.660     3174.464        2.357        1.325      143.659       49.267        0.118      346.334       24.504      862.715
08/13/2013  21:53:00     -153.506       54.836      -12.743      117.872      100.372       53.161    13893.766    10074.588     2826.103        2.676        1.340      163.006       51.838        0.101      346.356       24.543      862.675
08/13/2013  21:54:00     -126.647      -52.733        6.979      142.995      100.141       51.910    20447.602    10028.316     2694.614        2.601        1.659      137.187       65.400        0.227      346.270       24.395      862.641
08/13/2013  21:55:00     -278.468      -48.743      -14.407       90.929       70.345       46.521     8267.998     4948.387     2164.221        4.775        0.769      282.702       38.510        0.019      346.268       24.390      862.630
08/13/2013  21:56:00     -257.011        9.375        4.386      140.974       96.430       64.593    19873.710     9298.790     4172.253        4.975        1.667      257.182       73.207        0.081      346.160       24.205      862.615
08/13/2013  21:57:00     -271.467      -50.652       -0.033      145.248      110.577       59.898    21097.080    12227.336     3587.788        5.658        1.846      276.152       63.846        0.053      346.171       24.222      862.604
08/13/2013  21:58:00     -341.651     -141.468      -14.876      169.095      157.374       85.863    28593.138    24766.630     7372.531        9.884        3.037      369.781       83.580        0.051      346.277       24.404      862.589
08/13/2013  21:59:00     -415.381      -68.098       -7.520      195.745      106.068       70.241    38316.267    11250.347     4933.826       11.586        2.725      420.926       77.219        0.034      346.333       24.503      862.625
08/13/2013  22:00:00     -312.151      -33.561      -19.960      116.345       92.872       54.922    13536.062     8625.190     3016.426        6.207        1.259      313.950       42.227        0.018      346.367       24.560      862.624
08/13/2013  22:01:00     -291.433      -97.967      -16.887      116.944       85.028       49.333    13675.842     7229.844     2433.742        5.907        1.167      307.459       51.595        0.028      346.470       24.736      862.594
08/13/2013  22:02:00     -279.156      -37.688      -15.722       73.643       64.487       45.807     5423.262     4158.548     2098.271        4.564        0.584      281.689       39.788        0.020      346.409       24.632      862.600
08/13/2013  22:03:00     -222.408      -65.017       -0.849      144.511      117.212       60.082    20883.528    13738.572     3609.850        4.596        1.912      231.716       68.016        0.086      346.364       24.555      862.593
08/13/2013  22:04:00     -133.794     -102.055      -14.041      174.239      120.099       59.478    30359.140    14423.704     3537.577        3.841        2.416      168.274       55.730        0.110      346.282       24.415      862.556
08/13/2013  22:05:00     -245.603      -53.878        4.853      170.296      125.365       70.177    29000.584    15716.402     4924.838        5.644        2.482      251.443       76.706        0.093      346.227       24.320      862.564
08/13/2013  22:06:00     -382.714      -69.121      -16.868      167.608      131.501       75.643    28092.542    17292.642     5721.910       10.131        2.555      388.906       87.194        0.050      346.331       24.497      862.596
08/13/2013  22:07:00     -391.155      -25.989      -17.749      202.407      128.508       72.857    40968.478    16514.256     5308.187       10.838        3.140      392.017       91.144        0.054      346.297       24.439      862.615
08/13/2013  22:08:00     -386.095     -211.503       -1.371      195.287      138.779       82.104    38136.954    19259.703     6741.084       12.896        3.207      440.230       79.217        0.032      346.370       24.566      862.621
08/13/2013  22:09:00     -249.047      -90.214       -3.496      133.313      113.326       60.886    17772.261    12842.763     3707.081        5.224        1.716      264.883       69.248        0.068      346.360       24.549      862.640
08/13/2013  22:10:00     -277.284       -8.119      -11.910      141.259       85.413       64.448    19954.155     7295.462     4153.581        5.424        1.570      277.403       78.827        0.081      346.311       24.464      862.607
08/13/2013  22:11:00     -302.516      -89.578        1.000      102.883       98.431       66.646    10584.852     9688.587     4441.628        6.212        1.236      315.500       60.034        0.036      346.226       24.317      862.620
08/13/2013  22:12:00     -227.701      -86.339        1.303      123.387       85.340       51.850    15224.428     7282.984     2688.394        4.225        1.260      243.521       50.606        0.043      346.177       24.235      862.632
08/13/2013  22:13:00     -247.327     -103.529       -8.183      133.826      119.750       60.859    17909.279    14340.076     3703.875        5.395        1.798      268.121       63.334        0.056      346.191       24.256      862.627
08/13/2013  22:14:00     -276.168      -45.226      -26.250       88.025      103.925       44.107     7748.484    10800.362     1945.417        4.975        1.025      279.847       38.776        0.019      346.198       24.268      862.625
08/13/2013  22:15:00     -222.345      -50.856      -14.509      111.842      105.149       57.464    12508.571    11056.403     3302.115        3.955        1.343      228.087       48.455        0.045      346.191       24.258      862.644
08/13/2013  22:16:00     -201.097      -86.584       -2.862      125.588      107.893       51.727    15772.462    11640.876     2675.645        3.901        1.504      218.945       63.497        0.084      346.162       24.208      862.662
08/13/2013  22:17:00     -172.994        8.885       -8.297      111.446       64.732       45.925    12420.220     4190.292     2109.117        2.439        0.936      173.222       54.447        0.099      346.127       24.149      862.652
08/13/2013  22:18:00     -223.326      -23.141       -4.332       94.671       86.396       51.862     8962.575     7464.228     2689.686        3.477        0.956      224.522       53.217        0.056      346.123       24.139      862.669
08/13/2013  22:19:00     -312.561      -80.547      -21.301      111.515      119.379       52.944    12435.669    14251.375     2803.040        6.706        1.475      322.773       62.551        0.038      346.185       24.246      862.662
08/13/2013  22:20:00     -237.750       -3.615       -8.505      148.664       89.951       62.320    22101.030     8091.162     3883.797        4.534        1.704      237.777       61.129        0.066      346.118       24.134      862.652
08/13/2013  22:21:00     -375.256      -16.038      -25.958      173.100      120.255       65.084    29963.550    14461.356     4235.880        9.520        2.433      375.598       81.492        0.047      346.122       24.139      862.672
08/13/2013  22:22:00     -240.358      -53.350        6.048      155.165       91.295       55.027    24076.250     8334.700     3027.921        4.804        1.772      246.207       59.826        0.059      346.086       24.077      862.716
08/13/2013  22:23:00     -195.109      -58.060       -6.242       82.089       83.866       49.651     6738.570     7033.462     2465.178        2.885        0.812      203.565       40.135        0.039      346.159       24.202      862.747
08/13/2013  22:24:00     -182.092      -52.048      -10.047      135.529       64.772       48.522    18368.211     4195.370     2354.386        3.044        1.246      189.385       59.878        0.100      346.297       24.439      862.744
08/13/2013  22:25:00     -170.737     -104.507       -4.160      108.705       85.279       43.175    11816.717     7272.427     1864.106        3.052        1.048      200.182       42.577        0.045      346.297       24.440      862.759
08/13/2013  22:26:00     -233.748     -142.857       -4.873      109.209       83.752       49.794    11926.513     7014.469     2479.430        4.824        1.071      273.946       50.652        0.034      346.330       24.497      862.776
08/13/2013  22:27:00     -258.759      -73.374      -19.381       76.068      113.803       43.257     5786.300    12951.123     1871.191        4.666        1.030      268.960       37.634        0.020      346.264       24.383      862.775
08/13/2013  22:28:00     -153.484      -89.985        4.607       90.453       57.543       46.331     8181.761     3311.236     2146.564        2.266        0.682      177.918       42.698        0.058      346.215       24.299      862.792
08/13/2013  22:29:00     -233.551     -162.014       -7.121      119.948      100.584       53.981    14387.631    10117.160     2913.911        5.413        1.371      284.244       63.348        0.050      346.323       24.483      862.797
08/13/2013  22:30:00     -162.785      -99.975        6.279      142.108      142.370       59.989    20194.698    20269.259     3598.673        4.029        2.203      191.034       73.093        0.146      346.219       24.306      862.819
08/13/2013  22:31:00      -76.125      -16.466        6.432       71.583       40.434       26.018     5124.159     1634.934      676.911        0.677        0.372       77.885       23.666        0.092      346.128       24.152      862.838
08/13/2013  22:32:00      -60.194       -9.832        0.881       68.548       72.095       27.597     4698.890     5197.712      761.613        0.719        0.533       60.992       25.719        0.178      346.154       24.198      862.849
08/13/2013  22:33:00     -131.088      -78.369       -0.773      106.642       72.833       40.912    11372.415     5304.700     1673.790        2.084        0.918      152.727       38.052        0.062      346.130       24.153      862.867
08/13/2013  22:34:00     -188.119     -157.627       -8.213       93.250       72.844       54.230     8695.515     5306.268     2940.902        3.862        0.847      245.428       50.673        0.043      346.273       24.398      862.862
08/13/2013  22:35:00      -39.835      -28.731       19.530       76.306       62.008       42.241     5822.533     3844.933     1784.287        0.712        0.573       49.115       42.093        0.735      345.963       23.868      862.874
08/13/2013  22:36:00      -51.229      -26.874        9.667       56.102       54.093       27.842     3147.416     2926.055      775.190        0.514        0.342       57.850       28.812        0.248      345.969       23.880      862.890
08/13/2013  22:37:00     -135.220      -76.164       -7.098       66.742       75.211       29.578     4454.515     5656.754      874.873        1.756        0.549      155.195       36.816        0.056      346.198       24.271      862.885
08/13/2013  22:38:00      -88.006      -26.973       12.181       81.360       66.587       43.863     6619.395     4433.884     1923.982        1.080        0.649       92.047       44.617        0.235      346.031       23.986      862.884
08/13/2013  22:39:00     -151.825      -66.775       10.547      135.403      104.279       56.456    18334.103    10874.107     3187.328        3.000        1.620      165.861       68.783        0.172      346.038       23.996      862.877
08/13/2013  22:40:00      -73.606      -16.782        8.500       67.886       71.853       36.262     4608.500     5162.818     1314.899        0.843        0.554       75.495       35.617        0.223      345.972       23.885      862.881
08/13/2013  22:41:00      -75.345       44.030        7.345       74.700       45.222       42.935     5580.053     2045.032     1843.417        0.857        0.473       87.267       36.419        0.174      345.959       23.861      862.905
08/13/2013  22:42:00        1.141       20.613        3.430       25.673       23.116       17.792      659.078      534.338      316.540        0.097        0.075       20.644        9.789        0.225      345.752       23.506      862.919
08/13/2013  22:43:00      -18.908       46.207       -1.579       35.187       74.555       33.662     1238.110     5558.482     1133.113        0.521        0.396       49.926       25.033        0.251      345.927       23.807      862.934
08/13/2013  22:44:00       19.525      118.997        2.210       43.707       96.714       52.340     1910.338     9353.555     2739.490        1.427        0.700      120.588       44.520        0.136      345.997       23.926      862.922
08/13/2013  22:45:00       78.068       51.996       -2.188       48.528       46.938       37.755     2354.924     2203.141     1425.406        0.739        0.299       93.799       28.422        0.092      345.908       23.777      862.945
08/13/2013  22:46:00       54.942       52.614       14.020       57.991       33.437       36.046     3362.931     1118.005     1299.310        0.588        0.289       76.072        5.249        0.005      345.943       23.836      862.964
08/13/2013  22:47:00      153.183      109.454       33.796       74.726       46.120       44.208     5584.016     2127.077     1954.358        2.312        0.483      188.269       28.649        0.023      345.993       23.918      862.974
08/13/2013  22:48:00      105.633       88.403       74.564       51.698       47.326       51.864     2672.686     2239.703     2689.900        1.607        0.380      137.744       31.961        0.054      345.653       23.337      862.964
08/13/2013  22:49:00      163.048      108.120       23.506       67.793       61.369       48.641     4595.854     3766.127     2365.946        2.478        0.536      195.639       34.213        0.031      345.934       23.818      862.975
08/13/2013  22:50:00      108.639       76.416        6.767       64.187       44.935       35.067     4119.915     2019.146     1229.688        1.253        0.368      132.823       32.634        0.060      345.965       23.871      862.994
08/13/2013  22:51:00       41.560       52.801       15.604       43.229       37.945       38.146     1868.772     1439.789     1455.079        0.476        0.238       67.195       27.421        0.167      345.968       23.877      863.014
08/13/2013  22:52:00      137.791       78.510       24.216       51.588       35.356       35.864     2661.292     1250.063     1286.225        1.547        0.260      158.588       15.777        0.010      345.663       23.354      863.017
08/13/2013  22:53:00      123.100       72.849       28.332       50.418       36.200       32.863     2541.977     1310.408     1079.959        1.310        0.247      143.040       17.341        0.015      345.758       23.519      863.016
08/13/2013  22:54:00      123.289       69.924       16.428       40.304       39.241       35.859     1624.434     1539.872     1285.876        1.240        0.223      141.737       14.133        0.010      345.484       23.048      863.033
08/13/2013  22:55:00      126.353       82.412       39.935       43.183       33.913       35.505     1864.731     1150.111     1260.584        1.431        0.214      150.854       20.542        0.019      345.580       23.211      863.049
08/13/2013  22:56:00      126.632       83.928       31.554       32.425       28.695       27.327     1051.382      823.401      746.744        1.335        0.131      151.919       16.935        0.012      345.454       22.997      863.059
08/13/2013  22:57:00       24.307       41.633       10.896       43.914       27.758       31.696     1928.398      770.511     1004.651        0.307        0.185       48.209       21.534        0.200      345.158       22.490      863.072
08/13/2013  22:58:00      -30.359       34.913        5.856       37.377       27.344       24.108     1397.014      747.709      581.179        0.245        0.136       46.267       12.986        0.079      345.215       22.586      863.075
08/13/2013  22:59:00     -108.124       -4.945      -17.034       22.636       20.016       16.640      512.382      400.631      276.875        0.660        0.059      108.237       12.097        0.012      345.272       22.683      863.080
08/13/2013  23:00:00      -30.540       10.927        6.003       44.795       23.344       20.022     2006.623      544.949      400.876        0.202        0.148       32.436       25.678        0.627      345.159       22.491      863.082
08/13/2013  23:01:00       53.850       49.004       18.412       36.310       40.294       33.155     1318.439     1623.603     1099.242        0.484        0.202       72.810       28.628        0.155      344.743       21.777      863.059
08/13/2013  23:02:00       82.459       67.506       20.201       41.493       27.946       27.126     1721.633      780.990      735.820        0.750        0.162      106.567       17.087        0.026      345.352       22.822      863.022
08/13/2013  23:03:00       59.471      115.642       -4.868       47.705       87.893       36.377     2275.728     7725.246     1323.287        1.413        0.566      130.038       44.002        0.115      345.456       22.997      863.012
08/13/2013  23:04:00       43.590      159.434      -17.436       48.660       87.312       46.604     2367.770     7623.407     2171.913        1.989        0.608      165.286       47.494        0.083      345.755       23.510      863.008
08/13/2013  23:05:00       91.916       66.608       18.466       61.297       40.001       27.510     3757.320     1600.089      756.803        0.967        0.306      113.513       13.261        0.014      345.693       23.405      863.030
08/13/2013  23:06:00      151.637       79.937       19.489       40.187       34.388       24.513     1614.980     1182.558      600.888        1.658        0.170      171.417       19.232        0.013      345.648       23.329      863.047
08/13/2013  23:07:00      104.566       88.200       40.432       68.461       29.871       42.825     4686.850      892.251     1833.975        1.388        0.371      136.796       39.107        0.082      345.236       22.624      863.051
08/13/2013  23:08:00        7.371       57.403       83.073       43.654       50.106       27.921     1905.644     2510.640      779.560        0.772        0.260       57.874       24.427        0.178      345.240       22.630      863.056
08/13/2013  23:09:00       -0.862      -72.570       21.279       58.658       62.843       43.032     3440.781     3949.205     1851.786        0.748        0.462       72.575       29.494        0.165      345.128       22.438      863.050
08/13/2013  23:10:00        2.820      -30.143       23.412       65.669       66.750       41.584     4312.443     4455.607     1729.248        0.598        0.525       30.275       35.129        1.346      345.409       22.919      863.040
08/13/2013  23:11:00       58.003      -64.075        4.665       34.636       45.072       31.793     1199.669     2031.504     1010.785        0.587        0.212       86.429       27.192        0.099      345.391       22.890      863.035
08/13/2013  23:12:00       23.407      -44.123       -8.356       32.819       27.431       30.249     1077.084      752.438      914.982        0.265        0.137       49.947       10.768        0.046      345.286       22.708      863.028
08/13/2013  23:13:00      -34.779       22.023      -10.434       24.163       39.603       16.103      583.844     1568.377      259.314        0.211        0.121       41.165       10.081        0.060      345.466       23.016      863.024
08/13/2013  23:14:00       -7.636       78.806       -5.027       25.807       33.894       15.134      665.987     1148.787      229.037        0.417        0.102       79.176       15.481        0.038      345.467       23.016      863.021
08/13/2013  23:15:00      -29.850       85.130       -9.898       27.919       24.085       13.278      779.446      580.085      176.299        0.489        0.077       90.211        8.424        0.009      345.727       23.464      863.015
08/13/2013  23:16:00        5.602       32.881       -7.952       12.132       30.118       10.348      147.179      907.067      107.077        0.117        0.058       33.355       15.279        0.210      345.663       23.355      863.022
08/13/2013  23:17:00      -20.499      -22.908        1.900       14.922       17.053        7.688      222.678      290.801       59.111        0.076        0.029       30.741        6.784        0.049      345.464       23.012      863.054
08/13/2013  23:18:00      -14.888       -3.525        5.958       19.757       13.333       16.266      390.354      177.777      264.581        0.055        0.042       15.300        8.862        0.335      345.324       22.772      863.062
08/13/2013  23:19:00       31.985      -24.877        3.495       32.666       36.218       27.195     1067.039     1311.712      739.554        0.239        0.156       40.521       25.873        0.408      344.999       22.216      863.061
08/13/2013  23:20:00       56.327      -31.309        7.696       40.268       39.123       28.548     1621.483     1530.617      815.007        0.409        0.198       64.443       23.319        0.131      344.341       21.090      863.049
08/13/2013  23:21:00       16.053       38.466       39.743       36.345       42.688       27.789     1320.933     1822.224      772.201        0.362        0.196       41.681       10.032        0.058      344.720       21.739      863.036
08/13/2013  23:22:00      -11.453       22.290       20.755       40.239       42.031       35.926     1619.210     1766.605     1290.678        0.287        0.234       25.060       31.964        1.627      344.872       21.999      863.055
08/13/2013  23:23:00      -22.613       -6.264       -0.507       27.492       50.767       35.934      755.832     2577.250     1291.226        0.259        0.231       23.465       24.513        1.091      344.990       22.199      863.103
08/13/2013  23:24:00      -17.879      -21.891       -7.622       20.262       33.916       15.058      410.559     1150.268      226.732        0.132        0.089       28.264        9.855        0.122      345.262       22.666      863.123
08/13/2013  23:25:00      -16.484       -9.910        9.940       37.928       22.508       18.785     1438.502      506.617      352.890        0.138        0.115       19.234       22.595        1.380      345.408       22.917      863.103
08/13/2013  23:26:00       65.713       -5.788       16.728       28.048       15.808       21.624      786.687      249.889      467.612        0.307        0.075       65.968       17.427        0.070      344.788       21.855      863.081
08/13/2013  23:27:00       16.210      -19.501        5.636       25.684       20.840       19.479      659.651      434.326      379.437        0.107        0.074       25.358        8.093        0.102      344.687       21.683      863.063
08/13/2013  23:28:00      -61.613       51.088      -10.540       20.858       36.811       12.922      435.073     1355.037      166.991        0.424        0.098       80.038       17.316        0.047      345.292       22.718      863.069
08/13/2013  23:29:00     -125.884      107.559      -27.807       73.916       51.320       35.775     5463.590     2633.733     1279.878        1.878        0.469      165.577       45.481        0.075      345.363       22.837      863.065
08/13/2013  23:30:00     -134.722      164.988      -35.224       78.048       40.812       34.686     6091.557     1665.595     1203.139        2.778        0.448      213.005       38.930        0.033      345.550       23.158      863.046
08/13/2013  23:31:00       17.896      190.830      -19.281       28.009       40.150       25.594      784.478     1611.982      655.073        2.008        0.153      191.667       23.673        0.015      345.682       23.386      863.034
08/13/2013  23:32:00       30.680       75.615        3.983       47.498       80.886       35.354     2256.019     6542.478     1249.878        0.836        0.502       81.602       42.457        0.271      345.357       22.829      863.000
08/13/2013  23:33:00      -85.821       23.046      -13.345       48.116       63.411       27.507     2315.153     4020.906      756.662        0.758        0.355       88.862       19.604        0.049      345.395       22.894      863.053
08/13/2013  23:34:00        8.306      -22.361        4.731       41.459       16.939       16.378     1718.874      286.939      268.240        0.143        0.114       23.853        9.222        0.149      345.136       22.451      863.079
08/13/2013  23:35:00       82.242      -66.559       -5.993       30.658       29.451       26.888      939.915      867.349      722.984        0.688        0.127      105.801       14.894        0.020      344.708       21.718      863.081
08/13/2013  23:36:00       65.520      -52.506       -3.668       35.611       31.635       16.864     1268.128     1000.782      284.406        0.481        0.128       83.962       16.757        0.040      344.999       22.216      863.092
08/13/2013  23:37:00      -69.669      -61.648        2.231       53.362       27.539       23.065     2847.514      758.418      532.009        0.640        0.207       93.028       18.988        0.042      345.354       22.824      863.130
08/13/2013  23:38:00     -124.750      -21.495       -5.007       48.843       45.827       23.998     2385.592     2100.116      575.908        1.055        0.253      126.589       23.806        0.035      345.289       22.712      863.176
08/13/2013  23:39:00      -92.908       -3.825        1.564       56.563       51.918       31.041     3199.399     2695.434      963.548        0.775        0.343       92.986       31.168        0.112      345.027       22.266      863.185
08/13/2013  23:40:00       -2.412        8.140       17.112       27.767       20.741       18.870      771.033      430.208      356.087        0.096        0.078        8.489       11.779        1.925      344.729       21.755      863.183
08/13/2013  23:41:00       -6.190       69.410       -3.269       26.378       40.276       16.673      695.819     1622.176      277.981        0.373        0.130       69.685       18.989        0.074      345.286       22.709      863.164
08/13/2013  23:42:00      -13.341       91.947       -9.964       13.402       11.835        7.924      179.601      140.071       62.784        0.456        0.019       92.910        4.816        0.003      345.676       23.377      863.157
08/13/2013  23:43:00        6.548       54.101        1.336       18.182       23.199       11.854      330.569      538.185      140.527        0.199        0.050       54.495       12.491        0.053      345.447       22.983      863.152
08/13/2013  23:44:00       77.968       45.307        6.768       26.719       27.787       25.136      713.900      772.113      631.814        0.515        0.106       90.176       14.865        0.027      344.667       21.648      863.146
08/13/2013  23:45:00       81.410       22.081       32.061       29.897       34.414       24.620      893.818     1184.318      606.157        0.541        0.134       84.351       23.908        0.080      344.782       21.845      863.149
08/13/2013  23:46:00       67.981       23.567        1.877       36.945       29.380       26.369     1364.968      863.169      695.347        0.405        0.146       71.950       13.660        0.036      344.609       21.549      863.147
08/13/2013  23:47:00       37.723        0.183        6.392       46.917       41.003       25.167     2201.199     1681.269      633.398        0.299        0.226       37.723       17.754        0.221      344.804       21.883      863.172
08/13/2013  23:48:00      -48.453      -62.579       -9.269       33.854       35.162       26.664     1146.074     1236.343      710.980        0.472        0.155       79.144       19.252        0.059      344.737       21.768      863.201
08/13/2013  23:49:00     -142.648      -70.612       -8.039       44.396       39.441       37.160     1971.045     1555.570     1380.857        1.515        0.245      159.168       28.751        0.033      345.001       22.220      863.204
08/13/2013  23:50:00     -121.193      -93.432        1.079       65.299       63.354       37.573     4264.016     4013.688     1411.753        1.655        0.484      153.027       33.400        0.048      344.949       22.130      863.209
08/13/2013  23:51:00     -180.829      -73.429       -3.881       66.288       49.739       34.225     4394.069     2473.932     1171.353        2.307        0.402      195.169       35.237        0.033      345.060       22.318      863.212
08/13/2013  23:52:00     -112.579      -20.231       10.734       68.395       47.569       30.587     4677.897     2262.797      935.544        1.054        0.394      114.383       36.825        0.104      344.864       21.984      863.205
08/13/2013  23:53:00      -37.546        6.822        6.133       28.266       25.131       20.954      798.949      631.543      439.077        0.168        0.093       38.160        9.987        0.068      344.620       21.568      863.188
08/13/2013  23:54:00        5.744       13.763        7.632       20.293       19.190       12.169      411.803      368.271      148.075        0.060        0.046       14.913        7.276        0.238      344.623       21.574      863.173
08/13/2013  23:55:00       68.233       23.774       37.762       36.587       39.775       34.225     1338.597     1582.033     1171.364        0.537        0.205       72.256       23.251        0.104      344.389       21.173      863.154
08/13/2013  23:56:00       48.416        9.981       -6.703       42.498       30.439       30.411     1806.055      926.534      924.821        0.307        0.183       49.434       27.650        0.313      344.247       20.930      863.148
08/13/2013  23:57:00      -81.573      -40.908      -12.396       47.015       28.290       14.393     2210.446      800.331      207.153        0.585        0.161       91.256       11.640        0.016      344.674       21.662      863.187
08/13/2013  23:58:00     -174.065      -26.470       -2.899       63.858       47.930       29.132     4077.821     2297.321      848.646        1.911        0.361      176.066       31.416        0.032      344.696       21.695      863.197
08/13/2013  23:59:00     -141.328      -31.715       -6.320       64.964       44.456       24.958     4220.384     1976.308      622.911        1.392        0.341      144.843       29.816        0.042      344.637       21.596      863.202
